<?xml version="1.0" encoding="UTF-8"?>
<gpx version="1.1" creator="https://www.youtrack.es" xsi:schemaLocation="http://www.topografix.com/GPX/1/1 http://www.topografix.com/GPX/1/1/gpx.xsd http://www.garmin.com/xmlschemas/GpxExtensions/v3 http://www.garmin.com/xmlschemas/GpxExtensionsv3.xsd http://www.garmin.com/xmlschemas/TrackPointExtension/v1 http://www.garmin.com/xmlschemas/TrackPointExtensionv1.xsd" xmlns:gpxtpx="http://www.garmin.com/xmlschemas/TrackPointExtension/v1" xmlns:gpxx="http://www.garmin.com/xmlschemas/GpxExtensions/v3" xmlns:xsi="http://www.w3.org/2001/XMLSchema-instance">
  <metadata>
    <link href="https://www.youtrack.es">
      <text>YouTrack.es</text>
    </link>
    <time>2026-05-08T16:51:41Z</time>
  </metadata>
  <trk>
    <src>https://www.youtrack.es</src>
    <link href="https://www.youtrack.es/ruta/27285-lanzarote-corregida">
      <text>YouTrack.es</text>
    </link>
    <trkseg>
      <trkpt lat="28.860611" lon="-13.834910">
        <ele>8.134</ele>
        <time>2021-11-01T16:23:46Z</time>
      </trkpt>
      <trkpt lat="28.860575" lon="-13.835047">
        <ele>7.855</ele>
        <time>2021-11-01T16:23:47Z</time>
      </trkpt>
      <trkpt lat="28.860811" lon="-13.834282">
        <ele>9.610</ele>
        <time>2021-11-01T16:23:50Z</time>
      </trkpt>
      <trkpt lat="28.861097" lon="-13.834469">
        <ele>11.108</ele>
        <time>2021-11-01T16:24:07Z</time>
      </trkpt>
      <trkpt lat="28.861172" lon="-13.834044">
        <ele>12.061</ele>
        <time>2021-11-01T16:24:18Z</time>
      </trkpt>
      <trkpt lat="28.861802" lon="-13.833119">
        <ele>15.061</ele>
        <time>2021-11-01T16:24:49Z</time>
      </trkpt>
      <trkpt lat="28.864194" lon="-13.831433">
        <ele>16.978</ele>
        <time>2021-11-01T16:25:46Z</time>
      </trkpt>
      <trkpt lat="28.864782" lon="-13.830904">
        <ele>18.353</ele>
        <time>2021-11-01T16:26:02Z</time>
      </trkpt>
      <trkpt lat="28.864968" lon="-13.830344">
        <ele>18.294</ele>
        <time>2021-11-01T16:26:25Z</time>
      </trkpt>
      <trkpt lat="28.865194" lon="-13.830235">
        <ele>18.670</ele>
        <time>2021-11-01T16:26:29Z</time>
      </trkpt>
      <trkpt lat="28.865580" lon="-13.830563">
        <ele>20.169</ele>
        <time>2021-11-01T16:26:38Z</time>
      </trkpt>
      <trkpt lat="28.867653" lon="-13.831078">
        <ele>29.914</ele>
        <time>2021-11-01T16:27:33Z</time>
      </trkpt>
      <trkpt lat="28.868483" lon="-13.831059">
        <ele>32.316</ele>
        <time>2021-11-01T16:28:16Z</time>
      </trkpt>
      <trkpt lat="28.868973" lon="-13.830715">
        <ele>32.776</ele>
        <time>2021-11-01T16:29:13Z</time>
      </trkpt>
      <trkpt lat="28.869410" lon="-13.831123">
        <ele>33.213</ele>
        <time>2021-11-01T16:29:27Z</time>
      </trkpt>
      <trkpt lat="28.876644" lon="-13.831671">
        <ele>35.708</ele>
        <time>2021-11-01T16:31:37Z</time>
      </trkpt>
      <trkpt lat="28.894071" lon="-13.834200">
        <ele>42.359</ele>
        <time>2021-11-01T16:36:03Z</time>
      </trkpt>
      <trkpt lat="28.896237" lon="-13.834283">
        <ele>39.989</ele>
        <time>2021-11-01T16:36:26Z</time>
      </trkpt>
      <trkpt lat="28.898862" lon="-13.833832">
        <ele>36.196</ele>
        <time>2021-11-01T16:36:54Z</time>
      </trkpt>
      <trkpt lat="28.917881" lon="-13.827466">
        <ele>31.931</ele>
        <time>2021-11-01T16:40:48Z</time>
      </trkpt>
      <trkpt lat="28.922250" lon="-13.825670">
        <ele>29.022</ele>
        <time>2021-11-01T16:41:42Z</time>
      </trkpt>
      <trkpt lat="28.923224" lon="-13.825192">
        <ele>29.328</ele>
        <time>2021-11-01T16:41:59Z</time>
      </trkpt>
      <trkpt lat="28.923534" lon="-13.824868">
        <ele>30.737</ele>
        <time>2021-11-01T16:42:09Z</time>
      </trkpt>
      <trkpt lat="28.924068" lon="-13.824661">
        <ele>33.852</ele>
        <time>2021-11-01T16:43:15Z</time>
      </trkpt>
      <trkpt lat="28.924505" lon="-13.824661">
        <ele>36.392</ele>
        <time>2021-11-01T16:43:24Z</time>
      </trkpt>
      <trkpt lat="28.927383" lon="-13.823408">
        <ele>42.873</ele>
        <time>2021-11-01T16:44:23Z</time>
      </trkpt>
      <trkpt lat="28.931035" lon="-13.821289">
        <ele>44.820</ele>
        <time>2021-11-01T16:45:33Z</time>
      </trkpt>
      <trkpt lat="28.932477" lon="-13.820131">
        <ele>46.008</ele>
        <time>2021-11-01T16:46:01Z</time>
      </trkpt>
      <trkpt lat="28.935701" lon="-13.815208">
        <ele>54.947</ele>
        <time>2021-11-01T16:47:50Z</time>
      </trkpt>
      <trkpt lat="28.935791" lon="-13.814424">
        <ele>56.457</ele>
        <time>2021-11-01T16:48:03Z</time>
      </trkpt>
      <trkpt lat="28.935506" lon="-13.813614">
        <ele>57.884</ele>
        <time>2021-11-01T16:48:38Z</time>
      </trkpt>
      <trkpt lat="28.935756" lon="-13.813373">
        <ele>58.649</ele>
        <time>2021-11-01T16:48:45Z</time>
      </trkpt>
      <trkpt lat="28.935924" lon="-13.813439">
        <ele>57.910</ele>
        <time>2021-11-01T16:48:48Z</time>
      </trkpt>
      <trkpt lat="28.936163" lon="-13.813976">
        <ele>53.246</ele>
        <time>2021-11-01T16:48:55Z</time>
      </trkpt>
      <trkpt lat="28.937583" lon="-13.814999">
        <ele>46.185</ele>
        <time>2021-11-01T16:49:14Z</time>
      </trkpt>
      <trkpt lat="28.938261" lon="-13.815209">
        <ele>44.980</ele>
        <time>2021-11-01T16:49:23Z</time>
      </trkpt>
      <trkpt lat="28.938601" lon="-13.815518">
        <ele>44.467</ele>
        <time>2021-11-01T16:49:30Z</time>
      </trkpt>
      <trkpt lat="28.939623" lon="-13.815821">
        <ele>42.781</ele>
        <time>2021-11-01T16:49:49Z</time>
      </trkpt>
      <trkpt lat="28.940291" lon="-13.816463">
        <ele>40.219</ele>
        <time>2021-11-01T16:50:05Z</time>
      </trkpt>
      <trkpt lat="28.940484" lon="-13.817206">
        <ele>36.608</ele>
        <time>2021-11-01T16:52:02Z</time>
      </trkpt>
      <trkpt lat="28.940483" lon="-13.817062">
        <ele>35.514</ele>
        <time>2021-11-01T16:55:27Z</time>
      </trkpt>
      <trkpt lat="28.940797" lon="-13.816879">
        <ele>33.584</ele>
        <time>2021-11-01T16:55:38Z</time>
      </trkpt>
      <trkpt lat="28.942357" lon="-13.816899">
        <ele>29.471</ele>
        <time>2021-11-01T16:56:09Z</time>
      </trkpt>
      <trkpt lat="28.942886" lon="-13.817354">
        <ele>30.846</ele>
        <time>2021-11-01T16:56:20Z</time>
      </trkpt>
      <trkpt lat="28.943114" lon="-13.818129">
        <ele>30.827</ele>
        <time>2021-11-01T16:56:32Z</time>
      </trkpt>
      <trkpt lat="28.943179" lon="-13.819011">
        <ele>29.283</ele>
        <time>2021-11-01T16:56:43Z</time>
      </trkpt>
      <trkpt lat="28.942748" lon="-13.823888">
        <ele>16.712</ele>
        <time>2021-11-01T16:57:31Z</time>
      </trkpt>
      <trkpt lat="28.941958" lon="-13.825159">
        <ele>16.067</ele>
        <time>2021-11-01T16:57:48Z</time>
      </trkpt>
      <trkpt lat="28.941117" lon="-13.825774">
        <ele>16.938</ele>
        <time>2021-11-01T16:58:01Z</time>
      </trkpt>
      <trkpt lat="28.940698" lon="-13.825865">
        <ele>17.370</ele>
        <time>2021-11-01T16:58:46Z</time>
      </trkpt>
      <trkpt lat="28.940531" lon="-13.826097">
        <ele>17.417</ele>
        <time>2021-11-01T16:59:06Z</time>
      </trkpt>
      <trkpt lat="28.938614" lon="-13.831002">
        <ele>15.008</ele>
        <time>2021-11-01T17:00:13Z</time>
      </trkpt>
      <trkpt lat="28.938626" lon="-13.831559">
        <ele>14.141</ele>
        <time>2021-11-01T17:00:23Z</time>
      </trkpt>
      <trkpt lat="28.939000" lon="-13.832191">
        <ele>16.551</ele>
        <time>2021-11-01T17:01:20Z</time>
      </trkpt>
      <trkpt lat="28.940025" lon="-13.833200">
        <ele>17.258</ele>
        <time>2021-11-01T17:01:50Z</time>
      </trkpt>
      <trkpt lat="28.941458" lon="-13.833094">
        <ele>20.513</ele>
        <time>2021-11-01T17:04:10Z</time>
      </trkpt>
      <trkpt lat="28.942709" lon="-13.833177">
        <ele>19.214</ele>
        <time>2021-11-01T17:04:34Z</time>
      </trkpt>
      <trkpt lat="28.943633" lon="-13.832326">
        <ele>21.250</ele>
        <time>2021-11-01T17:04:58Z</time>
      </trkpt>
      <trkpt lat="28.944906" lon="-13.831868">
        <ele>24.479</ele>
        <time>2021-11-01T17:05:48Z</time>
      </trkpt>
      <trkpt lat="28.945849" lon="-13.832041">
        <ele>26.184</ele>
        <time>2021-11-01T17:06:21Z</time>
      </trkpt>
      <trkpt lat="28.945699" lon="-13.832079">
        <ele>25.214</ele>
        <time>2021-11-01T17:06:46Z</time>
      </trkpt>
      <trkpt lat="28.945828" lon="-13.832249">
        <ele>24.254</ele>
        <time>2021-11-01T17:06:56Z</time>
      </trkpt>
      <trkpt lat="28.946725" lon="-13.832435">
        <ele>20.009</ele>
        <time>2021-11-01T17:07:17Z</time>
      </trkpt>
      <trkpt lat="28.947939" lon="-13.831946">
        <ele>19.308</ele>
        <time>2021-11-01T17:07:38Z</time>
      </trkpt>
      <trkpt lat="28.948764" lon="-13.832152">
        <ele>17.179</ele>
        <time>2021-11-01T17:07:54Z</time>
      </trkpt>
      <trkpt lat="28.949543" lon="-13.832118">
        <ele>14.689</ele>
        <time>2021-11-01T17:08:06Z</time>
      </trkpt>
      <trkpt lat="28.950527" lon="-13.832731">
        <ele>15.346</ele>
        <time>2021-11-01T17:08:31Z</time>
      </trkpt>
      <trkpt lat="28.951173" lon="-13.833569">
        <ele>12.251</ele>
        <time>2021-11-01T17:08:48Z</time>
      </trkpt>
      <trkpt lat="28.951539" lon="-13.833700">
        <ele>12.452</ele>
        <time>2021-11-01T17:08:55Z</time>
      </trkpt>
      <trkpt lat="28.952919" lon="-13.832254">
        <ele>20.938</ele>
        <time>2021-11-01T17:09:46Z</time>
      </trkpt>
      <trkpt lat="28.954256" lon="-13.831888">
        <ele>20.077</ele>
        <time>2021-11-01T17:10:25Z</time>
      </trkpt>
      <trkpt lat="28.954449" lon="-13.832354">
        <ele>17.912</ele>
        <time>2021-11-01T17:10:59Z</time>
      </trkpt>
      <trkpt lat="28.954171" lon="-13.832567">
        <ele>14.635</ele>
        <time>2021-11-01T17:11:06Z</time>
      </trkpt>
      <trkpt lat="28.954452" lon="-13.832617">
        <ele>15.886</ele>
        <time>2021-11-01T17:11:29Z</time>
      </trkpt>
      <trkpt lat="28.954902" lon="-13.833327">
        <ele>12.014</ele>
        <time>2021-11-01T17:11:58Z</time>
      </trkpt>
      <trkpt lat="28.955254" lon="-13.833383">
        <ele>7.608</ele>
        <time>2021-11-01T17:12:19Z</time>
      </trkpt>
      <trkpt lat="28.954898" lon="-13.832945">
        <ele>13.431</ele>
        <time>2021-11-01T17:15:46Z</time>
      </trkpt>
      <trkpt lat="28.954733" lon="-13.833096">
        <ele>15.891</ele>
        <time>2021-11-01T17:16:36Z</time>
      </trkpt>
      <trkpt lat="28.954908" lon="-13.832960">
        <ele>15.698</ele>
        <time>2021-11-01T17:18:53Z</time>
      </trkpt>
      <trkpt lat="28.954656" lon="-13.832703">
        <ele>15.793</ele>
        <time>2021-11-01T17:19:14Z</time>
      </trkpt>
      <trkpt lat="28.954277" lon="-13.832626">
        <ele>15.254</ele>
        <time>2021-11-01T17:19:28Z</time>
      </trkpt>
      <trkpt lat="28.954131" lon="-13.832778">
        <ele>14.420</ele>
        <time>2021-11-01T17:19:36Z</time>
      </trkpt>
      <trkpt lat="28.953921" lon="-13.833714">
        <ele>6.789</ele>
        <time>2021-11-01T17:21:11Z</time>
      </trkpt>
      <trkpt lat="28.954025" lon="-13.833557">
        <ele>8.394</ele>
        <time>2021-11-01T17:21:52Z</time>
      </trkpt>
      <trkpt lat="28.953846" lon="-13.833292">
        <ele>10.681</ele>
        <time>2021-11-01T17:25:01Z</time>
      </trkpt>
      <trkpt lat="28.953882" lon="-13.832877">
        <ele>12.961</ele>
        <time>2021-11-01T17:25:08Z</time>
      </trkpt>
      <trkpt lat="28.954528" lon="-13.832334">
        <ele>17.917</ele>
        <time>2021-11-01T17:25:26Z</time>
      </trkpt>
      <trkpt lat="28.954607" lon="-13.831972">
        <ele>17.808</ele>
        <time>2021-11-01T17:25:39Z</time>
      </trkpt>
      <trkpt lat="28.956152" lon="-13.831632">
        <ele>13.996</ele>
        <time>2021-11-01T17:26:07Z</time>
      </trkpt>
      <trkpt lat="28.956943" lon="-13.831296">
        <ele>11.956</ele>
        <time>2021-11-01T17:26:22Z</time>
      </trkpt>
      <trkpt lat="28.959482" lon="-13.829066">
        <ele>6.453</ele>
        <time>2021-11-01T17:27:16Z</time>
      </trkpt>
      <trkpt lat="28.961104" lon="-13.828765">
        <ele>8.388</ele>
        <time>2021-11-01T17:28:28Z</time>
      </trkpt>
      <trkpt lat="28.962542" lon="-13.828795">
        <ele>15.079</ele>
        <time>2021-11-01T17:29:05Z</time>
      </trkpt>
      <trkpt lat="28.964647" lon="-13.829422">
        <ele>23.185</ele>
        <time>2021-11-01T17:30:06Z</time>
      </trkpt>
      <trkpt lat="28.968014" lon="-13.829971">
        <ele>29.684</ele>
        <time>2021-11-01T17:31:28Z</time>
      </trkpt>
      <trkpt lat="28.971966" lon="-13.830869">
        <ele>29.359</ele>
        <time>2021-11-01T17:32:45Z</time>
      </trkpt>
      <trkpt lat="28.972172" lon="-13.830696">
        <ele>30.665</ele>
        <time>2021-11-01T17:32:54Z</time>
      </trkpt>
      <trkpt lat="28.973322" lon="-13.828018">
        <ele>36.168</ele>
        <time>2021-11-01T17:34:49Z</time>
      </trkpt>
      <trkpt lat="28.976036" lon="-13.824428">
        <ele>47.914</ele>
        <time>2021-11-01T17:36:44Z</time>
      </trkpt>
      <trkpt lat="28.976079" lon="-13.824546">
        <ele>48.308</ele>
        <time>2021-11-01T17:37:03Z</time>
      </trkpt>
      <trkpt lat="28.976859" lon="-13.822951">
        <ele>51.984</ele>
        <time>2021-11-01T17:37:45Z</time>
      </trkpt>
      <trkpt lat="28.978476" lon="-13.820783">
        <ele>57.634</ele>
        <time>2021-11-01T17:38:48Z</time>
      </trkpt>
      <trkpt lat="28.978637" lon="-13.820251">
        <ele>58.541</ele>
        <time>2021-11-01T17:39:01Z</time>
      </trkpt>
      <trkpt lat="28.978903" lon="-13.820307">
        <ele>59.616</ele>
        <time>2021-11-01T17:40:04Z</time>
      </trkpt>
      <trkpt lat="28.979191" lon="-13.820836">
        <ele>58.547</ele>
        <time>2021-11-01T17:40:15Z</time>
      </trkpt>
      <trkpt lat="28.980195" lon="-13.821285">
        <ele>58.093</ele>
        <time>2021-11-01T17:40:35Z</time>
      </trkpt>
      <trkpt lat="28.980584" lon="-13.821665">
        <ele>56.242</ele>
        <time>2021-11-01T17:40:43Z</time>
      </trkpt>
      <trkpt lat="28.981239" lon="-13.827285">
        <ele>42.157</ele>
        <time>2021-11-01T17:41:46Z</time>
      </trkpt>
      <trkpt lat="28.980987" lon="-13.827939">
        <ele>34.475</ele>
        <time>2021-11-01T17:41:53Z</time>
      </trkpt>
      <trkpt lat="28.979869" lon="-13.829398">
        <ele>16.728</ele>
        <time>2021-11-01T17:42:18Z</time>
      </trkpt>
      <trkpt lat="28.979583" lon="-13.829386">
        <ele>17.020</ele>
        <time>2021-11-01T17:42:35Z</time>
      </trkpt>
      <trkpt lat="28.979547" lon="-13.829197">
        <ele>16.908</ele>
        <time>2021-11-01T17:42:51Z</time>
      </trkpt>
      <trkpt lat="28.978997" lon="-13.828743">
        <ele>16.315</ele>
        <time>2021-11-01T17:43:45Z</time>
      </trkpt>
      <trkpt lat="28.978238" lon="-13.828670">
        <ele>12.245</ele>
        <time>2021-11-01T17:44:56Z</time>
      </trkpt>
      <trkpt lat="28.978068" lon="-13.828797">
        <ele>9.332</ele>
        <time>2021-11-01T17:45:19Z</time>
      </trkpt>
      <trkpt lat="28.978459" lon="-13.828665">
        <ele>15.697</ele>
        <time>2021-11-01T17:48:01Z</time>
      </trkpt>
      <trkpt lat="28.979179" lon="-13.828825">
        <ele>16.738</ele>
        <time>2021-11-01T17:49:20Z</time>
      </trkpt>
      <trkpt lat="28.979586" lon="-13.829190">
        <ele>16.764</ele>
        <time>2021-11-01T17:49:55Z</time>
      </trkpt>
      <trkpt lat="28.979247" lon="-13.829643">
        <ele>9.653</ele>
        <time>2021-11-01T17:50:35Z</time>
      </trkpt>
      <trkpt lat="28.979569" lon="-13.829247">
        <ele>17.198</ele>
        <time>2021-11-01T17:51:49Z</time>
      </trkpt>
      <trkpt lat="28.979971" lon="-13.829348">
        <ele>17.639</ele>
        <time>2021-11-01T17:52:16Z</time>
      </trkpt>
      <trkpt lat="28.981163" lon="-13.827390">
        <ele>40.801</ele>
        <time>2021-11-01T17:53:55Z</time>
      </trkpt>
      <trkpt lat="28.980819" lon="-13.823774">
        <ele>49.321</ele>
        <time>2021-11-01T17:56:02Z</time>
      </trkpt>
      <trkpt lat="28.979088" lon="-13.820814">
        <ele>58.508</ele>
        <time>2021-11-01T17:56:47Z</time>
      </trkpt>
      <trkpt lat="28.978604" lon="-13.820598">
        <ele>57.651</ele>
        <time>2021-11-01T17:57:02Z</time>
      </trkpt>
      <trkpt lat="28.978682" lon="-13.819949">
        <ele>59.971</ele>
        <time>2021-11-01T17:57:16Z</time>
      </trkpt>
      <trkpt lat="28.978204" lon="-13.818570">
        <ele>62.378</ele>
        <time>2021-11-01T17:57:49Z</time>
      </trkpt>
      <trkpt lat="28.977745" lon="-13.815882">
        <ele>71.033</ele>
        <time>2021-11-01T17:58:46Z</time>
      </trkpt>
      <trkpt lat="28.976695" lon="-13.813711">
        <ele>83.664</ele>
        <time>2021-11-01T17:59:55Z</time>
      </trkpt>
      <trkpt lat="28.975204" lon="-13.812373">
        <ele>84.110</ele>
        <time>2021-11-01T18:00:43Z</time>
      </trkpt>
      <trkpt lat="28.971324" lon="-13.808370">
        <ele>88.889</ele>
        <time>2021-11-01T18:04:26Z</time>
      </trkpt>
      <trkpt lat="28.970966" lon="-13.807467">
        <ele>93.784</ele>
        <time>2021-11-01T18:04:48Z</time>
      </trkpt>
      <trkpt lat="28.970768" lon="-13.807287">
        <ele>95.941</ele>
        <time>2021-11-01T18:05:11Z</time>
      </trkpt>
      <trkpt lat="28.970877" lon="-13.807404">
        <ele>97.081</ele>
        <time>2021-11-01T18:05:57Z</time>
      </trkpt>
      <trkpt lat="28.968186" lon="-13.800604">
        <ele>121.209</ele>
        <time>2021-11-01T18:08:49Z</time>
      </trkpt>
      <trkpt lat="28.967932" lon="-13.799163">
        <ele>123.608</ele>
        <time>2021-11-01T18:09:23Z</time>
      </trkpt>
      <trkpt lat="28.967640" lon="-13.798478">
        <ele>122.012</ele>
        <time>2021-11-01T18:10:26Z</time>
      </trkpt>
      <trkpt lat="28.965811" lon="-13.796470">
        <ele>110.472</ele>
        <time>2021-11-01T18:10:56Z</time>
      </trkpt>
      <trkpt lat="28.962519" lon="-13.793600">
        <ele>96.669</ele>
        <time>2021-11-01T18:11:41Z</time>
      </trkpt>
      <trkpt lat="28.961031" lon="-13.792928">
        <ele>95.824</ele>
        <time>2021-11-01T18:12:03Z</time>
      </trkpt>
      <trkpt lat="28.960388" lon="-13.792351">
        <ele>96.255</ele>
        <time>2021-11-01T18:12:15Z</time>
      </trkpt>
      <trkpt lat="28.959908" lon="-13.791530">
        <ele>97.331</ele>
        <time>2021-11-01T18:12:30Z</time>
      </trkpt>
      <trkpt lat="28.959817" lon="-13.789768">
        <ele>105.510</ele>
        <time>2021-11-01T18:13:06Z</time>
      </trkpt>
      <trkpt lat="28.959666" lon="-13.789238">
        <ele>108.755</ele>
        <time>2021-11-01T18:13:22Z</time>
      </trkpt>
      <trkpt lat="28.957104" lon="-13.786026">
        <ele>115.547</ele>
        <time>2021-11-01T18:15:54Z</time>
      </trkpt>
      <trkpt lat="28.955609" lon="-13.785201">
        <ele>113.329</ele>
        <time>2021-11-01T18:16:18Z</time>
      </trkpt>
      <trkpt lat="28.954679" lon="-13.784452">
        <ele>116.621</ele>
        <time>2021-11-01T18:16:37Z</time>
      </trkpt>
      <trkpt lat="28.954149" lon="-13.783890">
        <ele>119.608</ele>
        <time>2021-11-01T18:16:51Z</time>
      </trkpt>
      <trkpt lat="28.953492" lon="-13.782798">
        <ele>121.872</ele>
        <time>2021-11-01T18:17:14Z</time>
      </trkpt>
      <trkpt lat="28.952828" lon="-13.782154">
        <ele>124.952</ele>
        <time>2021-11-01T18:17:33Z</time>
      </trkpt>
      <trkpt lat="28.952552" lon="-13.782254">
        <ele>127.419</ele>
        <time>2021-11-01T18:17:44Z</time>
      </trkpt>
      <trkpt lat="28.952605" lon="-13.782719">
        <ele>127.914</ele>
        <time>2021-11-01T18:17:57Z</time>
      </trkpt>
      <trkpt lat="28.952428" lon="-13.783235">
        <ele>127.235</ele>
        <time>2021-11-01T18:18:01Z</time>
      </trkpt>
      <trkpt lat="28.952163" lon="-13.783457">
        <ele>126.161</ele>
        <time>2021-11-01T18:18:06Z</time>
      </trkpt>
      <trkpt lat="28.951782" lon="-13.783406">
        <ele>125.440</ele>
        <time>2021-11-01T18:18:11Z</time>
      </trkpt>
      <trkpt lat="28.951286" lon="-13.782913">
        <ele>125.755</ele>
        <time>2021-11-01T18:18:21Z</time>
      </trkpt>
      <trkpt lat="28.951200" lon="-13.782498">
        <ele>126.532</ele>
        <time>2021-11-01T18:18:29Z</time>
      </trkpt>
      <trkpt lat="28.951493" lon="-13.781814">
        <ele>128.792</ele>
        <time>2021-11-01T18:18:47Z</time>
      </trkpt>
      <trkpt lat="28.951430" lon="-13.781197">
        <ele>131.211</ele>
        <time>2021-11-01T18:19:02Z</time>
      </trkpt>
      <trkpt lat="28.951546" lon="-13.780679">
        <ele>133.508</ele>
        <time>2021-11-01T18:19:15Z</time>
      </trkpt>
      <trkpt lat="28.952189" lon="-13.778625">
        <ele>139.961</ele>
        <time>2021-11-01T18:20:08Z</time>
      </trkpt>
      <trkpt lat="28.953969" lon="-13.774221">
        <ele>145.091</ele>
        <time>2021-11-01T18:21:40Z</time>
      </trkpt>
      <trkpt lat="28.954079" lon="-13.773593">
        <ele>147.778</ele>
        <time>2021-11-01T18:21:55Z</time>
      </trkpt>
      <trkpt lat="28.953975" lon="-13.772961">
        <ele>150.243</ele>
        <time>2021-11-01T18:22:13Z</time>
      </trkpt>
      <trkpt lat="28.954069" lon="-13.772900">
        <ele>150.634</ele>
        <time>2021-11-01T18:22:17Z</time>
      </trkpt>
      <trkpt lat="28.953774" lon="-13.772153">
        <ele>152.930</ele>
        <time>2021-11-01T18:22:34Z</time>
      </trkpt>
      <trkpt lat="28.953693" lon="-13.770835">
        <ele>156.899</ele>
        <time>2021-11-01T18:23:49Z</time>
      </trkpt>
      <trkpt lat="28.952735" lon="-13.769079">
        <ele>163.324</ele>
        <time>2021-11-01T18:24:33Z</time>
      </trkpt>
      <trkpt lat="28.952208" lon="-13.767175">
        <ele>171.388</ele>
        <time>2021-11-01T18:25:16Z</time>
      </trkpt>
      <trkpt lat="28.952635" lon="-13.764654">
        <ele>180.524</ele>
        <time>2021-11-01T18:26:25Z</time>
      </trkpt>
      <trkpt lat="28.952474" lon="-13.764729">
        <ele>180.726</ele>
        <time>2021-11-01T18:26:36Z</time>
      </trkpt>
      <trkpt lat="28.952282" lon="-13.764202">
        <ele>181.108</ele>
        <time>2021-11-01T18:27:05Z</time>
      </trkpt>
      <trkpt lat="28.951805" lon="-13.763880">
        <ele>182.456</ele>
        <time>2021-11-01T18:27:20Z</time>
      </trkpt>
      <trkpt lat="28.951742" lon="-13.763351">
        <ele>182.626</ele>
        <time>2021-11-01T18:28:14Z</time>
      </trkpt>
      <trkpt lat="28.951604" lon="-13.763422">
        <ele>182.743</ele>
        <time>2021-11-01T18:30:25Z</time>
      </trkpt>
      <trkpt lat="28.951719" lon="-13.763324">
        <ele>182.748</ele>
        <time>2021-11-01T18:30:31Z</time>
      </trkpt>
      <trkpt lat="28.951531" lon="-13.763406">
        <ele>183.099</ele>
        <time>2021-11-01T18:34:52Z</time>
      </trkpt>
      <trkpt lat="28.951652" lon="-13.763349">
        <ele>183.065</ele>
        <time>2021-11-01T18:35:02Z</time>
      </trkpt>
      <trkpt lat="28.951535" lon="-13.763434">
        <ele>183.294</ele>
        <time>2021-11-01T18:37:03Z</time>
      </trkpt>
      <trkpt lat="28.951701" lon="-13.763473">
        <ele>183.259</ele>
        <time>2021-11-01T18:37:17Z</time>
      </trkpt>
      <trkpt lat="28.951576" lon="-13.763450">
        <ele>183.421</ele>
        <time>2021-11-01T18:42:28Z</time>
      </trkpt>
      <trkpt lat="28.951680" lon="-13.763488">
        <ele>183.178</ele>
        <time>2021-11-02T10:33:16Z</time>
      </trkpt>
      <trkpt lat="28.951769" lon="-13.763402">
        <ele>183.033</ele>
        <time>2021-11-02T10:33:19Z</time>
      </trkpt>
      <trkpt lat="28.951883" lon="-13.763789">
        <ele>182.526</ele>
        <time>2021-11-02T10:33:37Z</time>
      </trkpt>
      <trkpt lat="28.952362" lon="-13.764266">
        <ele>180.908</ele>
        <time>2021-11-02T10:34:02Z</time>
      </trkpt>
      <trkpt lat="28.952456" lon="-13.764765">
        <ele>180.755</ele>
        <time>2021-11-02T10:34:17Z</time>
      </trkpt>
      <trkpt lat="28.952570" lon="-13.764723">
        <ele>180.545</ele>
        <time>2021-11-02T10:34:21Z</time>
      </trkpt>
      <trkpt lat="28.952782" lon="-13.763952">
        <ele>181.272</ele>
        <time>2021-11-02T10:34:39Z</time>
      </trkpt>
      <trkpt lat="28.953364" lon="-13.763890">
        <ele>180.477</ele>
        <time>2021-11-02T10:34:55Z</time>
      </trkpt>
      <trkpt lat="28.952805" lon="-13.764215">
        <ele>180.968</ele>
        <time>2021-11-02T10:35:10Z</time>
      </trkpt>
      <trkpt lat="28.952512" lon="-13.765254">
        <ele>179.774</ele>
        <time>2021-11-02T10:35:33Z</time>
      </trkpt>
      <trkpt lat="28.952209" lon="-13.765084">
        <ele>181.155</ele>
        <time>2021-11-02T10:35:41Z</time>
      </trkpt>
      <trkpt lat="28.952351" lon="-13.764633">
        <ele>181.181</ele>
        <time>2021-11-02T10:35:51Z</time>
      </trkpt>
      <trkpt lat="28.952275" lon="-13.764157">
        <ele>181.287</ele>
        <time>2021-11-02T10:36:00Z</time>
      </trkpt>
      <trkpt lat="28.951867" lon="-13.763745">
        <ele>182.542</ele>
        <time>2021-11-02T10:36:11Z</time>
      </trkpt>
      <trkpt lat="28.951746" lon="-13.763355">
        <ele>182.826</ele>
        <time>2021-11-02T10:36:21Z</time>
      </trkpt>
      <trkpt lat="28.951517" lon="-13.763403">
        <ele>183.108</ele>
        <time>2021-11-02T10:36:39Z</time>
      </trkpt>
      <trkpt lat="28.951721" lon="-13.763427">
        <ele>183.296</ele>
        <time>2021-11-02T10:37:46Z</time>
      </trkpt>
      <trkpt lat="28.951898" lon="-13.763826">
        <ele>182.466</ele>
        <time>2021-11-02T10:37:56Z</time>
      </trkpt>
      <trkpt lat="28.952363" lon="-13.764260">
        <ele>180.933</ele>
        <time>2021-11-02T10:38:08Z</time>
      </trkpt>
      <trkpt lat="28.952355" lon="-13.764699">
        <ele>181.148</ele>
        <time>2021-11-02T10:38:18Z</time>
      </trkpt>
      <trkpt lat="28.952566" lon="-13.764817">
        <ele>180.599</ele>
        <time>2021-11-02T10:38:25Z</time>
      </trkpt>
      <trkpt lat="28.952764" lon="-13.763948">
        <ele>181.365</ele>
        <time>2021-11-02T10:38:56Z</time>
      </trkpt>
      <trkpt lat="28.953356" lon="-13.763839">
        <ele>179.696</ele>
        <time>2021-11-02T10:39:18Z</time>
      </trkpt>
      <trkpt lat="28.954181" lon="-13.763186">
        <ele>174.842</ele>
        <time>2021-11-02T10:39:32Z</time>
      </trkpt>
      <trkpt lat="28.956012" lon="-13.761177">
        <ele>179.441</ele>
        <time>2021-11-02T10:40:24Z</time>
      </trkpt>
      <trkpt lat="28.956610" lon="-13.760165">
        <ele>184.281</ele>
        <time>2021-11-02T10:40:50Z</time>
      </trkpt>
      <trkpt lat="28.957284" lon="-13.760229">
        <ele>186.509</ele>
        <time>2021-11-02T10:41:10Z</time>
      </trkpt>
      <trkpt lat="28.957643" lon="-13.760038">
        <ele>186.608</ele>
        <time>2021-11-02T10:41:19Z</time>
      </trkpt>
      <trkpt lat="28.958400" lon="-13.757741">
        <ele>190.832</ele>
        <time>2021-11-02T10:42:00Z</time>
      </trkpt>
      <trkpt lat="28.958622" lon="-13.757776">
        <ele>191.792</ele>
        <time>2021-11-02T10:42:10Z</time>
      </trkpt>
      <trkpt lat="28.958576" lon="-13.757685">
        <ele>191.949</ele>
        <time>2021-11-02T10:42:18Z</time>
      </trkpt>
      <trkpt lat="28.959087" lon="-13.757293">
        <ele>193.684</ele>
        <time>2021-11-02T10:42:44Z</time>
      </trkpt>
      <trkpt lat="28.960026" lon="-13.756729">
        <ele>197.555</ele>
        <time>2021-11-02T10:43:26Z</time>
      </trkpt>
      <trkpt lat="28.974569" lon="-13.748513">
        <ele>226.471</ele>
        <time>2021-11-02T10:52:30Z</time>
      </trkpt>
      <trkpt lat="28.977258" lon="-13.747161">
        <ele>237.672</ele>
        <time>2021-11-02T10:53:44Z</time>
      </trkpt>
      <trkpt lat="28.980599" lon="-13.745104">
        <ele>252.258</ele>
        <time>2021-11-02T10:55:30Z</time>
      </trkpt>
      <trkpt lat="28.984520" lon="-13.743049">
        <ele>280.093</ele>
        <time>2021-11-02T10:57:43Z</time>
      </trkpt>
      <trkpt lat="28.984322" lon="-13.742963">
        <ele>283.965</ele>
        <time>2021-11-02T10:58:53Z</time>
      </trkpt>
      <trkpt lat="28.985461" lon="-13.742363">
        <ele>290.221</ele>
        <time>2021-11-02T10:59:35Z</time>
      </trkpt>
      <trkpt lat="28.987707" lon="-13.741298">
        <ele>302.308</ele>
        <time>2021-11-02T11:00:44Z</time>
      </trkpt>
      <trkpt lat="28.989474" lon="-13.741185">
        <ele>315.297</ele>
        <time>2021-11-02T11:02:11Z</time>
      </trkpt>
      <trkpt lat="28.990273" lon="-13.741227">
        <ele>318.567</ele>
        <time>2021-11-02T11:02:35Z</time>
      </trkpt>
      <trkpt lat="28.991660" lon="-13.741562">
        <ele>321.694</ele>
        <time>2021-11-02T11:03:14Z</time>
      </trkpt>
      <trkpt lat="28.991650" lon="-13.741958">
        <ele>320.349</ele>
        <time>2021-11-02T11:03:31Z</time>
      </trkpt>
      <trkpt lat="28.991185" lon="-13.742101">
        <ele>321.970</ele>
        <time>2021-11-02T11:03:45Z</time>
      </trkpt>
      <trkpt lat="28.991144" lon="-13.742446">
        <ele>322.636</ele>
        <time>2021-11-02T11:04:02Z</time>
      </trkpt>
      <trkpt lat="28.991339" lon="-13.742071">
        <ele>320.837</ele>
        <time>2021-11-02T11:04:50Z</time>
      </trkpt>
      <trkpt lat="28.992345" lon="-13.742196">
        <ele>321.973</ele>
        <time>2021-11-02T11:05:27Z</time>
      </trkpt>
      <trkpt lat="28.992415" lon="-13.742064">
        <ele>322.356</ele>
        <time>2021-11-02T11:06:29Z</time>
      </trkpt>
      <trkpt lat="28.992232" lon="-13.742279">
        <ele>321.959</ele>
        <time>2021-11-02T11:07:04Z</time>
      </trkpt>
      <trkpt lat="28.992439" lon="-13.742346">
        <ele>322.614</ele>
        <time>2021-11-02T11:10:16Z</time>
      </trkpt>
      <trkpt lat="28.992265" lon="-13.742256">
        <ele>322.108</ele>
        <time>2021-11-02T11:10:38Z</time>
      </trkpt>
      <trkpt lat="28.992497" lon="-13.742026">
        <ele>322.283</ele>
        <time>2021-11-02T11:12:39Z</time>
      </trkpt>
      <trkpt lat="28.992290" lon="-13.742253">
        <ele>322.263</ele>
        <time>2021-11-02T11:15:58Z</time>
      </trkpt>
      <trkpt lat="28.991993" lon="-13.742201">
        <ele>321.920</ele>
        <time>2021-11-02T11:16:26Z</time>
      </trkpt>
      <trkpt lat="28.991583" lon="-13.742355">
        <ele>320.255</ele>
        <time>2021-11-02T11:16:39Z</time>
      </trkpt>
      <trkpt lat="28.991569" lon="-13.741531">
        <ele>321.686</ele>
        <time>2021-11-02T11:16:59Z</time>
      </trkpt>
      <trkpt lat="28.993954" lon="-13.741684">
        <ele>329.622</ele>
        <time>2021-11-02T11:17:56Z</time>
      </trkpt>
      <trkpt lat="28.995190" lon="-13.741495">
        <ele>337.233</ele>
        <time>2021-11-02T11:18:33Z</time>
      </trkpt>
      <trkpt lat="28.996093" lon="-13.739888">
        <ele>341.169</ele>
        <time>2021-11-02T11:19:08Z</time>
      </trkpt>
      <trkpt lat="28.996983" lon="-13.739300">
        <ele>345.453</ele>
        <time>2021-11-02T11:19:30Z</time>
      </trkpt>
      <trkpt lat="29.001042" lon="-13.739483">
        <ele>352.004</ele>
        <time>2021-11-02T11:20:44Z</time>
      </trkpt>
      <trkpt lat="29.004120" lon="-13.739099">
        <ele>351.514</ele>
        <time>2021-11-02T11:21:25Z</time>
      </trkpt>
      <trkpt lat="29.004324" lon="-13.738869">
        <ele>351.308</ele>
        <time>2021-11-02T11:21:29Z</time>
      </trkpt>
      <trkpt lat="29.005007" lon="-13.735932">
        <ele>329.543</ele>
        <time>2021-11-02T11:21:58Z</time>
      </trkpt>
      <trkpt lat="29.005571" lon="-13.735143">
        <ele>324.023</ele>
        <time>2021-11-02T11:22:06Z</time>
      </trkpt>
      <trkpt lat="29.006081" lon="-13.734932">
        <ele>320.410</ele>
        <time>2021-11-02T11:22:11Z</time>
      </trkpt>
      <trkpt lat="29.007835" lon="-13.734817">
        <ele>308.015</ele>
        <time>2021-11-02T11:22:28Z</time>
      </trkpt>
      <trkpt lat="29.010242" lon="-13.733823">
        <ele>297.526</ele>
        <time>2021-11-02T11:22:58Z</time>
      </trkpt>
      <trkpt lat="29.009848" lon="-13.737277">
        <ele>299.432</ele>
        <time>2021-11-02T11:25:21Z</time>
      </trkpt>
      <trkpt lat="29.009532" lon="-13.738431">
        <ele>298.023</ele>
        <time>2021-11-02T11:25:41Z</time>
      </trkpt>
      <trkpt lat="29.009186" lon="-13.739092">
        <ele>296.959</ele>
        <time>2021-11-02T11:25:53Z</time>
      </trkpt>
      <trkpt lat="29.006484" lon="-13.742366">
        <ele>310.164</ele>
        <time>2021-11-02T11:27:01Z</time>
      </trkpt>
      <trkpt lat="29.006089" lon="-13.743033">
        <ele>309.406</ele>
        <time>2021-11-02T11:27:12Z</time>
      </trkpt>
      <trkpt lat="29.007062" lon="-13.745396">
        <ele>301.016</ele>
        <time>2021-11-02T11:27:45Z</time>
      </trkpt>
      <trkpt lat="29.008321" lon="-13.747362">
        <ele>299.708</ele>
        <time>2021-11-02T11:28:18Z</time>
      </trkpt>
      <trkpt lat="29.008585" lon="-13.747989">
        <ele>301.394</ele>
        <time>2021-11-02T11:28:27Z</time>
      </trkpt>
      <trkpt lat="29.008641" lon="-13.748953">
        <ele>304.284</ele>
        <time>2021-11-02T11:28:43Z</time>
      </trkpt>
      <trkpt lat="29.008328" lon="-13.752438">
        <ele>317.241</ele>
        <time>2021-11-02T11:30:17Z</time>
      </trkpt>
      <trkpt lat="29.008794" lon="-13.753186">
        <ele>315.886</ele>
        <time>2021-11-02T11:30:32Z</time>
      </trkpt>
      <trkpt lat="29.008821" lon="-13.753714">
        <ele>314.417</ele>
        <time>2021-11-02T11:30:40Z</time>
      </trkpt>
      <trkpt lat="29.008477" lon="-13.754154">
        <ele>320.163</ele>
        <time>2021-11-02T11:30:53Z</time>
      </trkpt>
      <trkpt lat="29.007378" lon="-13.753868">
        <ele>333.884</ele>
        <time>2021-11-02T11:31:48Z</time>
      </trkpt>
      <trkpt lat="29.006989" lon="-13.754263">
        <ele>337.880</ele>
        <time>2021-11-02T11:31:58Z</time>
      </trkpt>
      <trkpt lat="29.006471" lon="-13.754259">
        <ele>341.241</ele>
        <time>2021-11-02T11:32:09Z</time>
      </trkpt>
      <trkpt lat="29.006229" lon="-13.754131">
        <ele>343.681</ele>
        <time>2021-11-02T11:32:34Z</time>
      </trkpt>
      <trkpt lat="29.005929" lon="-13.753103">
        <ele>351.109</ele>
        <time>2021-11-02T11:33:16Z</time>
      </trkpt>
      <trkpt lat="29.005641" lon="-13.753098">
        <ele>351.108</ele>
        <time>2021-11-02T11:33:32Z</time>
      </trkpt>
      <trkpt lat="29.005707" lon="-13.752892">
        <ele>351.112</ele>
        <time>2021-11-02T11:33:56Z</time>
      </trkpt>
      <trkpt lat="29.005572" lon="-13.753148">
        <ele>351.122</ele>
        <time>2021-11-02T11:35:21Z</time>
      </trkpt>
      <trkpt lat="29.005661" lon="-13.753004">
        <ele>351.129</ele>
        <time>2021-11-02T11:35:45Z</time>
      </trkpt>
      <trkpt lat="29.005505" lon="-13.752882">
        <ele>351.224</ele>
        <time>2021-11-02T11:36:21Z</time>
      </trkpt>
      <trkpt lat="29.005521" lon="-13.753018">
        <ele>351.265</ele>
        <time>2021-11-02T11:37:03Z</time>
      </trkpt>
      <trkpt lat="29.005710" lon="-13.753050">
        <ele>351.311</ele>
        <time>2021-11-02T11:38:15Z</time>
      </trkpt>
      <trkpt lat="29.005753" lon="-13.753274">
        <ele>351.392</ele>
        <time>2021-11-02T11:38:39Z</time>
      </trkpt>
      <trkpt lat="29.005606" lon="-13.753354">
        <ele>351.398</ele>
        <time>2021-11-02T11:39:06Z</time>
      </trkpt>
      <trkpt lat="29.005695" lon="-13.753402">
        <ele>351.324</ele>
        <time>2021-11-02T11:39:21Z</time>
      </trkpt>
      <trkpt lat="29.005780" lon="-13.752907">
        <ele>351.204</ele>
        <time>2021-11-02T11:51:10Z</time>
      </trkpt>
      <trkpt lat="29.005953" lon="-13.752873">
        <ele>351.014</ele>
        <time>2021-11-02T11:54:12Z</time>
      </trkpt>
      <trkpt lat="29.005746" lon="-13.753110">
        <ele>350.808</ele>
        <time>2021-11-02T11:55:14Z</time>
      </trkpt>
      <trkpt lat="29.006013" lon="-13.753126">
        <ele>351.290</ele>
        <time>2021-11-02T11:55:29Z</time>
      </trkpt>
      <trkpt lat="29.006388" lon="-13.754364">
        <ele>340.260</ele>
        <time>2021-11-02T11:55:51Z</time>
      </trkpt>
      <trkpt lat="29.006740" lon="-13.754701">
        <ele>335.447</ele>
        <time>2021-11-02T11:56:00Z</time>
      </trkpt>
      <trkpt lat="29.006706" lon="-13.755060">
        <ele>334.922</ele>
        <time>2021-11-02T11:56:06Z</time>
      </trkpt>
      <trkpt lat="29.006532" lon="-13.755164">
        <ele>334.683</ele>
        <time>2021-11-02T11:56:09Z</time>
      </trkpt>
      <trkpt lat="29.006254" lon="-13.755069">
        <ele>331.929</ele>
        <time>2021-11-02T11:56:15Z</time>
      </trkpt>
      <trkpt lat="29.006194" lon="-13.754740">
        <ele>329.010</ele>
        <time>2021-11-02T11:56:27Z</time>
      </trkpt>
      <trkpt lat="29.006009" lon="-13.754910">
        <ele>326.386</ele>
        <time>2021-11-02T11:56:30Z</time>
      </trkpt>
      <trkpt lat="29.006029" lon="-13.755298">
        <ele>322.085</ele>
        <time>2021-11-02T11:56:36Z</time>
      </trkpt>
      <trkpt lat="29.006358" lon="-13.755929">
        <ele>313.889</ele>
        <time>2021-11-02T11:56:44Z</time>
      </trkpt>
      <trkpt lat="29.006837" lon="-13.756316">
        <ele>311.517</ele>
        <time>2021-11-02T11:56:50Z</time>
      </trkpt>
      <trkpt lat="29.007234" lon="-13.757049">
        <ele>312.508</ele>
        <time>2021-11-02T11:56:59Z</time>
      </trkpt>
      <trkpt lat="29.008159" lon="-13.757477">
        <ele>313.886</ele>
        <time>2021-11-02T11:57:13Z</time>
      </trkpt>
      <trkpt lat="29.008520" lon="-13.758236">
        <ele>309.536</ele>
        <time>2021-11-02T11:57:24Z</time>
      </trkpt>
      <trkpt lat="29.008995" lon="-13.758506">
        <ele>307.333</ele>
        <time>2021-11-02T11:57:32Z</time>
      </trkpt>
      <trkpt lat="29.009047" lon="-13.759011">
        <ele>304.468</ele>
        <time>2021-11-02T11:57:40Z</time>
      </trkpt>
      <trkpt lat="29.008450" lon="-13.760603">
        <ele>296.029</ele>
        <time>2021-11-02T11:58:36Z</time>
      </trkpt>
      <trkpt lat="29.008006" lon="-13.761052">
        <ele>299.465</ele>
        <time>2021-11-02T11:58:44Z</time>
      </trkpt>
      <trkpt lat="29.007320" lon="-13.761105">
        <ele>302.126</ele>
        <time>2021-11-02T11:58:54Z</time>
      </trkpt>
      <trkpt lat="29.006699" lon="-13.762497">
        <ele>300.942</ele>
        <time>2021-11-02T11:59:09Z</time>
      </trkpt>
      <trkpt lat="29.005772" lon="-13.763472">
        <ele>291.015</ele>
        <time>2021-11-02T11:59:22Z</time>
      </trkpt>
      <trkpt lat="29.004668" lon="-13.764170">
        <ele>282.165</ele>
        <time>2021-11-02T11:59:35Z</time>
      </trkpt>
      <trkpt lat="29.003883" lon="-13.764937">
        <ele>277.611</ele>
        <time>2021-11-02T11:59:46Z</time>
      </trkpt>
      <trkpt lat="29.003747" lon="-13.765503">
        <ele>274.008</ele>
        <time>2021-11-02T11:59:51Z</time>
      </trkpt>
      <trkpt lat="29.003765" lon="-13.767139">
        <ele>268.629</ele>
        <time>2021-11-02T12:00:07Z</time>
      </trkpt>
      <trkpt lat="29.002907" lon="-13.768657">
        <ele>264.059</ele>
        <time>2021-11-02T12:00:26Z</time>
      </trkpt>
      <trkpt lat="29.002724" lon="-13.768651">
        <ele>263.816</ele>
        <time>2021-11-02T12:00:29Z</time>
      </trkpt>
      <trkpt lat="29.002403" lon="-13.768247">
        <ele>263.911</ele>
        <time>2021-11-02T12:00:36Z</time>
      </trkpt>
      <trkpt lat="29.001852" lon="-13.768396">
        <ele>264.412</ele>
        <time>2021-11-02T12:00:45Z</time>
      </trkpt>
      <trkpt lat="29.001323" lon="-13.769659">
        <ele>257.798</ele>
        <time>2021-11-02T12:01:05Z</time>
      </trkpt>
      <trkpt lat="29.001378" lon="-13.770860">
        <ele>255.489</ele>
        <time>2021-11-02T12:01:23Z</time>
      </trkpt>
      <trkpt lat="29.000905" lon="-13.770798">
        <ele>251.195</ele>
        <time>2021-11-02T12:01:29Z</time>
      </trkpt>
      <trkpt lat="29.000616" lon="-13.770228">
        <ele>251.864</ele>
        <time>2021-11-02T12:01:40Z</time>
      </trkpt>
      <trkpt lat="28.999568" lon="-13.770181">
        <ele>261.206</ele>
        <time>2021-11-02T12:01:54Z</time>
      </trkpt>
      <trkpt lat="28.999196" lon="-13.769535">
        <ele>268.816</ele>
        <time>2021-11-02T12:02:04Z</time>
      </trkpt>
      <trkpt lat="28.998876" lon="-13.769352">
        <ele>269.708</ele>
        <time>2021-11-02T12:02:08Z</time>
      </trkpt>
      <trkpt lat="28.998088" lon="-13.769467">
        <ele>277.474</ele>
        <time>2021-11-02T12:02:24Z</time>
      </trkpt>
      <trkpt lat="28.997394" lon="-13.769858">
        <ele>286.374</ele>
        <time>2021-11-02T12:02:38Z</time>
      </trkpt>
      <trkpt lat="28.996968" lon="-13.769290">
        <ele>288.431</ele>
        <time>2021-11-02T12:02:46Z</time>
      </trkpt>
      <trkpt lat="28.996357" lon="-13.768850">
        <ele>290.366</ele>
        <time>2021-11-02T12:02:55Z</time>
      </trkpt>
      <trkpt lat="28.995921" lon="-13.767972">
        <ele>291.917</ele>
        <time>2021-11-02T12:03:08Z</time>
      </trkpt>
      <trkpt lat="28.995837" lon="-13.767391">
        <ele>296.143</ele>
        <time>2021-11-02T12:03:16Z</time>
      </trkpt>
      <trkpt lat="28.996220" lon="-13.767142">
        <ele>301.444</ele>
        <time>2021-11-02T12:03:25Z</time>
      </trkpt>
      <trkpt lat="28.996318" lon="-13.766759">
        <ele>306.560</ele>
        <time>2021-11-02T12:03:32Z</time>
      </trkpt>
      <trkpt lat="28.996592" lon="-13.766498">
        <ele>310.194</ele>
        <time>2021-11-02T12:03:42Z</time>
      </trkpt>
      <trkpt lat="28.996469" lon="-13.766295">
        <ele>310.457</ele>
        <time>2021-11-02T12:03:48Z</time>
      </trkpt>
      <trkpt lat="28.996148" lon="-13.766193">
        <ele>310.022</ele>
        <time>2021-11-02T12:03:56Z</time>
      </trkpt>
      <trkpt lat="28.995990" lon="-13.765875">
        <ele>308.208</ele>
        <time>2021-11-02T12:04:02Z</time>
      </trkpt>
      <trkpt lat="28.995430" lon="-13.765556">
        <ele>299.647</ele>
        <time>2021-11-02T12:04:10Z</time>
      </trkpt>
      <trkpt lat="28.994530" lon="-13.764163">
        <ele>287.147</ele>
        <time>2021-11-02T12:04:26Z</time>
      </trkpt>
      <trkpt lat="28.994589" lon="-13.763294">
        <ele>282.974</ele>
        <time>2021-11-02T12:04:34Z</time>
      </trkpt>
      <trkpt lat="28.994998" lon="-13.762254">
        <ele>288.619</ele>
        <time>2021-11-02T12:04:46Z</time>
      </trkpt>
      <trkpt lat="28.994749" lon="-13.761551">
        <ele>288.690</ele>
        <time>2021-11-02T12:04:57Z</time>
      </trkpt>
      <trkpt lat="28.994361" lon="-13.761039">
        <ele>285.436</ele>
        <time>2021-11-02T12:05:07Z</time>
      </trkpt>
      <trkpt lat="28.994434" lon="-13.760670">
        <ele>286.067</ele>
        <time>2021-11-02T12:05:12Z</time>
      </trkpt>
      <trkpt lat="29.010089" lon="-13.735305">
        <ele>299.423</ele>
        <time>2021-11-02T12:47:50Z</time>
      </trkpt>
      <trkpt lat="29.010158" lon="-13.734828">
        <ele>299.791</ele>
        <time>2021-11-02T12:48:01Z</time>
      </trkpt>
      <trkpt lat="29.010034" lon="-13.734444">
        <ele>298.881</ele>
        <time>2021-11-02T12:48:13Z</time>
      </trkpt>
      <trkpt lat="29.010227" lon="-13.734323">
        <ele>298.819</ele>
        <time>2021-11-02T12:48:21Z</time>
      </trkpt>
      <trkpt lat="29.010377" lon="-13.733828">
        <ele>297.508</ele>
        <time>2021-11-02T12:48:34Z</time>
      </trkpt>
      <trkpt lat="29.012711" lon="-13.732695">
        <ele>292.147</ele>
        <time>2021-11-02T12:49:15Z</time>
      </trkpt>
      <trkpt lat="29.013925" lon="-13.731046">
        <ele>291.417</ele>
        <time>2021-11-02T12:49:55Z</time>
      </trkpt>
      <trkpt lat="29.014280" lon="-13.730123">
        <ele>293.244</ele>
        <time>2021-11-02T12:50:12Z</time>
      </trkpt>
      <trkpt lat="29.014651" lon="-13.726153">
        <ele>307.329</ele>
        <time>2021-11-02T12:52:08Z</time>
      </trkpt>
      <trkpt lat="29.014828" lon="-13.725628">
        <ele>308.350</ele>
        <time>2021-11-02T12:52:20Z</time>
      </trkpt>
      <trkpt lat="29.025840" lon="-13.710832">
        <ele>293.276</ele>
        <time>2021-11-02T12:57:03Z</time>
      </trkpt>
      <trkpt lat="29.027253" lon="-13.709259">
        <ele>289.137</ele>
        <time>2021-11-02T12:57:41Z</time>
      </trkpt>
      <trkpt lat="29.025920" lon="-13.710792">
        <ele>293.113</ele>
        <time>2021-11-02T13:04:29Z</time>
      </trkpt>
      <trkpt lat="29.014759" lon="-13.725830">
        <ele>308.011</ele>
        <time>2021-11-02T13:08:26Z</time>
      </trkpt>
      <trkpt lat="29.014485" lon="-13.727595">
        <ele>303.821</ele>
        <time>2021-11-02T13:08:43Z</time>
      </trkpt>
      <trkpt lat="29.014439" lon="-13.729536">
        <ele>295.603</ele>
        <time>2021-11-02T13:09:00Z</time>
      </trkpt>
      <trkpt lat="29.013958" lon="-13.731254">
        <ele>291.408</ele>
        <time>2021-11-02T13:09:16Z</time>
      </trkpt>
      <trkpt lat="29.012751" lon="-13.732687">
        <ele>292.159</ele>
        <time>2021-11-02T13:09:34Z</time>
      </trkpt>
      <trkpt lat="29.011716" lon="-13.733270">
        <ele>294.469</ele>
        <time>2021-11-02T13:09:49Z</time>
      </trkpt>
      <trkpt lat="29.007870" lon="-13.734888">
        <ele>307.876</ele>
        <time>2021-11-02T13:10:58Z</time>
      </trkpt>
      <trkpt lat="29.006039" lon="-13.734996">
        <ele>320.631</ele>
        <time>2021-11-02T13:11:34Z</time>
      </trkpt>
      <trkpt lat="29.005615" lon="-13.735188">
        <ele>323.722</ele>
        <time>2021-11-02T13:11:44Z</time>
      </trkpt>
      <trkpt lat="29.004989" lon="-13.736201">
        <ele>330.448</ele>
        <time>2021-11-02T13:12:08Z</time>
      </trkpt>
      <trkpt lat="29.004645" lon="-13.738055">
        <ele>345.749</ele>
        <time>2021-11-02T13:12:49Z</time>
      </trkpt>
      <trkpt lat="29.004398" lon="-13.738897">
        <ele>351.255</ele>
        <time>2021-11-02T13:13:07Z</time>
      </trkpt>
      <trkpt lat="29.004126" lon="-13.739223">
        <ele>351.551</ele>
        <time>2021-11-02T13:13:15Z</time>
      </trkpt>
      <trkpt lat="28.999017" lon="-13.739753">
        <ele>341.401</ele>
        <time>2021-11-02T13:14:22Z</time>
      </trkpt>
      <trkpt lat="28.998200" lon="-13.739508">
        <ele>342.611</ele>
        <time>2021-11-02T13:14:28Z</time>
      </trkpt>
      <trkpt lat="28.996843" lon="-13.739449">
        <ele>345.408</ele>
        <time>2021-11-02T13:14:42Z</time>
      </trkpt>
      <trkpt lat="28.995968" lon="-13.740201">
        <ele>340.433</ele>
        <time>2021-11-02T13:14:53Z</time>
      </trkpt>
      <trkpt lat="28.995754" lon="-13.741428">
        <ele>337.133</ele>
        <time>2021-11-02T13:15:05Z</time>
      </trkpt>
      <trkpt lat="28.994700" lon="-13.741864">
        <ele>333.790</ele>
        <time>2021-11-02T13:15:14Z</time>
      </trkpt>
      <trkpt lat="28.993193" lon="-13.742077">
        <ele>326.745</ele>
        <time>2021-11-02T13:15:26Z</time>
      </trkpt>
      <trkpt lat="28.990738" lon="-13.741384">
        <ele>319.876</ele>
        <time>2021-11-02T13:15:45Z</time>
      </trkpt>
      <trkpt lat="28.989316" lon="-13.741260">
        <ele>314.352</ele>
        <time>2021-11-02T13:15:56Z</time>
      </trkpt>
      <trkpt lat="28.987233" lon="-13.741691">
        <ele>300.823</ele>
        <time>2021-11-02T13:16:10Z</time>
      </trkpt>
      <trkpt lat="28.986224" lon="-13.742110">
        <ele>296.249</ele>
        <time>2021-11-02T13:16:17Z</time>
      </trkpt>
      <trkpt lat="28.981742" lon="-13.744549">
        <ele>259.477</ele>
        <time>2021-11-02T13:16:47Z</time>
      </trkpt>
      <trkpt lat="28.980276" lon="-13.745607">
        <ele>250.861</ele>
        <time>2021-11-02T13:16:59Z</time>
      </trkpt>
      <trkpt lat="28.978140" lon="-13.746586">
        <ele>241.527</ele>
        <time>2021-11-02T13:17:14Z</time>
      </trkpt>
      <trkpt lat="28.973754" lon="-13.749095">
        <ele>226.508</ele>
        <time>2021-11-02T13:17:53Z</time>
      </trkpt>
      <trkpt lat="28.973417" lon="-13.749451">
        <ele>226.485</ele>
        <time>2021-11-02T13:17:59Z</time>
      </trkpt>
      <trkpt lat="28.972662" lon="-13.749710">
        <ele>225.625</ele>
        <time>2021-11-02T13:18:07Z</time>
      </trkpt>
      <trkpt lat="28.970596" lon="-13.750836">
        <ele>221.872</ele>
        <time>2021-11-02T13:18:31Z</time>
      </trkpt>
      <trkpt lat="28.968036" lon="-13.752294">
        <ele>215.667</ele>
        <time>2021-11-02T13:19:00Z</time>
      </trkpt>
      <trkpt lat="28.967609" lon="-13.752665">
        <ele>215.058</ele>
        <time>2021-11-02T13:19:06Z</time>
      </trkpt>
      <trkpt lat="28.965988" lon="-13.753447">
        <ele>207.634</ele>
        <time>2021-11-02T13:19:22Z</time>
      </trkpt>
      <trkpt lat="28.959096" lon="-13.757380">
        <ele>193.525</ele>
        <time>2021-11-02T13:20:50Z</time>
      </trkpt>
      <trkpt lat="28.958589" lon="-13.758103">
        <ele>192.231</ele>
        <time>2021-11-02T13:20:59Z</time>
      </trkpt>
      <trkpt lat="28.958119" lon="-13.758462">
        <ele>190.111</ele>
        <time>2021-11-02T13:21:06Z</time>
      </trkpt>
      <trkpt lat="28.957409" lon="-13.759656">
        <ele>188.421</ele>
        <time>2021-11-02T13:21:22Z</time>
      </trkpt>
      <trkpt lat="28.956569" lon="-13.760447">
        <ele>183.003</ele>
        <time>2021-11-02T13:21:36Z</time>
      </trkpt>
      <trkpt lat="28.955653" lon="-13.761800">
        <ele>178.008</ele>
        <time>2021-11-02T13:21:51Z</time>
      </trkpt>
      <trkpt lat="28.954376" lon="-13.762947">
        <ele>174.579</ele>
        <time>2021-11-02T13:22:11Z</time>
      </trkpt>
      <trkpt lat="28.953947" lon="-13.762778">
        <ele>175.859</ele>
        <time>2021-11-02T13:22:31Z</time>
      </trkpt>
      <trkpt lat="28.951792" lon="-13.763453">
        <ele>184.899</ele>
        <time>2021-11-03T09:10:54Z</time>
      </trkpt>
      <trkpt lat="28.951874" lon="-13.763826">
        <ele>184.307</ele>
        <time>2021-11-03T09:11:19Z</time>
      </trkpt>
      <trkpt lat="28.952307" lon="-13.764323">
        <ele>183.927</ele>
        <time>2021-11-03T09:11:34Z</time>
      </trkpt>
      <trkpt lat="28.952343" lon="-13.764726">
        <ele>184.008</ele>
        <time>2021-11-03T09:11:44Z</time>
      </trkpt>
      <trkpt lat="28.952563" lon="-13.764754">
        <ele>183.637</ele>
        <time>2021-11-03T09:11:56Z</time>
      </trkpt>
      <trkpt lat="28.952787" lon="-13.763951">
        <ele>183.247</ele>
        <time>2021-11-03T09:12:14Z</time>
      </trkpt>
      <trkpt lat="28.952409" lon="-13.762816">
        <ele>185.814</ele>
        <time>2021-11-03T09:12:36Z</time>
      </trkpt>
      <trkpt lat="28.952370" lon="-13.761855">
        <ele>193.099</ele>
        <time>2021-11-03T09:12:57Z</time>
      </trkpt>
      <trkpt lat="28.951869" lon="-13.760329">
        <ele>195.710</ele>
        <time>2021-11-03T09:13:42Z</time>
      </trkpt>
      <trkpt lat="28.951293" lon="-13.758987">
        <ele>202.128</ele>
        <time>2021-11-03T09:14:13Z</time>
      </trkpt>
      <trkpt lat="28.949991" lon="-13.757747">
        <ele>204.081</ele>
        <time>2021-11-03T09:15:01Z</time>
      </trkpt>
      <trkpt lat="28.950331" lon="-13.756698">
        <ele>209.618</ele>
        <time>2021-11-03T09:16:27Z</time>
      </trkpt>
      <trkpt lat="28.949960" lon="-13.754835">
        <ele>213.484</ele>
        <time>2021-11-03T09:17:00Z</time>
      </trkpt>
      <trkpt lat="28.950574" lon="-13.752530">
        <ele>210.307</ele>
        <time>2021-11-03T09:17:32Z</time>
      </trkpt>
      <trkpt lat="28.950400" lon="-13.751324">
        <ele>206.717</ele>
        <time>2021-11-03T09:17:51Z</time>
      </trkpt>
      <trkpt lat="28.949622" lon="-13.749092">
        <ele>218.808</ele>
        <time>2021-11-03T09:18:34Z</time>
      </trkpt>
      <trkpt lat="28.948059" lon="-13.747820">
        <ele>209.486</ele>
        <time>2021-11-03T09:19:46Z</time>
      </trkpt>
      <trkpt lat="28.947036" lon="-13.746476">
        <ele>205.826</ele>
        <time>2021-11-03T09:20:09Z</time>
      </trkpt>
      <trkpt lat="28.946343" lon="-13.745233">
        <ele>201.773</ele>
        <time>2021-11-03T09:20:28Z</time>
      </trkpt>
      <trkpt lat="28.947320" lon="-13.742828">
        <ele>197.238</ele>
        <time>2021-11-03T09:20:57Z</time>
      </trkpt>
      <trkpt lat="28.948275" lon="-13.741541">
        <ele>201.499</ele>
        <time>2021-11-03T09:21:27Z</time>
      </trkpt>
      <trkpt lat="28.947583" lon="-13.739883">
        <ele>213.397</ele>
        <time>2021-11-03T09:22:14Z</time>
      </trkpt>
      <trkpt lat="28.947116" lon="-13.739399">
        <ele>217.420</ele>
        <time>2021-11-03T09:22:49Z</time>
      </trkpt>
      <trkpt lat="28.948382" lon="-13.738707">
        <ele>229.577</ele>
        <time>2021-11-03T09:23:44Z</time>
      </trkpt>
      <trkpt lat="28.950474" lon="-13.738920">
        <ele>235.827</ele>
        <time>2021-11-03T09:24:41Z</time>
      </trkpt>
      <trkpt lat="28.951190" lon="-13.738847">
        <ele>238.168</ele>
        <time>2021-11-03T09:25:53Z</time>
      </trkpt>
      <trkpt lat="28.951949" lon="-13.738393">
        <ele>244.214</ele>
        <time>2021-11-03T09:26:23Z</time>
      </trkpt>
      <trkpt lat="28.954535" lon="-13.736243">
        <ele>252.108</ele>
        <time>2021-11-03T09:27:47Z</time>
      </trkpt>
      <trkpt lat="28.956727" lon="-13.733721">
        <ele>247.930</ele>
        <time>2021-11-03T09:28:42Z</time>
      </trkpt>
      <trkpt lat="28.956817" lon="-13.733495">
        <ele>247.550</ele>
        <time>2021-11-03T09:28:47Z</time>
      </trkpt>
      <trkpt lat="28.956693" lon="-13.733407">
        <ele>248.137</ele>
        <time>2021-11-03T09:30:32Z</time>
      </trkpt>
      <trkpt lat="28.956865" lon="-13.733523">
        <ele>247.352</ele>
        <time>2021-11-03T09:32:28Z</time>
      </trkpt>
      <trkpt lat="28.957108" lon="-13.733072">
        <ele>243.463</ele>
        <time>2021-11-03T09:32:34Z</time>
      </trkpt>
      <trkpt lat="28.959304" lon="-13.730526">
        <ele>240.271</ele>
        <time>2021-11-03T09:34:30Z</time>
      </trkpt>
      <trkpt lat="28.960978" lon="-13.728231">
        <ele>237.174</ele>
        <time>2021-11-03T09:36:56Z</time>
      </trkpt>
      <trkpt lat="28.960882" lon="-13.728307">
        <ele>236.331</ele>
        <time>2021-11-03T09:37:18Z</time>
      </trkpt>
      <trkpt lat="28.962254" lon="-13.727250">
        <ele>240.911</ele>
        <time>2021-11-03T09:38:39Z</time>
      </trkpt>
      <trkpt lat="28.962336" lon="-13.727364">
        <ele>240.221</ele>
        <time>2021-11-03T09:38:46Z</time>
      </trkpt>
      <trkpt lat="28.962190" lon="-13.727326">
        <ele>239.303</ele>
        <time>2021-11-03T09:39:06Z</time>
      </trkpt>
      <trkpt lat="28.963473" lon="-13.725378">
        <ele>252.808</ele>
        <time>2021-11-03T09:40:43Z</time>
      </trkpt>
      <trkpt lat="28.964048" lon="-13.723856">
        <ele>261.779</ele>
        <time>2021-11-03T09:41:38Z</time>
      </trkpt>
      <trkpt lat="28.963967" lon="-13.723762">
        <ele>258.139</ele>
        <time>2021-11-03T09:42:02Z</time>
      </trkpt>
      <trkpt lat="28.963908" lon="-13.724130">
        <ele>260.016</ele>
        <time>2021-11-03T09:42:45Z</time>
      </trkpt>
      <trkpt lat="28.964379" lon="-13.722950">
        <ele>273.071</ele>
        <time>2021-11-03T09:45:28Z</time>
      </trkpt>
      <trkpt lat="28.966704" lon="-13.719899">
        <ele>290.442</ele>
        <time>2021-11-03T09:48:58Z</time>
      </trkpt>
      <trkpt lat="28.967555" lon="-13.716671">
        <ele>304.030</ele>
        <time>2021-11-03T09:50:27Z</time>
      </trkpt>
      <trkpt lat="28.968736" lon="-13.714251">
        <ele>316.653</ele>
        <time>2021-11-03T09:53:05Z</time>
      </trkpt>
      <trkpt lat="28.969305" lon="-13.713639">
        <ele>314.110</ele>
        <time>2021-11-03T09:53:31Z</time>
      </trkpt>
      <trkpt lat="28.969414" lon="-13.713760">
        <ele>314.595</ele>
        <time>2021-11-03T09:53:39Z</time>
      </trkpt>
      <trkpt lat="28.969687" lon="-13.712869">
        <ele>309.649</ele>
        <time>2021-11-03T09:54:07Z</time>
      </trkpt>
      <trkpt lat="28.969847" lon="-13.711590">
        <ele>313.223</ele>
        <time>2021-11-03T09:54:29Z</time>
      </trkpt>
      <trkpt lat="28.970352" lon="-13.710300">
        <ele>314.408</ele>
        <time>2021-11-03T09:54:59Z</time>
      </trkpt>
      <trkpt lat="28.970592" lon="-13.710294">
        <ele>309.937</ele>
        <time>2021-11-03T09:55:05Z</time>
      </trkpt>
      <trkpt lat="28.970445" lon="-13.710203">
        <ele>313.137</ele>
        <time>2021-11-03T09:55:10Z</time>
      </trkpt>
      <trkpt lat="28.970362" lon="-13.710324">
        <ele>314.284</ele>
        <time>2021-11-03T09:55:38Z</time>
      </trkpt>
      <trkpt lat="28.970691" lon="-13.709769">
        <ele>315.039</ele>
        <time>2021-11-03T09:55:52Z</time>
      </trkpt>
      <trkpt lat="28.971654" lon="-13.708708">
        <ele>318.520</ele>
        <time>2021-11-03T09:56:20Z</time>
      </trkpt>
      <trkpt lat="28.972963" lon="-13.707771">
        <ele>316.718</ele>
        <time>2021-11-03T09:56:53Z</time>
      </trkpt>
      <trkpt lat="28.974351" lon="-13.705048">
        <ele>338.471</ele>
        <time>2021-11-03T09:58:20Z</time>
      </trkpt>
      <trkpt lat="28.974348" lon="-13.705147">
        <ele>336.698</ele>
        <time>2021-11-03T09:59:05Z</time>
      </trkpt>
      <trkpt lat="28.974860" lon="-13.704389">
        <ele>333.216</ele>
        <time>2021-11-03T09:59:40Z</time>
      </trkpt>
      <trkpt lat="28.977670" lon="-13.702716">
        <ele>335.876</ele>
        <time>2021-11-03T10:00:52Z</time>
      </trkpt>
      <trkpt lat="28.977585" lon="-13.702814">
        <ele>335.413</ele>
        <time>2021-11-03T10:01:25Z</time>
      </trkpt>
      <trkpt lat="28.979250" lon="-13.701982">
        <ele>338.608</ele>
        <time>2021-11-03T10:02:09Z</time>
      </trkpt>
      <trkpt lat="28.979750" lon="-13.701458">
        <ele>345.439</ele>
        <time>2021-11-03T10:02:26Z</time>
      </trkpt>
      <trkpt lat="28.980069" lon="-13.700185">
        <ele>344.319</ele>
        <time>2021-11-03T10:02:52Z</time>
      </trkpt>
      <trkpt lat="28.980172" lon="-13.698091">
        <ele>335.776</ele>
        <time>2021-11-03T10:04:22Z</time>
      </trkpt>
      <trkpt lat="28.980112" lon="-13.698747">
        <ele>338.161</ele>
        <time>2021-11-03T10:05:07Z</time>
      </trkpt>
      <trkpt lat="28.980044" lon="-13.698569">
        <ele>336.212</ele>
        <time>2021-11-03T10:05:49Z</time>
      </trkpt>
      <trkpt lat="28.980516" lon="-13.689272">
        <ele>318.470</ele>
        <time>2021-11-03T10:07:40Z</time>
      </trkpt>
      <trkpt lat="28.981170" lon="-13.686520">
        <ele>315.893</ele>
        <time>2021-11-03T10:08:51Z</time>
      </trkpt>
      <trkpt lat="28.982321" lon="-13.684717">
        <ele>327.480</ele>
        <time>2021-11-03T10:09:36Z</time>
      </trkpt>
      <trkpt lat="28.984140" lon="-13.679817">
        <ele>334.851</ele>
        <time>2021-11-03T10:11:28Z</time>
      </trkpt>
      <trkpt lat="28.988971" lon="-13.674034">
        <ele>336.101</ele>
        <time>2021-11-03T10:14:44Z</time>
      </trkpt>
      <trkpt lat="28.989886" lon="-13.672760">
        <ele>338.111</ele>
        <time>2021-11-03T10:15:44Z</time>
      </trkpt>
      <trkpt lat="28.995485" lon="-13.658999">
        <ele>322.708</ele>
        <time>2021-11-03T10:20:18Z</time>
      </trkpt>
      <trkpt lat="28.995554" lon="-13.659344">
        <ele>323.643</ele>
        <time>2021-11-03T10:22:40Z</time>
      </trkpt>
      <trkpt lat="28.995769" lon="-13.659498">
        <ele>324.983</ele>
        <time>2021-11-03T10:22:51Z</time>
      </trkpt>
      <trkpt lat="28.995680" lon="-13.660009">
        <ele>326.180</ele>
        <time>2021-11-03T10:23:36Z</time>
      </trkpt>
      <trkpt lat="28.995739" lon="-13.659515">
        <ele>324.895</ele>
        <time>2021-11-03T10:23:58Z</time>
      </trkpt>
      <trkpt lat="28.995472" lon="-13.659280">
        <ele>323.386</ele>
        <time>2021-11-03T10:26:15Z</time>
      </trkpt>
      <trkpt lat="28.992796" lon="-13.666171">
        <ele>336.984</ele>
        <time>2021-11-03T10:28:28Z</time>
      </trkpt>
      <trkpt lat="28.992638" lon="-13.666312">
        <ele>337.187</ele>
        <time>2021-11-03T10:29:03Z</time>
      </trkpt>
      <trkpt lat="28.992836" lon="-13.666086">
        <ele>336.454</ele>
        <time>2021-11-03T10:29:13Z</time>
      </trkpt>
      <trkpt lat="28.993316" lon="-13.666416">
        <ele>336.064</ele>
        <time>2021-11-03T10:29:52Z</time>
      </trkpt>
      <trkpt lat="28.992790" lon="-13.666142">
        <ele>336.906</ele>
        <time>2021-11-03T10:30:14Z</time>
      </trkpt>
      <trkpt lat="28.993412" lon="-13.666379">
        <ele>335.716</ele>
        <time>2021-11-03T10:30:48Z</time>
      </trkpt>
      <trkpt lat="28.994571" lon="-13.666367">
        <ele>336.708</ele>
        <time>2021-11-03T10:31:22Z</time>
      </trkpt>
      <trkpt lat="28.994792" lon="-13.666530">
        <ele>337.274</ele>
        <time>2021-11-03T10:31:40Z</time>
      </trkpt>
      <trkpt lat="28.993532" lon="-13.666509">
        <ele>335.374</ele>
        <time>2021-11-03T10:32:38Z</time>
      </trkpt>
      <trkpt lat="28.992696" lon="-13.666142">
        <ele>337.391</ele>
        <time>2021-11-03T10:32:58Z</time>
      </trkpt>
      <trkpt lat="28.990328" lon="-13.672064">
        <ele>338.126</ele>
        <time>2021-11-03T10:35:17Z</time>
      </trkpt>
      <trkpt lat="28.990964" lon="-13.673986">
        <ele>337.557</ele>
        <time>2021-11-03T10:36:07Z</time>
      </trkpt>
      <trkpt lat="28.991758" lon="-13.674537">
        <ele>338.435</ele>
        <time>2021-11-03T10:36:43Z</time>
      </trkpt>
      <trkpt lat="28.992494" lon="-13.674788">
        <ele>341.268</ele>
        <time>2021-11-03T10:37:05Z</time>
      </trkpt>
      <trkpt lat="28.992620" lon="-13.676014">
        <ele>342.615</ele>
        <time>2021-11-03T10:37:51Z</time>
      </trkpt>
      <trkpt lat="28.993706" lon="-13.675290">
        <ele>343.933</ele>
        <time>2021-11-03T10:39:09Z</time>
      </trkpt>
      <trkpt lat="28.993980" lon="-13.675194">
        <ele>347.323</ele>
        <time>2021-11-03T10:39:40Z</time>
      </trkpt>
      <trkpt lat="28.993902" lon="-13.675269">
        <ele>347.115</ele>
        <time>2021-11-03T10:40:11Z</time>
      </trkpt>
      <trkpt lat="28.994027" lon="-13.675323">
        <ele>349.508</ele>
        <time>2021-11-03T10:42:02Z</time>
      </trkpt>
      <trkpt lat="28.993922" lon="-13.675284">
        <ele>347.561</ele>
        <time>2021-11-03T10:43:09Z</time>
      </trkpt>
      <trkpt lat="28.993981" lon="-13.675114">
        <ele>346.611</ele>
        <time>2021-11-03T10:43:30Z</time>
      </trkpt>
      <trkpt lat="28.993280" lon="-13.675490">
        <ele>343.148</ele>
        <time>2021-11-03T10:44:32Z</time>
      </trkpt>
      <trkpt lat="28.992813" lon="-13.674867">
        <ele>341.523</ele>
        <time>2021-11-03T10:45:20Z</time>
      </trkpt>
      <trkpt lat="28.991581" lon="-13.674467">
        <ele>337.744</ele>
        <time>2021-11-03T10:46:14Z</time>
      </trkpt>
      <trkpt lat="28.990939" lon="-13.673985">
        <ele>337.552</ele>
        <time>2021-11-03T10:46:39Z</time>
      </trkpt>
      <trkpt lat="28.990355" lon="-13.671911">
        <ele>337.415</ele>
        <time>2021-11-03T10:47:30Z</time>
      </trkpt>
      <trkpt lat="28.989658" lon="-13.673274">
        <ele>338.272</ele>
        <time>2021-11-03T10:50:06Z</time>
      </trkpt>
      <trkpt lat="28.984248" lon="-13.679810">
        <ele>334.889</ele>
        <time>2021-11-03T10:52:32Z</time>
      </trkpt>
      <trkpt lat="28.982945" lon="-13.683348">
        <ele>334.706</ele>
        <time>2021-11-03T10:53:22Z</time>
      </trkpt>
      <trkpt lat="28.983071" lon="-13.683543">
        <ele>335.826</ele>
        <time>2021-11-03T10:53:28Z</time>
      </trkpt>
      <trkpt lat="28.985922" lon="-13.684202">
        <ele>335.708</ele>
        <time>2021-11-03T10:54:24Z</time>
      </trkpt>
      <trkpt lat="28.990991" lon="-13.684821">
        <ele>327.796</ele>
        <time>2021-11-03T10:57:50Z</time>
      </trkpt>
      <trkpt lat="28.992636" lon="-13.684911">
        <ele>336.176</ele>
        <time>2021-11-03T10:58:48Z</time>
      </trkpt>
      <trkpt lat="28.996272" lon="-13.684531">
        <ele>334.763</ele>
        <time>2021-11-03T11:00:05Z</time>
      </trkpt>
      <trkpt lat="28.996239" lon="-13.684775">
        <ele>337.758</ele>
        <time>2021-11-03T11:00:12Z</time>
      </trkpt>
      <trkpt lat="28.994154" lon="-13.685533">
        <ele>337.989</ele>
        <time>2021-11-03T11:01:47Z</time>
      </trkpt>
      <trkpt lat="28.993765" lon="-13.686027">
        <ele>334.347</ele>
        <time>2021-11-03T11:02:23Z</time>
      </trkpt>
      <trkpt lat="28.993316" lon="-13.686044">
        <ele>331.340</ele>
        <time>2021-11-03T11:02:40Z</time>
      </trkpt>
      <trkpt lat="28.992955" lon="-13.686661">
        <ele>331.437</ele>
        <time>2021-11-03T11:03:00Z</time>
      </trkpt>
      <trkpt lat="28.993171" lon="-13.687980">
        <ele>326.591</ele>
        <time>2021-11-03T11:04:21Z</time>
      </trkpt>
      <trkpt lat="28.993093" lon="-13.688291">
        <ele>324.381</ele>
        <time>2021-11-03T11:04:36Z</time>
      </trkpt>
      <trkpt lat="28.992692" lon="-13.688773">
        <ele>319.819</ele>
        <time>2021-11-03T11:05:07Z</time>
      </trkpt>
      <trkpt lat="28.992310" lon="-13.688747">
        <ele>320.408</ele>
        <time>2021-11-03T11:05:35Z</time>
      </trkpt>
      <trkpt lat="28.991671" lon="-13.689064">
        <ele>325.357</ele>
        <time>2021-11-03T11:05:56Z</time>
      </trkpt>
      <trkpt lat="28.991446" lon="-13.689551">
        <ele>326.927</ele>
        <time>2021-11-03T11:06:13Z</time>
      </trkpt>
      <trkpt lat="28.991536" lon="-13.689910">
        <ele>328.754</ele>
        <time>2021-11-03T11:06:27Z</time>
      </trkpt>
      <trkpt lat="28.991475" lon="-13.689842">
        <ele>328.069</ele>
        <time>2021-11-03T11:07:13Z</time>
      </trkpt>
      <trkpt lat="28.990749" lon="-13.690683">
        <ele>333.240</ele>
        <time>2021-11-03T11:09:41Z</time>
      </trkpt>
      <trkpt lat="28.990402" lon="-13.691359">
        <ele>331.098</ele>
        <time>2021-11-03T11:11:37Z</time>
      </trkpt>
      <trkpt lat="28.990251" lon="-13.691374">
        <ele>328.671</ele>
        <time>2021-11-03T11:12:07Z</time>
      </trkpt>
      <trkpt lat="28.990215" lon="-13.691849">
        <ele>327.438</ele>
        <time>2021-11-03T11:13:15Z</time>
      </trkpt>
      <trkpt lat="28.989492" lon="-13.693543">
        <ele>322.277</ele>
        <time>2021-11-03T11:14:55Z</time>
      </trkpt>
      <trkpt lat="28.988643" lon="-13.694789">
        <ele>320.561</ele>
        <time>2021-11-03T11:17:02Z</time>
      </trkpt>
      <trkpt lat="28.988752" lon="-13.695138">
        <ele>320.827</ele>
        <time>2021-11-03T11:17:32Z</time>
      </trkpt>
      <trkpt lat="28.989528" lon="-13.695657">
        <ele>321.408</ele>
        <time>2021-11-03T11:18:17Z</time>
      </trkpt>
      <trkpt lat="28.989604" lon="-13.696025">
        <ele>321.815</ele>
        <time>2021-11-03T11:18:26Z</time>
      </trkpt>
      <trkpt lat="28.989496" lon="-13.696235">
        <ele>320.755</ele>
        <time>2021-11-03T11:18:38Z</time>
      </trkpt>
      <trkpt lat="28.989905" lon="-13.697101">
        <ele>319.082</ele>
        <time>2021-11-03T11:19:17Z</time>
      </trkpt>
      <trkpt lat="28.990414" lon="-13.697603">
        <ele>316.637</ele>
        <time>2021-11-03T11:20:00Z</time>
      </trkpt>
      <trkpt lat="28.990795" lon="-13.697584">
        <ele>318.518</ele>
        <time>2021-11-03T11:20:15Z</time>
      </trkpt>
      <trkpt lat="28.991118" lon="-13.697021">
        <ele>321.736</ele>
        <time>2021-11-03T11:20:46Z</time>
      </trkpt>
      <trkpt lat="28.991486" lon="-13.695839">
        <ele>323.229</ele>
        <time>2021-11-03T11:21:42Z</time>
      </trkpt>
      <trkpt lat="28.991774" lon="-13.695427">
        <ele>324.846</ele>
        <time>2021-11-03T11:23:00Z</time>
      </trkpt>
      <trkpt lat="28.992687" lon="-13.694700">
        <ele>315.876</ele>
        <time>2021-11-03T11:24:05Z</time>
      </trkpt>
      <trkpt lat="28.993267" lon="-13.693389">
        <ele>319.190</ele>
        <time>2021-11-03T11:25:36Z</time>
      </trkpt>
      <trkpt lat="28.993065" lon="-13.691747">
        <ele>321.019</ele>
        <time>2021-11-03T11:26:37Z</time>
      </trkpt>
      <trkpt lat="28.992525" lon="-13.691648">
        <ele>322.508</ele>
        <time>2021-11-03T11:28:17Z</time>
      </trkpt>
      <trkpt lat="28.991947" lon="-13.691952">
        <ele>317.015</ele>
        <time>2021-11-03T11:29:11Z</time>
      </trkpt>
      <trkpt lat="28.992174" lon="-13.691894">
        <ele>318.915</ele>
        <time>2021-11-03T11:31:38Z</time>
      </trkpt>
      <trkpt lat="28.992513" lon="-13.691525">
        <ele>326.172</ele>
        <time>2021-11-03T11:32:18Z</time>
      </trkpt>
      <trkpt lat="28.992748" lon="-13.691668">
        <ele>322.067</ele>
        <time>2021-11-03T11:33:03Z</time>
      </trkpt>
      <trkpt lat="28.992769" lon="-13.691558">
        <ele>325.538</ele>
        <time>2021-11-03T11:33:41Z</time>
      </trkpt>
      <trkpt lat="28.993181" lon="-13.691537">
        <ele>321.596</ele>
        <time>2021-11-03T11:34:29Z</time>
      </trkpt>
      <trkpt lat="28.992319" lon="-13.690188">
        <ele>330.359</ele>
        <time>2021-11-09T17:48:01Z</time>
      </trkpt>
      <trkpt lat="28.991305" lon="-13.689759">
        <ele>327.546</ele>
        <time>2021-11-03T14:20:47Z</time>
      </trkpt>
      <trkpt lat="28.992186" lon="-13.688836">
        <ele>320.847</ele>
        <time>2021-11-09T17:48:41Z</time>
      </trkpt>
      <trkpt lat="28.993162" lon="-13.688149">
        <ele>325.329</ele>
        <time>2021-11-09T17:49:01Z</time>
      </trkpt>
      <trkpt lat="28.993237" lon="-13.686347">
        <ele>331.321</ele>
        <time>2021-11-09T17:49:21Z</time>
      </trkpt>
      <trkpt lat="28.995865" lon="-13.684802">
        <ele>337.508</ele>
        <time>2021-11-09T17:49:41Z</time>
      </trkpt>
      <trkpt lat="29.002097" lon="-13.683901">
        <ele>352.022</ele>
        <time>2021-11-09T17:50:01Z</time>
      </trkpt>
      <trkpt lat="29.012638" lon="-13.685703">
        <ele>342.532</ele>
        <time>2021-11-03T14:20:49Z</time>
      </trkpt>
      <trkpt lat="29.017743" lon="-13.684416">
        <ele>312.729</ele>
        <time>2021-11-03T14:22:09Z</time>
      </trkpt>
      <trkpt lat="29.032906" lon="-13.686647">
        <ele>314.044</ele>
        <time>2021-11-03T14:23:25Z</time>
      </trkpt>
      <trkpt lat="29.042214" lon="-13.686476">
        <ele>281.135</ele>
        <time>2021-11-03T14:26:14Z</time>
      </trkpt>
      <trkpt lat="29.043752" lon="-13.686819">
        <ele>266.923</ele>
        <time>2021-11-03T14:26:37Z</time>
      </trkpt>
      <trkpt lat="29.044277" lon="-13.689523">
        <ele>259.116</ele>
        <time>2021-11-03T14:26:52Z</time>
      </trkpt>
      <trkpt lat="29.043677" lon="-13.693213">
        <ele>249.363</ele>
        <time>2021-11-03T14:27:26Z</time>
      </trkpt>
      <trkpt lat="29.044052" lon="-13.702826">
        <ele>243.153</ele>
        <time>2021-11-03T14:28:05Z</time>
      </trkpt>
      <trkpt lat="29.043827" lon="-13.707504">
        <ele>239.804</ele>
        <time>2021-11-09T17:53:01Z</time>
      </trkpt>
      <trkpt lat="29.045365" lon="-13.712997">
        <ele>227.614</ele>
        <time>2021-11-03T14:29:55Z</time>
      </trkpt>
      <trkpt lat="29.040975" lon="-13.724113">
        <ele>306.408</ele>
        <time>2021-11-03T14:30:25Z</time>
      </trkpt>
      <trkpt lat="29.037485" lon="-13.724155">
        <ele>328.433</ele>
        <time>2021-11-09T17:54:01Z</time>
      </trkpt>
      <trkpt lat="29.034708" lon="-13.727417">
        <ele>391.753</ele>
        <time>2021-11-09T17:54:21Z</time>
      </trkpt>
      <trkpt lat="29.034221" lon="-13.731151">
        <ele>451.820</ele>
        <time>2021-11-09T17:54:41Z</time>
      </trkpt>
      <trkpt lat="29.035647" lon="-13.733768">
        <ele>415.025</ele>
        <time>2021-11-09T17:55:01Z</time>
      </trkpt>
      <trkpt lat="29.037073" lon="-13.734927">
        <ele>370.536</ele>
        <time>2021-11-09T17:55:21Z</time>
      </trkpt>
      <trkpt lat="29.040037" lon="-13.734584">
        <ele>261.644</ele>
        <time>2021-11-09T17:55:41Z</time>
      </trkpt>
      <trkpt lat="29.041613" lon="-13.733854">
        <ele>225.387</ele>
        <time>2021-11-09T17:56:01Z</time>
      </trkpt>
      <trkpt lat="29.042176" lon="-13.734198">
        <ele>200.014</ele>
        <time>2021-11-09T17:56:21Z</time>
      </trkpt>
      <trkpt lat="29.045441" lon="-13.733554">
        <ele>153.872</ele>
        <time>2021-11-09T17:56:41Z</time>
      </trkpt>
      <trkpt lat="29.046416" lon="-13.732224">
        <ele>153.113</ele>
        <time>2021-11-09T17:57:01Z</time>
      </trkpt>
      <trkpt lat="29.046753" lon="-13.730164">
        <ele>152.814</ele>
        <time>2021-11-09T17:57:21Z</time>
      </trkpt>
      <trkpt lat="29.046303" lon="-13.727846">
        <ele>163.108</ele>
        <time>2021-11-09T17:57:41Z</time>
      </trkpt>
      <trkpt lat="29.045102" lon="-13.725615">
        <ele>179.775</ele>
        <time>2021-11-09T17:58:01Z</time>
      </trkpt>
      <trkpt lat="29.044239" lon="-13.723297">
        <ele>192.825</ele>
        <time>2021-11-09T17:58:21Z</time>
      </trkpt>
      <trkpt lat="29.043827" lon="-13.720765">
        <ele>202.122</ele>
        <time>2021-11-09T17:58:41Z</time>
      </trkpt>
      <trkpt lat="29.044342" lon="-13.717805">
        <ele>208.287</ele>
        <time>2021-11-03T14:30:45Z</time>
      </trkpt>
      <trkpt lat="29.044252" lon="-13.717575">
        <ele>213.038</ele>
        <time>2021-11-03T14:31:01Z</time>
      </trkpt>
      <trkpt lat="29.044465" lon="-13.716975">
        <ele>211.556</ele>
        <time>2021-11-03T14:31:41Z</time>
      </trkpt>
      <trkpt lat="29.044215" lon="-13.715093">
        <ele>225.499</ele>
        <time>2021-11-03T14:33:38Z</time>
      </trkpt>
      <trkpt lat="29.044507" lon="-13.714485">
        <ele>225.296</ele>
        <time>2021-11-03T14:34:18Z</time>
      </trkpt>
      <trkpt lat="29.044903" lon="-13.714351">
        <ele>221.366</ele>
        <time>2021-11-03T14:34:43Z</time>
      </trkpt>
      <trkpt lat="29.045528" lon="-13.712570">
        <ele>230.029</ele>
        <time>2021-11-03T14:36:29Z</time>
      </trkpt>
      <trkpt lat="29.045169" lon="-13.712222">
        <ele>231.821</ele>
        <time>2021-11-03T14:37:01Z</time>
      </trkpt>
      <trkpt lat="29.045267" lon="-13.711922">
        <ele>229.208</ele>
        <time>2021-11-03T14:37:17Z</time>
      </trkpt>
      <trkpt lat="29.045157" lon="-13.711351">
        <ele>232.144</ele>
        <time>2021-11-03T14:37:53Z</time>
      </trkpt>
      <trkpt lat="29.044901" lon="-13.710938">
        <ele>234.524</ele>
        <time>2021-11-03T14:38:23Z</time>
      </trkpt>
      <trkpt lat="29.044887" lon="-13.710498">
        <ele>236.431</ele>
        <time>2021-11-03T14:38:50Z</time>
      </trkpt>
      <trkpt lat="29.044663" lon="-13.710411">
        <ele>236.846</ele>
        <time>2021-11-03T14:39:07Z</time>
      </trkpt>
      <trkpt lat="29.044576" lon="-13.709840">
        <ele>235.747</ele>
        <time>2021-11-03T14:39:43Z</time>
      </trkpt>
      <trkpt lat="29.044291" lon="-13.709572">
        <ele>236.345</ele>
        <time>2021-11-03T14:40:06Z</time>
      </trkpt>
      <trkpt lat="29.044335" lon="-13.708533">
        <ele>237.398</ele>
        <time>2021-11-03T14:41:06Z</time>
      </trkpt>
      <trkpt lat="29.043876" lon="-13.707994">
        <ele>237.365</ele>
        <time>2021-11-03T14:41:51Z</time>
      </trkpt>
      <trkpt lat="29.043886" lon="-13.707212">
        <ele>240.011</ele>
        <time>2021-11-03T14:42:42Z</time>
      </trkpt>
      <trkpt lat="29.043607" lon="-13.706334">
        <ele>240.021</ele>
        <time>2021-11-03T14:43:38Z</time>
      </trkpt>
      <trkpt lat="29.043797" lon="-13.706028">
        <ele>237.903</ele>
        <time>2021-11-03T14:43:59Z</time>
      </trkpt>
      <trkpt lat="29.043592" lon="-13.705778">
        <ele>238.908</ele>
        <time>2021-11-03T14:44:23Z</time>
      </trkpt>
      <trkpt lat="29.043844" lon="-13.705616">
        <ele>237.269</ele>
        <time>2021-11-03T14:44:44Z</time>
      </trkpt>
      <trkpt lat="29.043713" lon="-13.705062">
        <ele>237.889</ele>
        <time>2021-11-03T14:45:18Z</time>
      </trkpt>
      <trkpt lat="29.043934" lon="-13.704808">
        <ele>238.456</ele>
        <time>2021-11-03T14:45:42Z</time>
      </trkpt>
      <trkpt lat="29.043855" lon="-13.704312">
        <ele>242.591</ele>
        <time>2021-11-03T14:46:11Z</time>
      </trkpt>
      <trkpt lat="29.043996" lon="-13.702388">
        <ele>242.952</ele>
        <time>2021-11-03T14:48:12Z</time>
      </trkpt>
      <trkpt lat="29.043776" lon="-13.701463">
        <ele>249.010</ele>
        <time>2021-11-03T14:49:11Z</time>
      </trkpt>
      <trkpt lat="29.044004" lon="-13.699878">
        <ele>245.643</ele>
        <time>2021-11-03T14:50:01Z</time>
      </trkpt>
      <trkpt lat="29.043585" lon="-13.697564">
        <ele>248.890</ele>
        <time>2021-11-03T14:51:21Z</time>
      </trkpt>
      <trkpt lat="29.043836" lon="-13.696712">
        <ele>248.311</ele>
        <time>2021-11-03T14:51:57Z</time>
      </trkpt>
      <trkpt lat="29.043523" lon="-13.694907">
        <ele>248.121</ele>
        <time>2021-11-03T14:53:13Z</time>
      </trkpt>
      <trkpt lat="29.043571" lon="-13.694328">
        <ele>244.403</ele>
        <time>2021-11-03T14:54:01Z</time>
      </trkpt>
      <trkpt lat="29.043413" lon="-13.694331">
        <ele>246.408</ele>
        <time>2021-11-03T14:55:54Z</time>
      </trkpt>
      <trkpt lat="29.042011" lon="-13.695648">
        <ele>253.339</ele>
        <time>2021-11-03T14:56:27Z</time>
      </trkpt>
      <trkpt lat="29.041443" lon="-13.695900">
        <ele>252.699</ele>
        <time>2021-11-03T14:56:36Z</time>
      </trkpt>
      <trkpt lat="29.041049" lon="-13.696966">
        <ele>246.946</ele>
        <time>2021-11-03T14:56:49Z</time>
      </trkpt>
      <trkpt lat="29.039923" lon="-13.698002">
        <ele>242.871</ele>
        <time>2021-11-03T14:57:05Z</time>
      </trkpt>
      <trkpt lat="29.037602" lon="-13.699124">
        <ele>248.492</ele>
        <time>2021-11-03T14:57:41Z</time>
      </trkpt>
      <trkpt lat="29.034199" lon="-13.701806">
        <ele>262.630</ele>
        <time>2021-11-03T14:58:49Z</time>
      </trkpt>
      <trkpt lat="29.025988" lon="-13.710625">
        <ele>291.993</ele>
        <time>2021-11-03T15:01:59Z</time>
      </trkpt>
      <trkpt lat="29.014837" lon="-13.725653">
        <ele>312.860</ele>
        <time>2021-11-03T15:06:17Z</time>
      </trkpt>
      <trkpt lat="29.014651" lon="-13.726101">
        <ele>311.546</ele>
        <time>2021-11-03T15:06:22Z</time>
      </trkpt>
      <trkpt lat="29.014528" lon="-13.728148">
        <ele>300.588</ele>
        <time>2021-11-03T15:06:42Z</time>
      </trkpt>
      <trkpt lat="29.014108" lon="-13.730685">
        <ele>295.816</ele>
        <time>2021-11-03T15:07:04Z</time>
      </trkpt>
      <trkpt lat="29.013478" lon="-13.731700">
        <ele>297.308</ele>
        <time>2021-11-03T15:07:16Z</time>
      </trkpt>
      <trkpt lat="29.012496" lon="-13.732866">
        <ele>297.092</ele>
        <time>2021-11-03T15:07:33Z</time>
      </trkpt>
      <trkpt lat="29.007793" lon="-13.734868">
        <ele>313.412</ele>
        <time>2021-11-03T15:08:47Z</time>
      </trkpt>
      <trkpt lat="29.005981" lon="-13.734944">
        <ele>332.019</ele>
        <time>2021-11-03T15:09:28Z</time>
      </trkpt>
      <trkpt lat="29.005691" lon="-13.735075">
        <ele>330.734</ele>
        <time>2021-11-03T15:09:36Z</time>
      </trkpt>
      <trkpt lat="29.005008" lon="-13.736146">
        <ele>332.035</ele>
        <time>2021-11-03T15:10:03Z</time>
      </trkpt>
      <trkpt lat="29.004270" lon="-13.738969">
        <ele>349.883</ele>
        <time>2021-11-03T15:11:13Z</time>
      </trkpt>
      <trkpt lat="29.004063" lon="-13.739187">
        <ele>352.676</ele>
        <time>2021-11-03T15:11:22Z</time>
      </trkpt>
      <trkpt lat="29.000854" lon="-13.739582">
        <ele>359.683</ele>
        <time>2021-11-03T15:12:16Z</time>
      </trkpt>
      <trkpt lat="28.996864" lon="-13.739376">
        <ele>347.634</ele>
        <time>2021-11-03T15:12:53Z</time>
      </trkpt>
      <trkpt lat="28.996034" lon="-13.739963">
        <ele>342.655</ele>
        <time>2021-11-03T15:13:03Z</time>
      </trkpt>
      <trkpt lat="28.995318" lon="-13.741613">
        <ele>348.310</ele>
        <time>2021-11-03T15:13:19Z</time>
      </trkpt>
      <trkpt lat="28.994401" lon="-13.741892">
        <ele>339.908</ele>
        <time>2021-11-03T15:13:28Z</time>
      </trkpt>
      <trkpt lat="28.993024" lon="-13.741887">
        <ele>331.751</ele>
        <time>2021-11-03T15:13:39Z</time>
      </trkpt>
      <trkpt lat="28.990412" lon="-13.741299">
        <ele>321.641</ele>
        <time>2021-11-03T15:14:01Z</time>
      </trkpt>
      <trkpt lat="28.989389" lon="-13.741218">
        <ele>318.168</ele>
        <time>2021-11-03T15:14:09Z</time>
      </trkpt>
      <trkpt lat="28.987579" lon="-13.741424">
        <ele>306.943</ele>
        <time>2021-11-03T15:14:21Z</time>
      </trkpt>
      <trkpt lat="28.986466" lon="-13.741883">
        <ele>301.654</ele>
        <time>2021-11-03T15:14:29Z</time>
      </trkpt>
      <trkpt lat="28.969982" lon="-13.751238">
        <ele>224.532</ele>
        <time>2021-11-03T15:16:56Z</time>
      </trkpt>
      <trkpt lat="28.964774" lon="-13.754015">
        <ele>207.715</ele>
        <time>2021-11-03T15:17:52Z</time>
      </trkpt>
      <trkpt lat="28.963992" lon="-13.754581">
        <ele>207.242</ele>
        <time>2021-11-03T15:18:02Z</time>
      </trkpt>
      <trkpt lat="28.959088" lon="-13.757336">
        <ele>193.442</ele>
        <time>2021-11-03T15:19:02Z</time>
      </trkpt>
      <trkpt lat="28.958574" lon="-13.758056">
        <ele>191.022</ele>
        <time>2021-11-03T15:19:12Z</time>
      </trkpt>
      <trkpt lat="28.958123" lon="-13.758248">
        <ele>191.714</ele>
        <time>2021-11-03T15:19:18Z</time>
      </trkpt>
      <trkpt lat="28.957311" lon="-13.759629">
        <ele>188.608</ele>
        <time>2021-11-03T15:19:35Z</time>
      </trkpt>
      <trkpt lat="28.956695" lon="-13.760097">
        <ele>185.142</ele>
        <time>2021-11-03T15:19:44Z</time>
      </trkpt>
      <trkpt lat="28.955905" lon="-13.761501">
        <ele>176.542</ele>
        <time>2021-11-03T15:19:59Z</time>
      </trkpt>
      <trkpt lat="28.954030" lon="-13.763406">
        <ele>176.549</ele>
        <time>2021-11-03T15:20:28Z</time>
      </trkpt>
      <trkpt lat="28.951766" lon="-13.763489">
        <ele>183.049</ele>
        <time>2021-11-04T09:12:45Z</time>
      </trkpt>
      <trkpt lat="28.951861" lon="-13.763820">
        <ele>182.502</ele>
        <time>2021-11-04T09:12:54Z</time>
      </trkpt>
      <trkpt lat="28.952333" lon="-13.764253">
        <ele>180.922</ele>
        <time>2021-11-04T09:13:10Z</time>
      </trkpt>
      <trkpt lat="28.952361" lon="-13.764703">
        <ele>181.108</ele>
        <time>2021-11-04T09:13:21Z</time>
      </trkpt>
      <trkpt lat="28.952523" lon="-13.764757">
        <ele>180.572</ele>
        <time>2021-11-04T09:13:27Z</time>
      </trkpt>
      <trkpt lat="28.952731" lon="-13.763977">
        <ele>181.382</ele>
        <time>2021-11-04T09:13:58Z</time>
      </trkpt>
      <trkpt lat="28.952386" lon="-13.762789">
        <ele>182.319</ele>
        <time>2021-11-04T09:14:23Z</time>
      </trkpt>
      <trkpt lat="28.952186" lon="-13.761125">
        <ele>193.144</ele>
        <time>2021-11-04T09:15:19Z</time>
      </trkpt>
      <trkpt lat="28.951959" lon="-13.761114">
        <ele>194.036</ele>
        <time>2021-11-04T09:15:34Z</time>
      </trkpt>
      <trkpt lat="28.951901" lon="-13.761380">
        <ele>194.735</ele>
        <time>2021-11-04T09:16:13Z</time>
      </trkpt>
      <trkpt lat="28.952068" lon="-13.761034">
        <ele>195.687</ele>
        <time>2021-11-04T09:17:34Z</time>
      </trkpt>
      <trkpt lat="28.951491" lon="-13.759396">
        <ele>199.674</ele>
        <time>2021-11-04T09:18:22Z</time>
      </trkpt>
      <trkpt lat="28.950096" lon="-13.757666">
        <ele>205.986</ele>
        <time>2021-11-04T09:19:20Z</time>
      </trkpt>
      <trkpt lat="28.950372" lon="-13.756338">
        <ele>208.660</ele>
        <time>2021-11-04T09:19:50Z</time>
      </trkpt>
      <trkpt lat="28.950000" lon="-13.754711">
        <ele>208.726</ele>
        <time>2021-11-04T09:20:22Z</time>
      </trkpt>
      <trkpt lat="28.950649" lon="-13.752324">
        <ele>208.508</ele>
        <time>2021-11-04T09:20:56Z</time>
      </trkpt>
      <trkpt lat="28.949852" lon="-13.749626">
        <ele>215.196</ele>
        <time>2021-11-04T09:21:52Z</time>
      </trkpt>
      <trkpt lat="28.949474" lon="-13.748873">
        <ele>216.976</ele>
        <time>2021-11-04T09:22:12Z</time>
      </trkpt>
      <trkpt lat="28.948468" lon="-13.748376">
        <ele>212.233</ele>
        <time>2021-11-04T09:22:57Z</time>
      </trkpt>
      <trkpt lat="28.944803" lon="-13.743022">
        <ele>208.958</ele>
        <time>2021-11-04T09:24:19Z</time>
      </trkpt>
      <trkpt lat="28.943359" lon="-13.742115">
        <ele>212.930</ele>
        <time>2021-11-04T09:24:50Z</time>
      </trkpt>
      <trkpt lat="28.942067" lon="-13.741779">
        <ele>213.579</ele>
        <time>2021-11-04T09:25:54Z</time>
      </trkpt>
      <trkpt lat="28.941488" lon="-13.741841">
        <ele>212.981</ele>
        <time>2021-11-04T09:26:29Z</time>
      </trkpt>
      <trkpt lat="28.940558" lon="-13.740534">
        <ele>210.218</ele>
        <time>2021-11-04T09:26:55Z</time>
      </trkpt>
      <trkpt lat="28.936365" lon="-13.730230">
        <ele>177.657</ele>
        <time>2021-11-04T09:28:43Z</time>
      </trkpt>
      <trkpt lat="28.936551" lon="-13.729527">
        <ele>177.400</ele>
        <time>2021-11-04T09:28:54Z</time>
      </trkpt>
      <trkpt lat="28.935690" lon="-13.720216">
        <ele>174.320</ele>
        <time>2021-11-04T09:31:13Z</time>
      </trkpt>
      <trkpt lat="28.935975" lon="-13.718752">
        <ele>175.608</ele>
        <time>2021-11-04T09:32:16Z</time>
      </trkpt>
      <trkpt lat="28.938244" lon="-13.713592">
        <ele>170.953</ele>
        <time>2021-11-04T09:33:38Z</time>
      </trkpt>
      <trkpt lat="28.938751" lon="-13.712924">
        <ele>172.333</ele>
        <time>2021-11-04T09:33:53Z</time>
      </trkpt>
      <trkpt lat="28.940020" lon="-13.711915">
        <ele>173.520</ele>
        <time>2021-11-04T09:34:23Z</time>
      </trkpt>
      <trkpt lat="28.940494" lon="-13.711236">
        <ele>171.545</ele>
        <time>2021-11-04T09:34:36Z</time>
      </trkpt>
      <trkpt lat="28.941134" lon="-13.709087">
        <ele>162.057</ele>
        <time>2021-11-04T09:35:02Z</time>
      </trkpt>
      <trkpt lat="28.942386" lon="-13.706256">
        <ele>157.026</ele>
        <time>2021-11-04T09:36:12Z</time>
      </trkpt>
      <trkpt lat="28.942486" lon="-13.705332">
        <ele>156.528</ele>
        <time>2021-11-04T09:36:29Z</time>
      </trkpt>
      <trkpt lat="28.942966" lon="-13.704837">
        <ele>156.625</ele>
        <time>2021-11-04T09:36:44Z</time>
      </trkpt>
      <trkpt lat="28.944728" lon="-13.700506">
        <ele>178.386</ele>
        <time>2021-11-04T09:38:50Z</time>
      </trkpt>
      <trkpt lat="28.945695" lon="-13.697309">
        <ele>201.160</ele>
        <time>2021-11-04T09:40:44Z</time>
      </trkpt>
      <trkpt lat="28.946292" lon="-13.693857">
        <ele>207.226</ele>
        <time>2021-11-04T09:43:07Z</time>
      </trkpt>
      <trkpt lat="28.947208" lon="-13.691873">
        <ele>196.308</ele>
        <time>2021-11-04T09:43:41Z</time>
      </trkpt>
      <trkpt lat="28.948296" lon="-13.684478">
        <ele>173.626</ele>
        <time>2021-11-04T09:46:04Z</time>
      </trkpt>
      <trkpt lat="28.948082" lon="-13.683683">
        <ele>171.116</ele>
        <time>2021-11-04T09:46:17Z</time>
      </trkpt>
      <trkpt lat="28.948400" lon="-13.683086">
        <ele>172.073</ele>
        <time>2021-11-04T09:46:28Z</time>
      </trkpt>
      <trkpt lat="28.949265" lon="-13.676821">
        <ele>186.618</ele>
        <time>2021-11-04T09:48:36Z</time>
      </trkpt>
      <trkpt lat="28.949513" lon="-13.676130">
        <ele>188.050</ele>
        <time>2021-11-04T09:48:53Z</time>
      </trkpt>
      <trkpt lat="28.952222" lon="-13.671863">
        <ele>203.059</ele>
        <time>2021-11-04T09:51:00Z</time>
      </trkpt>
      <trkpt lat="28.953796" lon="-13.667678">
        <ele>201.261</ele>
        <time>2021-11-04T09:52:24Z</time>
      </trkpt>
      <trkpt lat="28.955181" lon="-13.657416">
        <ele>219.058</ele>
        <time>2021-11-04T09:56:00Z</time>
      </trkpt>
      <trkpt lat="28.956899" lon="-13.653813">
        <ele>217.676</ele>
        <time>2021-11-04T09:57:11Z</time>
      </trkpt>
      <trkpt lat="28.957031" lon="-13.652362">
        <ele>215.990</ele>
        <time>2021-11-04T09:58:27Z</time>
      </trkpt>
      <trkpt lat="28.956871" lon="-13.651825">
        <ele>214.119</ele>
        <time>2021-11-04T09:58:36Z</time>
      </trkpt>
      <trkpt lat="28.956481" lon="-13.651478">
        <ele>213.108</ele>
        <time>2021-11-04T09:58:44Z</time>
      </trkpt>
      <trkpt lat="28.954377" lon="-13.651637">
        <ele>208.875</ele>
        <time>2021-11-04T09:59:23Z</time>
      </trkpt>
      <trkpt lat="28.954320" lon="-13.649876">
        <ele>206.295</ele>
        <time>2021-11-04T10:00:01Z</time>
      </trkpt>
      <trkpt lat="28.954431" lon="-13.651628">
        <ele>208.862</ele>
        <time>2021-11-04T10:01:42Z</time>
      </trkpt>
      <trkpt lat="28.953812" lon="-13.652248">
        <ele>207.517</ele>
        <time>2021-11-04T10:03:36Z</time>
      </trkpt>
      <trkpt lat="28.953891" lon="-13.651916">
        <ele>207.739</ele>
        <time>2021-11-04T10:11:34Z</time>
      </trkpt>
      <trkpt lat="28.953809" lon="-13.652175">
        <ele>207.868</ele>
        <time>2021-11-04T10:14:46Z</time>
      </trkpt>
      <trkpt lat="28.953748" lon="-13.652066">
        <ele>207.870</ele>
        <time>2021-11-04T10:15:27Z</time>
      </trkpt>
      <trkpt lat="28.953824" lon="-13.652188">
        <ele>207.817</ele>
        <time>2021-11-04T10:16:46Z</time>
      </trkpt>
      <trkpt lat="28.953889" lon="-13.651922">
        <ele>207.997</ele>
        <time>2021-11-04T10:18:00Z</time>
      </trkpt>
      <trkpt lat="28.954872" lon="-13.651570">
        <ele>209.223</ele>
        <time>2021-11-04T10:19:51Z</time>
      </trkpt>
      <trkpt lat="28.954451" lon="-13.651635">
        <ele>208.825</ele>
        <time>2021-11-04T10:20:22Z</time>
      </trkpt>
      <trkpt lat="28.954470" lon="-13.652541">
        <ele>209.408</ele>
        <time>2021-11-04T10:21:12Z</time>
      </trkpt>
      <trkpt lat="28.954319" lon="-13.651646">
        <ele>208.527</ele>
        <time>2021-11-04T10:23:59Z</time>
      </trkpt>
      <trkpt lat="28.954355" lon="-13.649800">
        <ele>206.257</ele>
        <time>2021-11-04T10:24:31Z</time>
      </trkpt>
      <trkpt lat="28.954627" lon="-13.649059">
        <ele>201.564</ele>
        <time>2021-11-04T10:24:41Z</time>
      </trkpt>
      <trkpt lat="28.955133" lon="-13.648384">
        <ele>195.339</ele>
        <time>2021-11-04T10:24:52Z</time>
      </trkpt>
      <trkpt lat="28.953889" lon="-13.648110">
        <ele>188.071</ele>
        <time>2021-11-04T10:25:10Z</time>
      </trkpt>
      <trkpt lat="28.952976" lon="-13.648362">
        <ele>185.990</ele>
        <time>2021-11-04T10:25:21Z</time>
      </trkpt>
      <trkpt lat="28.952032" lon="-13.649006">
        <ele>179.682</ele>
        <time>2021-11-04T10:25:32Z</time>
      </trkpt>
      <trkpt lat="28.948856" lon="-13.652280">
        <ele>187.449</ele>
        <time>2021-11-04T10:26:46Z</time>
      </trkpt>
      <trkpt lat="28.948113" lon="-13.651924">
        <ele>185.254</ele>
        <time>2021-11-04T10:27:02Z</time>
      </trkpt>
      <trkpt lat="28.945987" lon="-13.652064">
        <ele>165.556</ele>
        <time>2021-11-04T10:27:21Z</time>
      </trkpt>
      <trkpt lat="28.944758" lon="-13.652735">
        <ele>152.811</ele>
        <time>2021-11-04T10:27:32Z</time>
      </trkpt>
      <trkpt lat="28.943852" lon="-13.654016">
        <ele>140.408</ele>
        <time>2021-11-04T10:27:42Z</time>
      </trkpt>
      <trkpt lat="28.943352" lon="-13.654416">
        <ele>135.113</ele>
        <time>2021-11-04T10:27:46Z</time>
      </trkpt>
      <trkpt lat="28.940640" lon="-13.655094">
        <ele>111.743</ele>
        <time>2021-11-04T10:28:03Z</time>
      </trkpt>
      <trkpt lat="28.937979" lon="-13.657162">
        <ele>95.230</ele>
        <time>2021-11-04T10:28:25Z</time>
      </trkpt>
      <trkpt lat="28.935650" lon="-13.658330">
        <ele>88.245</ele>
        <time>2021-11-04T10:28:48Z</time>
      </trkpt>
      <trkpt lat="28.933096" lon="-13.660248">
        <ele>84.667</ele>
        <time>2021-11-04T10:29:22Z</time>
      </trkpt>
      <trkpt lat="28.929509" lon="-13.661538">
        <ele>69.396</ele>
        <time>2021-11-04T10:31:58Z</time>
      </trkpt>
      <trkpt lat="28.928871" lon="-13.662326">
        <ele>64.518</ele>
        <time>2021-11-04T10:32:06Z</time>
      </trkpt>
      <trkpt lat="28.928476" lon="-13.663819">
        <ele>59.445</ele>
        <time>2021-11-04T10:32:27Z</time>
      </trkpt>
      <trkpt lat="28.928224" lon="-13.663765">
        <ele>57.993</ele>
        <time>2021-11-04T10:32:31Z</time>
      </trkpt>
      <trkpt lat="28.928223" lon="-13.663482">
        <ele>57.765</ele>
        <time>2021-11-04T10:32:35Z</time>
      </trkpt>
      <trkpt lat="28.928472" lon="-13.663332">
        <ele>58.821</ele>
        <time>2021-11-04T10:32:40Z</time>
      </trkpt>
      <trkpt lat="28.928586" lon="-13.663688">
        <ele>59.608</ele>
        <time>2021-11-04T10:33:48Z</time>
      </trkpt>
      <trkpt lat="28.927942" lon="-13.664722">
        <ele>56.147</ele>
        <time>2021-11-04T10:34:05Z</time>
      </trkpt>
      <trkpt lat="28.924239" lon="-13.665538">
        <ele>45.797</ele>
        <time>2021-11-04T10:34:59Z</time>
      </trkpt>
      <trkpt lat="28.922953" lon="-13.668172">
        <ele>40.384</ele>
        <time>2021-11-04T10:35:52Z</time>
      </trkpt>
      <trkpt lat="28.921394" lon="-13.670450">
        <ele>22.199</ele>
        <time>2021-11-04T10:36:47Z</time>
      </trkpt>
      <trkpt lat="28.921210" lon="-13.671248">
        <ele>17.211</ele>
        <time>2021-11-04T10:37:07Z</time>
      </trkpt>
      <trkpt lat="28.921423" lon="-13.671482">
        <ele>16.150</ele>
        <time>2021-11-04T10:37:15Z</time>
      </trkpt>
      <trkpt lat="28.921588" lon="-13.672392">
        <ele>9.312</ele>
        <time>2021-11-04T10:37:45Z</time>
      </trkpt>
      <trkpt lat="28.921182" lon="-13.672384">
        <ele>8.419</ele>
        <time>2021-11-04T10:39:01Z</time>
      </trkpt>
      <trkpt lat="28.921000" lon="-13.671607">
        <ele>10.769</ele>
        <time>2021-11-04T10:39:28Z</time>
      </trkpt>
      <trkpt lat="28.920740" lon="-13.671652">
        <ele>11.704</ele>
        <time>2021-11-04T10:39:43Z</time>
      </trkpt>
      <trkpt lat="28.920679" lon="-13.671172">
        <ele>14.324</ele>
        <time>2021-11-04T10:40:45Z</time>
      </trkpt>
      <trkpt lat="28.920567" lon="-13.671224">
        <ele>14.508</ele>
        <time>2021-11-04T10:40:57Z</time>
      </trkpt>
      <trkpt lat="28.920711" lon="-13.671088">
        <ele>15.994</ele>
        <time>2021-11-04T10:41:27Z</time>
      </trkpt>
      <trkpt lat="28.920448" lon="-13.670716">
        <ele>19.654</ele>
        <time>2021-11-04T10:41:48Z</time>
      </trkpt>
      <trkpt lat="28.920363" lon="-13.670177">
        <ele>18.741</ele>
        <time>2021-11-04T10:42:10Z</time>
      </trkpt>
      <trkpt lat="28.919530" lon="-13.670101">
        <ele>11.166</ele>
        <time>2021-11-04T10:42:29Z</time>
      </trkpt>
      <trkpt lat="28.919318" lon="-13.669891">
        <ele>9.868</ele>
        <time>2021-11-04T10:42:43Z</time>
      </trkpt>
      <trkpt lat="28.919471" lon="-13.669662">
        <ele>9.337</ele>
        <time>2021-11-04T10:43:13Z</time>
      </trkpt>
      <trkpt lat="28.919429" lon="-13.668453">
        <ele>8.989</ele>
        <time>2021-11-04T10:45:27Z</time>
      </trkpt>
      <trkpt lat="28.919035" lon="-13.667841">
        <ele>9.226</ele>
        <time>2021-11-04T10:49:29Z</time>
      </trkpt>
      <trkpt lat="28.919254" lon="-13.668225">
        <ele>10.382</ele>
        <time>2021-11-04T10:49:49Z</time>
      </trkpt>
      <trkpt lat="28.920532" lon="-13.667939">
        <ele>16.743</ele>
        <time>2021-11-04T10:50:42Z</time>
      </trkpt>
      <trkpt lat="28.920025" lon="-13.666006">
        <ele>14.517</ele>
        <time>2021-11-04T10:51:30Z</time>
      </trkpt>
      <trkpt lat="28.920867" lon="-13.665616">
        <ele>15.408</ele>
        <time>2021-11-04T10:51:57Z</time>
      </trkpt>
      <trkpt lat="28.920990" lon="-13.665383">
        <ele>15.036</ele>
        <time>2021-11-04T10:52:08Z</time>
      </trkpt>
      <trkpt lat="28.920317" lon="-13.660125">
        <ele>10.846</ele>
        <time>2021-11-04T10:54:20Z</time>
      </trkpt>
      <trkpt lat="28.920033" lon="-13.660096">
        <ele>6.023</ele>
        <time>2021-11-04T10:55:30Z</time>
      </trkpt>
      <trkpt lat="28.920283" lon="-13.660061">
        <ele>11.068</ele>
        <time>2021-11-04T10:56:54Z</time>
      </trkpt>
      <trkpt lat="28.920485" lon="-13.657396">
        <ele>16.120</ele>
        <time>2021-11-04T10:57:57Z</time>
      </trkpt>
      <trkpt lat="28.920327" lon="-13.656948">
        <ele>15.729</ele>
        <time>2021-11-04T10:58:12Z</time>
      </trkpt>
      <trkpt lat="28.920521" lon="-13.656404">
        <ele>15.441</ele>
        <time>2021-11-04T10:58:49Z</time>
      </trkpt>
      <trkpt lat="28.920297" lon="-13.655785">
        <ele>13.678</ele>
        <time>2021-11-04T10:59:02Z</time>
      </trkpt>
      <trkpt lat="28.919866" lon="-13.655348">
        <ele>11.369</ele>
        <time>2021-11-04T10:59:17Z</time>
      </trkpt>
      <trkpt lat="28.919099" lon="-13.653553">
        <ele>9.504</ele>
        <time>2021-11-04T11:00:10Z</time>
      </trkpt>
      <trkpt lat="28.919511" lon="-13.651974">
        <ele>14.424</ele>
        <time>2021-11-04T11:00:52Z</time>
      </trkpt>
      <trkpt lat="28.920327" lon="-13.650292">
        <ele>17.008</ele>
        <time>2021-11-04T11:01:45Z</time>
      </trkpt>
      <trkpt lat="28.920210" lon="-13.649220">
        <ele>17.414</ele>
        <time>2021-11-04T11:02:16Z</time>
      </trkpt>
      <trkpt lat="28.920478" lon="-13.647677">
        <ele>17.044</ele>
        <time>2021-11-04T11:03:33Z</time>
      </trkpt>
      <trkpt lat="28.920404" lon="-13.647978">
        <ele>17.031</ele>
        <time>2021-11-04T11:03:51Z</time>
      </trkpt>
      <trkpt lat="28.920379" lon="-13.647301">
        <ele>17.186</ele>
        <time>2021-11-04T11:04:35Z</time>
      </trkpt>
      <trkpt lat="28.919919" lon="-13.645851">
        <ele>16.768</ele>
        <time>2021-11-04T11:05:11Z</time>
      </trkpt>
      <trkpt lat="28.920035" lon="-13.643725">
        <ele>15.647</ele>
        <time>2021-11-04T11:05:57Z</time>
      </trkpt>
      <trkpt lat="28.921739" lon="-13.641207">
        <ele>13.889</ele>
        <time>2021-11-04T11:08:23Z</time>
      </trkpt>
      <trkpt lat="28.923882" lon="-13.640408">
        <ele>12.526</ele>
        <time>2021-11-04T11:09:11Z</time>
      </trkpt>
      <trkpt lat="28.925693" lon="-13.638263">
        <ele>11.922</ele>
        <time>2021-11-04T11:10:09Z</time>
      </trkpt>
      <trkpt lat="28.925675" lon="-13.638074">
        <ele>11.862</ele>
        <time>2021-11-04T11:10:23Z</time>
      </trkpt>
      <trkpt lat="28.925692" lon="-13.638211">
        <ele>11.808</ele>
        <time>2021-11-04T11:10:30Z</time>
      </trkpt>
      <trkpt lat="28.928901" lon="-13.634490">
        <ele>8.408</ele>
        <time>2021-11-04T11:14:22Z</time>
      </trkpt>
      <trkpt lat="28.929106" lon="-13.633589">
        <ele>7.960</ele>
        <time>2021-11-04T11:14:39Z</time>
      </trkpt>
      <trkpt lat="28.929320" lon="-13.630339">
        <ele>8.810</ele>
        <time>2021-11-04T11:15:41Z</time>
      </trkpt>
      <trkpt lat="28.929198" lon="-13.629656">
        <ele>9.727</ele>
        <time>2021-11-04T11:15:57Z</time>
      </trkpt>
      <trkpt lat="28.929531" lon="-13.629341">
        <ele>10.432</ele>
        <time>2021-11-04T11:16:09Z</time>
      </trkpt>
      <trkpt lat="28.929478" lon="-13.629498">
        <ele>10.574</ele>
        <time>2021-11-04T11:16:21Z</time>
      </trkpt>
      <trkpt lat="28.931751" lon="-13.625158">
        <ele>17.173</ele>
        <time>2021-11-04T11:18:59Z</time>
      </trkpt>
      <trkpt lat="28.931961" lon="-13.624458">
        <ele>17.595</ele>
        <time>2021-11-04T11:19:54Z</time>
      </trkpt>
      <trkpt lat="28.932377" lon="-13.624204">
        <ele>18.572</ele>
        <time>2021-11-04T11:20:04Z</time>
      </trkpt>
      <trkpt lat="28.933717" lon="-13.624624">
        <ele>26.357</ele>
        <time>2021-11-04T11:20:40Z</time>
      </trkpt>
      <trkpt lat="28.934643" lon="-13.623359">
        <ele>20.700</ele>
        <time>2021-11-04T11:21:06Z</time>
      </trkpt>
      <trkpt lat="28.934530" lon="-13.622336">
        <ele>20.820</ele>
        <time>2021-11-04T11:21:23Z</time>
      </trkpt>
      <trkpt lat="28.935005" lon="-13.620756">
        <ele>19.908</ele>
        <time>2021-11-04T11:22:36Z</time>
      </trkpt>
      <trkpt lat="28.934696" lon="-13.620276">
        <ele>17.633</ele>
        <time>2021-11-04T11:22:44Z</time>
      </trkpt>
      <trkpt lat="28.934699" lon="-13.619748">
        <ele>15.413</ele>
        <time>2021-11-04T11:22:51Z</time>
      </trkpt>
      <trkpt lat="28.934293" lon="-13.619482">
        <ele>14.220</ele>
        <time>2021-11-04T11:23:00Z</time>
      </trkpt>
      <trkpt lat="28.934352" lon="-13.618712">
        <ele>15.375</ele>
        <time>2021-11-04T11:23:17Z</time>
      </trkpt>
      <trkpt lat="28.935129" lon="-13.616054">
        <ele>21.047</ele>
        <time>2021-11-04T11:24:21Z</time>
      </trkpt>
      <trkpt lat="28.934791" lon="-13.615699">
        <ele>20.326</ele>
        <time>2021-11-04T11:24:46Z</time>
      </trkpt>
      <trkpt lat="28.934934" lon="-13.614151">
        <ele>17.868</ele>
        <time>2021-11-04T11:25:23Z</time>
      </trkpt>
      <trkpt lat="28.935471" lon="-13.613788">
        <ele>15.775</ele>
        <time>2021-11-04T11:26:41Z</time>
      </trkpt>
      <trkpt lat="28.935590" lon="-13.613306">
        <ele>13.061</ele>
        <time>2021-11-04T11:28:05Z</time>
      </trkpt>
      <trkpt lat="28.935125" lon="-13.612789">
        <ele>11.421</ele>
        <time>2021-11-04T11:28:26Z</time>
      </trkpt>
      <trkpt lat="28.934491" lon="-13.612459">
        <ele>8.213</ele>
        <time>2021-11-04T11:32:02Z</time>
      </trkpt>
      <trkpt lat="28.934163" lon="-13.613443">
        <ele>9.508</ele>
        <time>2021-11-04T11:36:15Z</time>
      </trkpt>
      <trkpt lat="28.933480" lon="-13.614235">
        <ele>10.984</ele>
        <time>2021-11-04T11:36:43Z</time>
      </trkpt>
      <trkpt lat="28.932430" lon="-13.616236">
        <ele>9.444</ele>
        <time>2021-11-04T11:38:09Z</time>
      </trkpt>
      <trkpt lat="28.933225" lon="-13.615587">
        <ele>15.151</ele>
        <time>2021-11-04T11:39:55Z</time>
      </trkpt>
      <trkpt lat="28.934069" lon="-13.615476">
        <ele>18.996</ele>
        <time>2021-11-04T11:40:24Z</time>
      </trkpt>
      <trkpt lat="28.938769" lon="-13.617086">
        <ele>26.218</ele>
        <time>2021-11-04T11:42:42Z</time>
      </trkpt>
      <trkpt lat="28.939225" lon="-13.617016">
        <ele>26.477</ele>
        <time>2021-11-04T11:42:56Z</time>
      </trkpt>
      <trkpt lat="28.939614" lon="-13.617344">
        <ele>27.459</ele>
        <time>2021-11-04T11:44:13Z</time>
      </trkpt>
      <trkpt lat="28.941342" lon="-13.617758">
        <ele>31.486</ele>
        <time>2021-11-04T11:44:50Z</time>
      </trkpt>
      <trkpt lat="28.945171" lon="-13.616949">
        <ele>35.967</ele>
        <time>2021-11-04T11:46:15Z</time>
      </trkpt>
      <trkpt lat="28.945355" lon="-13.616770">
        <ele>36.181</ele>
        <time>2021-11-04T11:46:22Z</time>
      </trkpt>
      <trkpt lat="28.945394" lon="-13.616913">
        <ele>36.219</ele>
        <time>2021-11-04T11:46:36Z</time>
      </trkpt>
      <trkpt lat="28.950788" lon="-13.615650">
        <ele>43.808</ele>
        <time>2021-11-04T11:48:42Z</time>
      </trkpt>
      <trkpt lat="28.950918" lon="-13.615437">
        <ele>43.954</ele>
        <time>2021-11-04T11:48:49Z</time>
      </trkpt>
      <trkpt lat="28.950803" lon="-13.615652">
        <ele>44.084</ele>
        <time>2021-11-04T11:49:10Z</time>
      </trkpt>
      <trkpt lat="28.950953" lon="-13.615929">
        <ele>44.961</ele>
        <time>2021-11-04T11:49:13Z</time>
      </trkpt>
      <trkpt lat="28.952134" lon="-13.616453">
        <ele>46.456</ele>
        <time>2021-11-04T11:49:22Z</time>
      </trkpt>
      <trkpt lat="28.954585" lon="-13.615930">
        <ele>49.868</ele>
        <time>2021-11-04T11:49:38Z</time>
      </trkpt>
      <trkpt lat="28.952236" lon="-13.616475">
        <ele>45.877</ele>
        <time>2021-11-04T11:49:43Z</time>
      </trkpt>
      <trkpt lat="28.953293" lon="-13.615121">
        <ele>47.249</ele>
        <time>2021-11-04T11:50:07Z</time>
      </trkpt>
      <trkpt lat="28.955504" lon="-13.614398">
        <ele>50.166</ele>
        <time>2021-11-04T11:51:34Z</time>
      </trkpt>
      <trkpt lat="28.955835" lon="-13.614037">
        <ele>50.898</ele>
        <time>2021-11-04T11:51:44Z</time>
      </trkpt>
      <trkpt lat="28.956009" lon="-13.613301">
        <ele>49.915</ele>
        <time>2021-11-04T11:51:59Z</time>
      </trkpt>
      <trkpt lat="28.956217" lon="-13.608503">
        <ele>37.726</ele>
        <time>2021-11-04T11:53:17Z</time>
      </trkpt>
      <trkpt lat="28.955955" lon="-13.607925">
        <ele>33.808</ele>
        <time>2021-11-04T11:53:26Z</time>
      </trkpt>
      <trkpt lat="28.955501" lon="-13.607764">
        <ele>29.977</ele>
        <time>2021-11-04T11:53:49Z</time>
      </trkpt>
      <trkpt lat="28.957347" lon="-13.606774">
        <ele>33.027</ele>
        <time>2021-11-04T11:55:31Z</time>
      </trkpt>
      <trkpt lat="28.957456" lon="-13.605917">
        <ele>34.584</ele>
        <time>2021-11-04T11:55:50Z</time>
      </trkpt>
      <trkpt lat="28.957063" lon="-13.605647">
        <ele>34.929</ele>
        <time>2021-11-04T11:56:25Z</time>
      </trkpt>
      <trkpt lat="28.956744" lon="-13.605796">
        <ele>33.991</ele>
        <time>2021-11-04T11:56:31Z</time>
      </trkpt>
      <trkpt lat="28.956568" lon="-13.607806">
        <ele>36.150</ele>
        <time>2021-11-04T11:57:02Z</time>
      </trkpt>
      <trkpt lat="28.956826" lon="-13.610309">
        <ele>43.672</ele>
        <time>2021-11-04T11:57:52Z</time>
      </trkpt>
      <trkpt lat="28.956974" lon="-13.610032">
        <ele>43.499</ele>
        <time>2021-11-04T11:58:00Z</time>
      </trkpt>
      <trkpt lat="28.956736" lon="-13.608719">
        <ele>40.663</ele>
        <time>2021-11-04T11:58:24Z</time>
      </trkpt>
      <trkpt lat="28.956899" lon="-13.608280">
        <ele>41.044</ele>
        <time>2021-11-04T11:58:32Z</time>
      </trkpt>
      <trkpt lat="28.959820" lon="-13.608389">
        <ele>51.018</ele>
        <time>2021-11-04T11:59:47Z</time>
      </trkpt>
      <trkpt lat="28.960202" lon="-13.607002">
        <ele>64.208</ele>
        <time>2021-11-04T12:00:25Z</time>
      </trkpt>
      <trkpt lat="28.960840" lon="-13.606803">
        <ele>73.364</ele>
        <time>2021-11-04T12:00:53Z</time>
      </trkpt>
      <trkpt lat="28.961129" lon="-13.606119">
        <ele>80.254</ele>
        <time>2021-11-04T12:01:27Z</time>
      </trkpt>
      <trkpt lat="28.961013" lon="-13.606392">
        <ele>82.421</ele>
        <time>2021-11-04T12:05:04Z</time>
      </trkpt>
      <trkpt lat="28.962626" lon="-13.606543">
        <ele>90.416</ele>
        <time>2021-11-04T12:06:05Z</time>
      </trkpt>
      <trkpt lat="28.965853" lon="-13.608546">
        <ele>111.718</ele>
        <time>2021-11-04T12:08:08Z</time>
      </trkpt>
      <trkpt lat="28.967343" lon="-13.609211">
        <ele>115.487</ele>
        <time>2021-11-04T12:08:59Z</time>
      </trkpt>
      <trkpt lat="28.968690" lon="-13.610679">
        <ele>118.079</ele>
        <time>2021-11-04T12:09:47Z</time>
      </trkpt>
      <trkpt lat="28.970343" lon="-13.611871">
        <ele>137.526</ele>
        <time>2021-11-04T12:10:46Z</time>
      </trkpt>
      <trkpt lat="28.971874" lon="-13.612604">
        <ele>158.857</ele>
        <time>2021-11-04T12:12:05Z</time>
      </trkpt>
      <trkpt lat="28.972601" lon="-13.612451">
        <ele>163.400</ele>
        <time>2021-11-04T12:12:52Z</time>
      </trkpt>
      <trkpt lat="28.972459" lon="-13.612325">
        <ele>164.320</ele>
        <time>2021-11-04T12:13:10Z</time>
      </trkpt>
      <trkpt lat="28.973465" lon="-13.612593">
        <ele>170.208</ele>
        <time>2021-11-04T12:13:54Z</time>
      </trkpt>
      <trkpt lat="28.976298" lon="-13.611477">
        <ele>169.573</ele>
        <time>2021-11-04T12:15:12Z</time>
      </trkpt>
      <trkpt lat="28.979024" lon="-13.611001">
        <ele>174.563</ele>
        <time>2021-11-04T12:16:31Z</time>
      </trkpt>
      <trkpt lat="28.984280" lon="-13.611617">
        <ele>184.250</ele>
        <time>2021-11-04T12:21:11Z</time>
      </trkpt>
      <trkpt lat="28.985910" lon="-13.611522">
        <ele>187.755</ele>
        <time>2021-11-04T12:21:53Z</time>
      </trkpt>
      <trkpt lat="28.988126" lon="-13.611823">
        <ele>195.887</ele>
        <time>2021-11-04T12:22:57Z</time>
      </trkpt>
      <trkpt lat="28.989728" lon="-13.611450">
        <ele>205.686</ele>
        <time>2021-11-04T12:23:50Z</time>
      </trkpt>
      <trkpt lat="28.992445" lon="-13.611407">
        <ele>224.398</ele>
        <time>2021-11-04T12:25:29Z</time>
      </trkpt>
      <trkpt lat="28.998102" lon="-13.610424">
        <ele>253.685</ele>
        <time>2021-11-04T12:29:45Z</time>
      </trkpt>
      <trkpt lat="28.999566" lon="-13.610431">
        <ele>264.112</ele>
        <time>2021-11-04T12:30:41Z</time>
      </trkpt>
      <trkpt lat="28.999657" lon="-13.610860">
        <ele>265.132</ele>
        <time>2021-11-04T12:32:34Z</time>
      </trkpt>
      <trkpt lat="29.000850" lon="-13.610510">
        <ele>272.205</ele>
        <time>2021-11-04T12:33:25Z</time>
      </trkpt>
      <trkpt lat="29.001871" lon="-13.611914">
        <ele>274.108</ele>
        <time>2021-11-04T12:34:05Z</time>
      </trkpt>
      <trkpt lat="29.002333" lon="-13.612994">
        <ele>276.269</ele>
        <time>2021-11-04T12:34:35Z</time>
      </trkpt>
      <trkpt lat="29.001120" lon="-13.613731">
        <ele>277.789</ele>
        <time>2021-11-04T12:35:13Z</time>
      </trkpt>
      <trkpt lat="29.001216" lon="-13.614219">
        <ele>278.826</ele>
        <time>2021-11-04T12:36:47Z</time>
      </trkpt>
      <trkpt lat="29.000871" lon="-13.614377">
        <ele>277.791</ele>
        <time>2021-11-04T12:37:01Z</time>
      </trkpt>
      <trkpt lat="29.000858" lon="-13.614963">
        <ele>279.093</ele>
        <time>2021-11-04T12:37:14Z</time>
      </trkpt>
      <trkpt lat="29.001793" lon="-13.614858">
        <ele>283.092</ele>
        <time>2021-11-04T12:37:45Z</time>
      </trkpt>
      <trkpt lat="29.001892" lon="-13.615007">
        <ele>282.744</ele>
        <time>2021-11-04T12:37:53Z</time>
      </trkpt>
      <trkpt lat="29.001825" lon="-13.614827">
        <ele>282.421</ele>
        <time>2021-11-04T12:38:40Z</time>
      </trkpt>
      <trkpt lat="29.002976" lon="-13.614403">
        <ele>281.696</ele>
        <time>2021-11-04T12:39:08Z</time>
      </trkpt>
      <trkpt lat="29.002813" lon="-13.613795">
        <ele>278.931</ele>
        <time>2021-11-04T12:39:26Z</time>
      </trkpt>
      <trkpt lat="29.001716" lon="-13.611839">
        <ele>274.124</ele>
        <time>2021-11-04T12:40:54Z</time>
      </trkpt>
      <trkpt lat="29.003080" lon="-13.609847">
        <ele>271.108</ele>
        <time>2021-11-04T12:42:02Z</time>
      </trkpt>
      <trkpt lat="29.001747" lon="-13.611774">
        <ele>274.047</ele>
        <time>2021-11-04T12:43:56Z</time>
      </trkpt>
      <trkpt lat="29.000828" lon="-13.610687">
        <ele>272.237</ele>
        <time>2021-11-04T12:52:11Z</time>
      </trkpt>
      <trkpt lat="29.001312" lon="-13.610743">
        <ele>272.774</ele>
        <time>2021-11-04T13:01:11Z</time>
      </trkpt>
      <trkpt lat="29.000947" lon="-13.610798">
        <ele>273.239</ele>
        <time>2021-11-04T13:44:02Z</time>
      </trkpt>
      <trkpt lat="29.001781" lon="-13.611700">
        <ele>273.881</ele>
        <time>2021-11-04T13:47:23Z</time>
      </trkpt>
      <trkpt lat="29.003134" lon="-13.609809">
        <ele>271.040</ele>
        <time>2021-11-04T13:48:17Z</time>
      </trkpt>
      <trkpt lat="29.003363" lon="-13.609181">
        <ele>268.922</ele>
        <time>2021-11-04T13:49:29Z</time>
      </trkpt>
      <trkpt lat="29.004243" lon="-13.609754">
        <ele>271.559</ele>
        <time>2021-11-04T13:49:55Z</time>
      </trkpt>
      <trkpt lat="29.008060" lon="-13.611390">
        <ele>274.857</ele>
        <time>2021-11-04T13:51:33Z</time>
      </trkpt>
      <trkpt lat="29.010454" lon="-13.612646">
        <ele>276.200</ele>
        <time>2021-11-04T13:52:46Z</time>
      </trkpt>
      <trkpt lat="29.014147" lon="-13.614191">
        <ele>271.320</ele>
        <time>2021-11-04T13:53:45Z</time>
      </trkpt>
      <trkpt lat="29.015378" lon="-13.614504">
        <ele>271.308</ele>
        <time>2021-11-04T13:55:03Z</time>
      </trkpt>
      <trkpt lat="29.015385" lon="-13.614711">
        <ele>271.213</ele>
        <time>2021-11-04T13:55:06Z</time>
      </trkpt>
      <trkpt lat="29.014945" lon="-13.615101">
        <ele>271.613</ele>
        <time>2021-11-04T13:55:17Z</time>
      </trkpt>
      <trkpt lat="29.015044" lon="-13.615320">
        <ele>270.950</ele>
        <time>2021-11-04T13:55:23Z</time>
      </trkpt>
      <trkpt lat="29.015578" lon="-13.614969">
        <ele>268.955</ele>
        <time>2021-11-04T13:59:43Z</time>
      </trkpt>
      <trkpt lat="29.015264" lon="-13.615259">
        <ele>270.517</ele>
        <time>2021-11-04T14:07:27Z</time>
      </trkpt>
      <trkpt lat="29.014749" lon="-13.615197">
        <ele>271.886</ele>
        <time>2021-11-04T14:10:19Z</time>
      </trkpt>
      <trkpt lat="29.015059" lon="-13.614467">
        <ele>271.448</ele>
        <time>2021-11-04T14:10:43Z</time>
      </trkpt>
      <trkpt lat="29.015751" lon="-13.613854">
        <ele>271.515</ele>
        <time>2021-11-04T14:10:58Z</time>
      </trkpt>
      <trkpt lat="29.018190" lon="-13.610656">
        <ele>261.423</ele>
        <time>2021-11-04T14:12:03Z</time>
      </trkpt>
      <trkpt lat="29.020242" lon="-13.606777">
        <ele>250.283</ele>
        <time>2021-11-04T14:14:16Z</time>
      </trkpt>
      <trkpt lat="29.020771" lon="-13.606288">
        <ele>246.811</ele>
        <time>2021-11-04T14:14:34Z</time>
      </trkpt>
      <trkpt lat="29.023302" lon="-13.605035">
        <ele>233.408</ele>
        <time>2021-11-04T14:15:51Z</time>
      </trkpt>
      <trkpt lat="29.028094" lon="-13.601624">
        <ele>217.070</ele>
        <time>2021-11-04T14:17:28Z</time>
      </trkpt>
      <trkpt lat="29.032146" lon="-13.600197">
        <ele>208.970</ele>
        <time>2021-11-04T14:18:45Z</time>
      </trkpt>
      <trkpt lat="29.033205" lon="-13.599535">
        <ele>206.137</ele>
        <time>2021-11-04T14:19:05Z</time>
      </trkpt>
      <trkpt lat="29.034624" lon="-13.598050">
        <ele>205.492</ele>
        <time>2021-11-04T14:19:48Z</time>
      </trkpt>
      <trkpt lat="29.034459" lon="-13.597886">
        <ele>205.454</ele>
        <time>2021-11-04T14:20:20Z</time>
      </trkpt>
      <trkpt lat="29.035965" lon="-13.596234">
        <ele>203.323</ele>
        <time>2021-11-04T14:26:06Z</time>
      </trkpt>
      <trkpt lat="29.044456" lon="-13.584310">
        <ele>204.135</ele>
        <time>2021-11-04T14:31:16Z</time>
      </trkpt>
      <trkpt lat="29.044581" lon="-13.583760">
        <ele>204.932</ele>
        <time>2021-11-04T14:31:29Z</time>
      </trkpt>
      <trkpt lat="29.044992" lon="-13.583606">
        <ele>205.277</ele>
        <time>2021-11-04T14:31:40Z</time>
      </trkpt>
      <trkpt lat="29.053202" lon="-13.572293">
        <ele>239.661</ele>
        <time>2021-11-04T14:38:51Z</time>
      </trkpt>
      <trkpt lat="29.055806" lon="-13.568386">
        <ele>261.227</ele>
        <time>2021-11-04T14:41:34Z</time>
      </trkpt>
      <trkpt lat="29.056041" lon="-13.568313">
        <ele>262.108</ele>
        <time>2021-11-04T14:42:38Z</time>
      </trkpt>
      <trkpt lat="29.055923" lon="-13.568043">
        <ele>262.775</ele>
        <time>2021-11-04T14:42:43Z</time>
      </trkpt>
      <trkpt lat="29.056427" lon="-13.567523">
        <ele>265.245</ele>
        <time>2021-11-04T14:43:02Z</time>
      </trkpt>
      <trkpt lat="29.056800" lon="-13.566348">
        <ele>270.352</ele>
        <time>2021-11-04T14:43:41Z</time>
      </trkpt>
      <trkpt lat="29.056797" lon="-13.565569">
        <ele>274.357</ele>
        <time>2021-11-04T14:44:43Z</time>
      </trkpt>
      <trkpt lat="29.057520" lon="-13.563125">
        <ele>285.339</ele>
        <time>2021-11-04T14:48:33Z</time>
      </trkpt>
      <trkpt lat="29.058298" lon="-13.561857">
        <ele>294.998</ele>
        <time>2021-11-04T14:50:42Z</time>
      </trkpt>
      <trkpt lat="29.058303" lon="-13.561341">
        <ele>297.670</ele>
        <time>2021-11-04T14:50:59Z</time>
      </trkpt>
      <trkpt lat="29.057500" lon="-13.561164">
        <ele>297.327</ele>
        <time>2021-11-04T14:52:00Z</time>
      </trkpt>
      <trkpt lat="29.057883" lon="-13.561190">
        <ele>297.251</ele>
        <time>2021-11-04T14:53:28Z</time>
      </trkpt>
      <trkpt lat="29.057866" lon="-13.561022">
        <ele>297.201</ele>
        <time>2021-11-04T14:53:42Z</time>
      </trkpt>
      <trkpt lat="29.058828" lon="-13.561461">
        <ele>298.511</ele>
        <time>2021-11-04T14:54:59Z</time>
      </trkpt>
      <trkpt lat="29.059934" lon="-13.561472">
        <ele>298.208</ele>
        <time>2021-11-04T14:55:35Z</time>
      </trkpt>
      <trkpt lat="29.060068" lon="-13.560577">
        <ele>300.053</ele>
        <time>2021-11-04T14:56:11Z</time>
      </trkpt>
      <trkpt lat="29.060111" lon="-13.560887">
        <ele>300.713</ele>
        <time>2021-11-04T14:56:31Z</time>
      </trkpt>
      <trkpt lat="29.060168" lon="-13.560629">
        <ele>301.360</ele>
        <time>2021-11-04T14:57:18Z</time>
      </trkpt>
      <trkpt lat="29.060554" lon="-13.560570">
        <ele>301.955</ele>
        <time>2021-11-04T14:57:44Z</time>
      </trkpt>
      <trkpt lat="29.059289" lon="-13.560296">
        <ele>304.377</ele>
        <time>2021-11-04T14:59:48Z</time>
      </trkpt>
      <trkpt lat="29.059359" lon="-13.559995">
        <ele>304.726</ele>
        <time>2021-11-04T15:02:08Z</time>
      </trkpt>
      <trkpt lat="29.059405" lon="-13.560293">
        <ele>304.818</ele>
        <time>2021-11-04T15:02:36Z</time>
      </trkpt>
      <trkpt lat="29.058854" lon="-13.560331">
        <ele>304.675</ele>
        <time>2021-11-04T15:04:07Z</time>
      </trkpt>
      <trkpt lat="29.058765" lon="-13.560640">
        <ele>302.924</ele>
        <time>2021-11-04T15:06:01Z</time>
      </trkpt>
      <trkpt lat="29.058639" lon="-13.560273">
        <ele>304.204</ele>
        <time>2021-11-04T15:08:03Z</time>
      </trkpt>
      <trkpt lat="29.058445" lon="-13.560403">
        <ele>303.714</ele>
        <time>2021-11-04T15:08:47Z</time>
      </trkpt>
      <trkpt lat="29.058378" lon="-13.560194">
        <ele>304.008</ele>
        <time>2021-11-04T15:09:16Z</time>
      </trkpt>
      <trkpt lat="29.058455" lon="-13.560352">
        <ele>305.040</ele>
        <time>2021-11-04T15:09:45Z</time>
      </trkpt>
      <trkpt lat="29.058598" lon="-13.559516">
        <ele>307.470</ele>
        <time>2021-11-04T15:30:22Z</time>
      </trkpt>
      <trkpt lat="29.057377" lon="-13.559139">
        <ele>308.737</ele>
        <time>2021-11-04T15:31:43Z</time>
      </trkpt>
      <trkpt lat="29.057736" lon="-13.558960">
        <ele>310.872</ele>
        <time>2021-11-04T15:31:52Z</time>
      </trkpt>
      <trkpt lat="29.059657" lon="-13.556714">
        <ele>319.094</ele>
        <time>2021-11-04T15:33:09Z</time>
      </trkpt>
      <trkpt lat="29.059506" lon="-13.556370">
        <ele>319.293</ele>
        <time>2021-11-04T15:33:18Z</time>
      </trkpt>
      <trkpt lat="29.059644" lon="-13.556557">
        <ele>319.365</ele>
        <time>2021-11-04T15:33:34Z</time>
      </trkpt>
      <trkpt lat="29.063241" lon="-13.552226">
        <ele>329.582</ele>
        <time>2021-11-04T15:36:28Z</time>
      </trkpt>
      <trkpt lat="29.065948" lon="-13.541845">
        <ele>307.742</ele>
        <time>2021-11-04T15:38:50Z</time>
      </trkpt>
      <trkpt lat="29.066339" lon="-13.538478">
        <ele>309.322</ele>
        <time>2021-11-04T15:39:44Z</time>
      </trkpt>
      <trkpt lat="29.067050" lon="-13.536193">
        <ele>298.914</ele>
        <time>2021-11-04T15:40:11Z</time>
      </trkpt>
      <trkpt lat="29.068960" lon="-13.533586">
        <ele>282.408</ele>
        <time>2021-11-04T15:40:45Z</time>
      </trkpt>
      <trkpt lat="29.070350" lon="-13.532047">
        <ele>277.992</ele>
        <time>2021-11-04T15:41:12Z</time>
      </trkpt>
      <trkpt lat="29.070846" lon="-13.528932">
        <ele>277.542</ele>
        <time>2021-11-04T15:41:58Z</time>
      </trkpt>
      <trkpt lat="29.070464" lon="-13.526358">
        <ele>278.329</ele>
        <time>2021-11-04T15:42:38Z</time>
      </trkpt>
      <trkpt lat="29.070593" lon="-13.525452">
        <ele>281.494</ele>
        <time>2021-11-04T15:42:57Z</time>
      </trkpt>
      <trkpt lat="29.071352" lon="-13.524975">
        <ele>287.856</ele>
        <time>2021-11-04T15:43:24Z</time>
      </trkpt>
      <trkpt lat="29.071787" lon="-13.525188">
        <ele>290.255</ele>
        <time>2021-11-04T15:43:39Z</time>
      </trkpt>
      <trkpt lat="29.072238" lon="-13.525878">
        <ele>295.617</ele>
        <time>2021-11-04T15:46:10Z</time>
      </trkpt>
      <trkpt lat="29.073514" lon="-13.526241">
        <ele>305.084</ele>
        <time>2021-11-04T15:46:51Z</time>
      </trkpt>
      <trkpt lat="29.078119" lon="-13.525830">
        <ele>313.725</ele>
        <time>2021-11-04T15:49:09Z</time>
      </trkpt>
      <trkpt lat="29.079393" lon="-13.525376">
        <ele>315.126</ele>
        <time>2021-11-04T15:49:41Z</time>
      </trkpt>
      <trkpt lat="29.081002" lon="-13.525125">
        <ele>318.808</ele>
        <time>2021-11-04T15:50:03Z</time>
      </trkpt>
      <trkpt lat="29.081815" lon="-13.524674">
        <ele>322.508</ele>
        <time>2021-11-04T15:50:27Z</time>
      </trkpt>
      <trkpt lat="29.083282" lon="-13.523217">
        <ele>328.060</ele>
        <time>2021-11-04T15:52:35Z</time>
      </trkpt>
      <trkpt lat="29.083074" lon="-13.521665">
        <ele>330.860</ele>
        <time>2021-11-04T15:53:08Z</time>
      </trkpt>
      <trkpt lat="29.083684" lon="-13.517135">
        <ele>338.187</ele>
        <time>2021-11-04T15:54:32Z</time>
      </trkpt>
      <trkpt lat="29.084232" lon="-13.515994">
        <ele>344.322</ele>
        <time>2021-11-04T15:55:03Z</time>
      </trkpt>
      <trkpt lat="29.086807" lon="-13.515783">
        <ele>360.624</ele>
        <time>2021-11-04T15:56:27Z</time>
      </trkpt>
      <trkpt lat="29.087336" lon="-13.516049">
        <ele>363.253</ele>
        <time>2021-11-04T15:56:47Z</time>
      </trkpt>
      <trkpt lat="29.087172" lon="-13.516204">
        <ele>364.215</ele>
        <time>2021-11-04T15:56:57Z</time>
      </trkpt>
      <trkpt lat="29.087180" lon="-13.516013">
        <ele>365.222</ele>
        <time>2021-11-04T15:57:16Z</time>
      </trkpt>
      <trkpt lat="29.088517" lon="-13.516189">
        <ele>372.565</ele>
        <time>2021-11-04T15:58:02Z</time>
      </trkpt>
      <trkpt lat="29.089910" lon="-13.515914">
        <ele>380.368</ele>
        <time>2021-11-04T15:58:51Z</time>
      </trkpt>
      <trkpt lat="29.091698" lon="-13.514975">
        <ele>394.114</ele>
        <time>2021-11-04T16:00:05Z</time>
      </trkpt>
      <trkpt lat="29.093381" lon="-13.513782">
        <ele>406.708</ele>
        <time>2021-11-04T16:01:19Z</time>
      </trkpt>
      <trkpt lat="29.096781" lon="-13.513185">
        <ele>430.684</ele>
        <time>2021-11-04T16:03:26Z</time>
      </trkpt>
      <trkpt lat="29.096711" lon="-13.512994">
        <ele>433.224</ele>
        <time>2021-11-04T16:03:36Z</time>
      </trkpt>
      <trkpt lat="29.095927" lon="-13.512936">
        <ele>438.281</ele>
        <time>2021-11-04T16:04:15Z</time>
      </trkpt>
      <trkpt lat="29.094616" lon="-13.512180">
        <ele>444.946</ele>
        <time>2021-11-04T16:05:29Z</time>
      </trkpt>
      <trkpt lat="29.094752" lon="-13.511857">
        <ele>446.938</ele>
        <time>2021-11-04T16:05:41Z</time>
      </trkpt>
      <trkpt lat="29.098035" lon="-13.511617">
        <ele>475.277</ele>
        <time>2021-11-04T16:07:54Z</time>
      </trkpt>
      <trkpt lat="29.097995" lon="-13.511789">
        <ele>476.939</ele>
        <time>2021-11-04T16:08:02Z</time>
      </trkpt>
      <trkpt lat="29.097797" lon="-13.511643">
        <ele>478.986</ele>
        <time>2021-11-04T16:08:24Z</time>
      </trkpt>
      <trkpt lat="29.097957" lon="-13.511421">
        <ele>481.244</ele>
        <time>2021-11-04T16:08:32Z</time>
      </trkpt>
      <trkpt lat="29.098285" lon="-13.511584">
        <ele>484.205</ele>
        <time>2021-11-04T16:08:45Z</time>
      </trkpt>
      <trkpt lat="29.099433" lon="-13.511529">
        <ele>493.415</ele>
        <time>2021-11-04T16:09:38Z</time>
      </trkpt>
      <trkpt lat="29.099313" lon="-13.511055">
        <ele>492.608</ele>
        <time>2021-11-04T16:09:58Z</time>
      </trkpt>
      <trkpt lat="29.099613" lon="-13.510308">
        <ele>496.262</ele>
        <time>2021-11-04T16:11:24Z</time>
      </trkpt>
      <trkpt lat="29.099322" lon="-13.511019">
        <ele>493.772</ele>
        <time>2021-11-04T16:13:56Z</time>
      </trkpt>
      <trkpt lat="29.099536" lon="-13.511626">
        <ele>494.369</ele>
        <time>2021-11-04T16:15:08Z</time>
      </trkpt>
      <trkpt lat="29.099466" lon="-13.511513">
        <ele>494.314</ele>
        <time>2021-11-04T16:16:00Z</time>
      </trkpt>
      <trkpt lat="29.103252" lon="-13.511888">
        <ele>514.856</ele>
        <time>2021-11-04T16:18:09Z</time>
      </trkpt>
      <trkpt lat="29.106527" lon="-13.513835">
        <ele>534.215</ele>
        <time>2021-11-04T16:20:13Z</time>
      </trkpt>
      <trkpt lat="29.107863" lon="-13.513391">
        <ele>542.517</ele>
        <time>2021-11-04T16:21:04Z</time>
      </trkpt>
      <trkpt lat="29.121821" lon="-13.515547">
        <ele>583.914</ele>
        <time>2021-11-04T16:31:20Z</time>
      </trkpt>
      <trkpt lat="29.122896" lon="-13.515425">
        <ele>586.287</ele>
        <time>2021-11-04T16:31:57Z</time>
      </trkpt>
      <trkpt lat="29.122813" lon="-13.515565">
        <ele>586.342</ele>
        <time>2021-11-04T16:32:37Z</time>
      </trkpt>
      <trkpt lat="29.123524" lon="-13.515521">
        <ele>584.426</ele>
        <time>2021-11-04T16:33:47Z</time>
      </trkpt>
      <trkpt lat="29.124573" lon="-13.515045">
        <ele>578.408</ele>
        <time>2021-11-04T16:34:13Z</time>
      </trkpt>
      <trkpt lat="29.125595" lon="-13.515000">
        <ele>572.846</ele>
        <time>2021-11-04T16:34:53Z</time>
      </trkpt>
      <trkpt lat="29.125562" lon="-13.515309">
        <ele>575.126</ele>
        <time>2021-11-04T16:35:04Z</time>
      </trkpt>
      <trkpt lat="29.122794" lon="-13.516338">
        <ele>599.483</ele>
        <time>2021-11-04T16:36:52Z</time>
      </trkpt>
      <trkpt lat="29.123430" lon="-13.516758">
        <ele>604.228</ele>
        <time>2021-11-04T16:37:20Z</time>
      </trkpt>
      <trkpt lat="29.123451" lon="-13.517111">
        <ele>607.130</ele>
        <time>2021-11-04T16:37:31Z</time>
      </trkpt>
      <trkpt lat="29.123968" lon="-13.517483">
        <ele>612.029</ele>
        <time>2021-11-04T16:37:53Z</time>
      </trkpt>
      <trkpt lat="29.124417" lon="-13.518822">
        <ele>621.311</ele>
        <time>2021-11-04T16:38:42Z</time>
      </trkpt>
      <trkpt lat="29.124288" lon="-13.519145">
        <ele>622.228</ele>
        <time>2021-11-04T16:39:27Z</time>
      </trkpt>
      <trkpt lat="29.124355" lon="-13.518285">
        <ele>618.561</ele>
        <time>2021-11-04T16:42:55Z</time>
      </trkpt>
      <trkpt lat="29.124514" lon="-13.518210">
        <ele>618.321</ele>
        <time>2021-11-04T16:43:02Z</time>
      </trkpt>
      <trkpt lat="29.125722" lon="-13.519278">
        <ele>616.313</ele>
        <time>2021-11-04T16:43:32Z</time>
      </trkpt>
      <trkpt lat="29.125826" lon="-13.521182">
        <ele>606.608</ele>
        <time>2021-11-04T16:44:00Z</time>
      </trkpt>
      <trkpt lat="29.126092" lon="-13.521786">
        <ele>605.834</ele>
        <time>2021-11-04T16:44:14Z</time>
      </trkpt>
      <trkpt lat="29.126005" lon="-13.523468">
        <ele>605.224</ele>
        <time>2021-11-04T16:44:52Z</time>
      </trkpt>
      <trkpt lat="29.126513" lon="-13.523937">
        <ele>594.571</ele>
        <time>2021-11-04T16:45:47Z</time>
      </trkpt>
      <trkpt lat="29.126714" lon="-13.524455">
        <ele>575.846</ele>
        <time>2021-11-04T16:48:28Z</time>
      </trkpt>
      <trkpt lat="29.126304" lon="-13.524613">
        <ele>581.968</ele>
        <time>2021-11-04T16:50:43Z</time>
      </trkpt>
      <trkpt lat="29.126811" lon="-13.524189">
        <ele>583.017</ele>
        <time>2021-11-04T16:54:09Z</time>
      </trkpt>
      <trkpt lat="29.126067" lon="-13.523453">
        <ele>605.019</ele>
        <time>2021-11-04T16:56:15Z</time>
      </trkpt>
      <trkpt lat="29.126121" lon="-13.521682">
        <ele>605.736</ele>
        <time>2021-11-04T16:57:00Z</time>
      </trkpt>
      <trkpt lat="29.125880" lon="-13.521183">
        <ele>606.288</ele>
        <time>2021-11-04T16:57:14Z</time>
      </trkpt>
      <trkpt lat="29.125768" lon="-13.519361">
        <ele>615.924</ele>
        <time>2021-11-04T16:57:58Z</time>
      </trkpt>
      <trkpt lat="29.124491" lon="-13.518366">
        <ele>618.326</ele>
        <time>2021-11-04T16:58:41Z</time>
      </trkpt>
      <trkpt lat="29.123952" lon="-13.517472">
        <ele>612.008</ele>
        <time>2021-11-04T16:58:57Z</time>
      </trkpt>
      <trkpt lat="29.123509" lon="-13.517127">
        <ele>607.916</ele>
        <time>2021-11-04T16:59:08Z</time>
      </trkpt>
      <trkpt lat="29.123457" lon="-13.516768">
        <ele>604.756</ele>
        <time>2021-11-04T16:59:14Z</time>
      </trkpt>
      <trkpt lat="29.122778" lon="-13.516218">
        <ele>598.843</ele>
        <time>2021-11-04T16:59:31Z</time>
      </trkpt>
      <trkpt lat="29.125438" lon="-13.515309">
        <ele>575.888</ele>
        <time>2021-11-04T17:00:14Z</time>
      </trkpt>
      <trkpt lat="29.125664" lon="-13.514987">
        <ele>572.790</ele>
        <time>2021-11-04T17:00:25Z</time>
      </trkpt>
      <trkpt lat="29.127430" lon="-13.514287">
        <ele>559.879</ele>
        <time>2021-11-04T17:00:52Z</time>
      </trkpt>
      <trkpt lat="29.127610" lon="-13.513400">
        <ele>557.551</ele>
        <time>2021-11-04T17:01:09Z</time>
      </trkpt>
      <trkpt lat="29.127595" lon="-13.513821">
        <ele>557.188</ele>
        <time>2021-11-04T17:01:23Z</time>
      </trkpt>
      <trkpt lat="29.128269" lon="-13.515438">
        <ele>550.518</ele>
        <time>2021-11-04T17:02:37Z</time>
      </trkpt>
      <trkpt lat="29.128686" lon="-13.515636">
        <ele>546.898</ele>
        <time>2021-11-04T17:02:44Z</time>
      </trkpt>
      <trkpt lat="29.129625" lon="-13.515313">
        <ele>539.217</ele>
        <time>2021-11-04T17:02:57Z</time>
      </trkpt>
      <trkpt lat="29.130649" lon="-13.515254">
        <ele>530.608</ele>
        <time>2021-11-04T17:03:12Z</time>
      </trkpt>
      <trkpt lat="29.131097" lon="-13.516261">
        <ele>521.139</ele>
        <time>2021-11-04T17:03:28Z</time>
      </trkpt>
      <trkpt lat="29.131068" lon="-13.516828">
        <ele>520.889</ele>
        <time>2021-11-04T17:03:36Z</time>
      </trkpt>
      <trkpt lat="29.131231" lon="-13.517076">
        <ele>518.336</ele>
        <time>2021-11-04T17:03:41Z</time>
      </trkpt>
      <trkpt lat="29.131114" lon="-13.515445">
        <ele>508.431</ele>
        <time>2021-11-04T17:03:58Z</time>
      </trkpt>
      <trkpt lat="29.131443" lon="-13.513728">
        <ele>499.933</ele>
        <time>2021-11-04T17:04:18Z</time>
      </trkpt>
      <trkpt lat="29.131629" lon="-13.513626">
        <ele>498.362</ele>
        <time>2021-11-04T17:05:00Z</time>
      </trkpt>
      <trkpt lat="29.131806" lon="-13.513906">
        <ele>496.664</ele>
        <time>2021-11-04T17:05:37Z</time>
      </trkpt>
      <trkpt lat="29.131317" lon="-13.515382">
        <ele>490.621</ele>
        <time>2021-11-04T17:06:10Z</time>
      </trkpt>
      <trkpt lat="29.131468" lon="-13.515597">
        <ele>488.761</ele>
        <time>2021-11-04T17:06:16Z</time>
      </trkpt>
      <trkpt lat="29.131643" lon="-13.515461">
        <ele>487.121</ele>
        <time>2021-11-04T17:06:20Z</time>
      </trkpt>
      <trkpt lat="29.131764" lon="-13.514481">
        <ele>481.613</ele>
        <time>2021-11-04T17:06:30Z</time>
      </trkpt>
      <trkpt lat="29.132654" lon="-13.512084">
        <ele>467.608</ele>
        <time>2021-11-04T17:06:52Z</time>
      </trkpt>
      <trkpt lat="29.132828" lon="-13.510981">
        <ele>462.784</ele>
        <time>2021-11-04T17:07:03Z</time>
      </trkpt>
      <trkpt lat="29.133022" lon="-13.510826">
        <ele>461.174</ele>
        <time>2021-11-04T17:07:09Z</time>
      </trkpt>
      <trkpt lat="29.133232" lon="-13.511134">
        <ele>458.381</ele>
        <time>2021-11-04T17:07:15Z</time>
      </trkpt>
      <trkpt lat="29.132851" lon="-13.512682">
        <ele>448.616</ele>
        <time>2021-11-04T17:07:31Z</time>
      </trkpt>
      <trkpt lat="29.132678" lon="-13.514931">
        <ele>435.158</ele>
        <time>2021-11-04T17:07:48Z</time>
      </trkpt>
      <trkpt lat="29.132741" lon="-13.517011">
        <ele>426.497</ele>
        <time>2021-11-04T17:08:07Z</time>
      </trkpt>
      <trkpt lat="29.132925" lon="-13.517003">
        <ele>424.739</ele>
        <time>2021-11-04T17:08:10Z</time>
      </trkpt>
      <trkpt lat="29.132937" lon="-13.515699">
        <ele>416.536</ele>
        <time>2021-11-04T17:08:23Z</time>
      </trkpt>
      <trkpt lat="29.135163" lon="-13.509587">
        <ele>378.098</ele>
        <time>2021-11-04T17:09:15Z</time>
      </trkpt>
      <trkpt lat="29.135372" lon="-13.508090">
        <ele>368.915</ele>
        <time>2021-11-04T17:09:26Z</time>
      </trkpt>
      <trkpt lat="29.135124" lon="-13.506889">
        <ele>362.126</ele>
        <time>2021-11-04T17:09:35Z</time>
      </trkpt>
      <trkpt lat="29.135284" lon="-13.506162">
        <ele>358.608</ele>
        <time>2021-11-04T17:09:41Z</time>
      </trkpt>
      <trkpt lat="29.136351" lon="-13.504883">
        <ele>348.547</ele>
        <time>2021-11-04T17:09:56Z</time>
      </trkpt>
      <trkpt lat="29.137345" lon="-13.504718">
        <ele>341.287</ele>
        <time>2021-11-04T17:10:06Z</time>
      </trkpt>
      <trkpt lat="29.139941" lon="-13.502971">
        <ele>322.554</ele>
        <time>2021-11-04T17:11:03Z</time>
      </trkpt>
      <trkpt lat="29.142103" lon="-13.500925">
        <ele>306.629</ele>
        <time>2021-11-04T17:11:32Z</time>
      </trkpt>
      <trkpt lat="29.142854" lon="-13.500691">
        <ele>302.121</ele>
        <time>2021-11-04T17:12:00Z</time>
      </trkpt>
      <trkpt lat="29.144110" lon="-13.499851">
        <ele>292.220</ele>
        <time>2021-11-04T17:12:18Z</time>
      </trkpt>
      <trkpt lat="29.145181" lon="-13.499823">
        <ele>285.492</ele>
        <time>2021-11-04T17:12:33Z</time>
      </trkpt>
      <trkpt lat="29.145307" lon="-13.500045">
        <ele>284.119</ele>
        <time>2021-11-04T17:12:55Z</time>
      </trkpt>
      <trkpt lat="29.145560" lon="-13.499843">
        <ele>282.885</ele>
        <time>2021-11-04T17:14:17Z</time>
      </trkpt>
      <trkpt lat="29.146094" lon="-13.499953">
        <ele>281.989</ele>
        <time>2021-11-04T17:14:29Z</time>
      </trkpt>
      <trkpt lat="29.146311" lon="-13.499719">
        <ele>282.517</ele>
        <time>2021-11-04T17:14:41Z</time>
      </trkpt>
      <trkpt lat="29.147038" lon="-13.499767">
        <ele>285.108</ele>
        <time>2021-11-04T17:15:05Z</time>
      </trkpt>
      <trkpt lat="29.147020" lon="-13.499585">
        <ele>285.856</ele>
        <time>2021-11-04T17:15:15Z</time>
      </trkpt>
      <trkpt lat="29.146915" lon="-13.499932">
        <ele>285.346</ele>
        <time>2021-11-04T17:17:50Z</time>
      </trkpt>
      <trkpt lat="29.147015" lon="-13.499621">
        <ele>284.363</ele>
        <time>2021-11-04T17:25:40Z</time>
      </trkpt>
      <trkpt lat="29.146251" lon="-13.499798">
        <ele>282.388</ele>
        <time>2021-11-04T17:27:10Z</time>
      </trkpt>
      <trkpt lat="29.145898" lon="-13.500520">
        <ele>282.140</ele>
        <time>2021-11-04T17:27:51Z</time>
      </trkpt>
      <trkpt lat="29.145571" lon="-13.500456">
        <ele>284.679</ele>
        <time>2021-11-04T17:28:04Z</time>
      </trkpt>
      <trkpt lat="29.144792" lon="-13.500823">
        <ele>288.481</ele>
        <time>2021-11-04T17:28:26Z</time>
      </trkpt>
      <trkpt lat="29.144654" lon="-13.501304">
        <ele>290.198</ele>
        <time>2021-11-04T17:28:39Z</time>
      </trkpt>
      <trkpt lat="29.144206" lon="-13.501473">
        <ele>291.558</ele>
        <time>2021-11-04T17:28:55Z</time>
      </trkpt>
      <trkpt lat="29.144114" lon="-13.501734">
        <ele>292.152</ele>
        <time>2021-11-04T17:29:01Z</time>
      </trkpt>
      <trkpt lat="29.142806" lon="-13.502780">
        <ele>296.317</ele>
        <time>2021-11-04T17:29:38Z</time>
      </trkpt>
      <trkpt lat="29.141436" lon="-13.503560">
        <ele>301.708</ele>
        <time>2021-11-04T17:30:17Z</time>
      </trkpt>
      <trkpt lat="29.141496" lon="-13.503964">
        <ele>305.323</ele>
        <time>2021-11-04T17:32:02Z</time>
      </trkpt>
      <trkpt lat="29.141811" lon="-13.503551">
        <ele>305.133</ele>
        <time>2021-11-04T17:32:56Z</time>
      </trkpt>
      <trkpt lat="29.141592" lon="-13.503815">
        <ele>305.440</ele>
        <time>2021-11-04T17:33:26Z</time>
      </trkpt>
      <trkpt lat="29.141488" lon="-13.503504">
        <ele>301.735</ele>
        <time>2021-11-04T17:34:47Z</time>
      </trkpt>
      <trkpt lat="29.142901" lon="-13.502655">
        <ele>295.887</ele>
        <time>2021-11-04T17:35:29Z</time>
      </trkpt>
      <trkpt lat="29.144676" lon="-13.501234">
        <ele>290.096</ele>
        <time>2021-11-04T17:36:16Z</time>
      </trkpt>
      <trkpt lat="29.144811" lon="-13.500772">
        <ele>288.458</ele>
        <time>2021-11-04T17:36:25Z</time>
      </trkpt>
      <trkpt lat="29.145916" lon="-13.500398">
        <ele>282.045</ele>
        <time>2021-11-04T17:36:57Z</time>
      </trkpt>
      <trkpt lat="29.146001" lon="-13.499959">
        <ele>281.924</ele>
        <time>2021-11-04T17:37:07Z</time>
      </trkpt>
      <trkpt lat="29.146284" lon="-13.499728">
        <ele>282.404</ele>
        <time>2021-11-04T17:37:17Z</time>
      </trkpt>
      <trkpt lat="29.147324" lon="-13.499772">
        <ele>288.014</ele>
        <time>2021-11-04T17:37:41Z</time>
      </trkpt>
      <trkpt lat="29.149829" lon="-13.500554">
        <ele>310.908</ele>
        <time>2021-11-04T17:39:12Z</time>
      </trkpt>
      <trkpt lat="29.151580" lon="-13.500057">
        <ele>303.390</ele>
        <time>2021-11-04T17:39:53Z</time>
      </trkpt>
      <trkpt lat="29.152852" lon="-13.498888">
        <ele>288.650</ele>
        <time>2021-11-04T17:40:11Z</time>
      </trkpt>
      <trkpt lat="29.154080" lon="-13.496850">
        <ele>264.077</ele>
        <time>2021-11-04T17:40:35Z</time>
      </trkpt>
      <trkpt lat="29.156803" lon="-13.494558">
        <ele>249.842</ele>
        <time>2021-11-04T17:41:14Z</time>
      </trkpt>
      <trkpt lat="29.159231" lon="-13.493853">
        <ele>255.834</ele>
        <time>2021-11-04T17:42:10Z</time>
      </trkpt>
      <trkpt lat="29.159476" lon="-13.492836">
        <ele>255.073</ele>
        <time>2021-11-04T17:42:32Z</time>
      </trkpt>
      <trkpt lat="29.163957" lon="-13.493454">
        <ele>295.145</ele>
        <time>2021-11-04T17:45:12Z</time>
      </trkpt>
      <trkpt lat="29.168302" lon="-13.493458">
        <ele>311.972</ele>
        <time>2021-11-04T17:47:31Z</time>
      </trkpt>
      <trkpt lat="29.174565" lon="-13.491844">
        <ele>343.879</ele>
        <time>2021-11-04T17:50:41Z</time>
      </trkpt>
      <trkpt lat="29.175837" lon="-13.491096">
        <ele>349.805</ele>
        <time>2021-11-04T17:51:24Z</time>
      </trkpt>
      <trkpt lat="29.178370" lon="-13.490566">
        <ele>356.625</ele>
        <time>2021-11-04T17:52:29Z</time>
      </trkpt>
      <trkpt lat="29.178417" lon="-13.491571">
        <ele>361.408</ele>
        <time>2021-11-04T17:52:56Z</time>
      </trkpt>
      <trkpt lat="29.179126" lon="-13.492130">
        <ele>363.875</ele>
        <time>2021-11-04T17:53:18Z</time>
      </trkpt>
      <trkpt lat="29.180337" lon="-13.493681">
        <ele>360.455</ele>
        <time>2021-11-04T17:53:51Z</time>
      </trkpt>
      <trkpt lat="29.182205" lon="-13.497000">
        <ele>357.692</ele>
        <time>2021-11-04T17:54:47Z</time>
      </trkpt>
      <trkpt lat="29.182792" lon="-13.498364">
        <ele>356.247</ele>
        <time>2021-11-04T17:55:11Z</time>
      </trkpt>
      <trkpt lat="29.183189" lon="-13.498759">
        <ele>357.179</ele>
        <time>2021-11-04T17:55:30Z</time>
      </trkpt>
      <trkpt lat="29.182722" lon="-13.498376">
        <ele>356.198</ele>
        <time>2021-11-04T17:57:13Z</time>
      </trkpt>
      <trkpt lat="29.182190" lon="-13.497012">
        <ele>357.580</ele>
        <time>2021-11-04T17:57:33Z</time>
      </trkpt>
      <trkpt lat="29.180426" lon="-13.493965">
        <ele>360.137</ele>
        <time>2021-11-04T17:58:45Z</time>
      </trkpt>
      <trkpt lat="29.180282" lon="-13.494292">
        <ele>360.247</ele>
        <time>2021-11-04T17:58:58Z</time>
      </trkpt>
      <trkpt lat="29.180420" lon="-13.494779">
        <ele>361.029</ele>
        <time>2021-11-04T17:59:06Z</time>
      </trkpt>
      <trkpt lat="29.180399" lon="-13.496803">
        <ele>360.121</ele>
        <time>2021-11-04T17:59:33Z</time>
      </trkpt>
      <trkpt lat="29.180182" lon="-13.497404">
        <ele>360.808</ele>
        <time>2021-11-04T17:59:42Z</time>
      </trkpt>
      <trkpt lat="29.180310" lon="-13.497992">
        <ele>361.192</ele>
        <time>2021-11-04T17:59:54Z</time>
      </trkpt>
      <trkpt lat="29.179697" lon="-13.500385">
        <ele>358.392</ele>
        <time>2021-11-04T18:01:21Z</time>
      </trkpt>
      <trkpt lat="29.178893" lon="-13.502072">
        <ele>354.439</ele>
        <time>2021-11-04T18:02:20Z</time>
      </trkpt>
      <trkpt lat="29.174902" lon="-13.506476">
        <ele>368.324</ele>
        <time>2021-11-04T18:04:30Z</time>
      </trkpt>
      <trkpt lat="29.173016" lon="-13.509114">
        <ele>395.726</ele>
        <time>2021-11-04T18:06:45Z</time>
      </trkpt>
      <trkpt lat="29.171965" lon="-13.511052">
        <ele>425.795</ele>
        <time>2021-11-04T18:10:11Z</time>
      </trkpt>
      <trkpt lat="29.171756" lon="-13.510973">
        <ele>430.127</ele>
        <time>2021-11-04T18:11:13Z</time>
      </trkpt>
      <trkpt lat="29.171175" lon="-13.511530">
        <ele>441.414</ele>
        <time>2021-11-04T18:12:16Z</time>
      </trkpt>
      <trkpt lat="29.170435" lon="-13.511247">
        <ele>451.487</ele>
        <time>2021-11-04T18:13:07Z</time>
      </trkpt>
      <trkpt lat="29.170817" lon="-13.510888">
        <ele>455.942</ele>
        <time>2021-11-04T18:13:31Z</time>
      </trkpt>
      <trkpt lat="29.171094" lon="-13.509572">
        <ele>465.926</ele>
        <time>2021-11-04T18:14:23Z</time>
      </trkpt>
      <trkpt lat="29.170273" lon="-13.508958">
        <ele>484.908</ele>
        <time>2021-11-04T18:16:16Z</time>
      </trkpt>
      <trkpt lat="29.170119" lon="-13.510158">
        <ele>493.916</ele>
        <time>2021-11-04T18:17:53Z</time>
      </trkpt>
      <trkpt lat="29.169548" lon="-13.510442">
        <ele>497.026</ele>
        <time>2021-11-04T18:18:13Z</time>
      </trkpt>
      <trkpt lat="29.169307" lon="-13.510878">
        <ele>496.583</ele>
        <time>2021-11-04T18:18:23Z</time>
      </trkpt>
      <trkpt lat="29.169171" lon="-13.512277">
        <ele>505.558</ele>
        <time>2021-11-04T18:18:58Z</time>
      </trkpt>
      <trkpt lat="29.169448" lon="-13.512516">
        <ele>503.350</ele>
        <time>2021-11-04T18:19:23Z</time>
      </trkpt>
      <trkpt lat="29.169996" lon="-13.512177">
        <ele>494.939</ele>
        <time>2021-11-04T18:20:27Z</time>
      </trkpt>
      <trkpt lat="29.170630" lon="-13.512252">
        <ele>484.041</ele>
        <time>2021-11-04T18:22:30Z</time>
      </trkpt>
      <trkpt lat="29.169696" lon="-13.512289">
        <ele>496.248</ele>
        <time>2021-11-04T18:26:34Z</time>
      </trkpt>
      <trkpt lat="29.170006" lon="-13.511746">
        <ele>500.651</ele>
        <time>2021-11-04T18:27:43Z</time>
      </trkpt>
      <trkpt lat="29.169578" lon="-13.512092">
        <ele>503.501</ele>
        <time>2021-11-04T18:28:19Z</time>
      </trkpt>
      <trkpt lat="29.169713" lon="-13.512330">
        <ele>504.611</ele>
        <time>2021-11-04T18:28:43Z</time>
      </trkpt>
      <trkpt lat="29.168879" lon="-13.512838">
        <ele>509.208</ele>
        <time>2021-11-04T18:30:05Z</time>
      </trkpt>
      <trkpt lat="29.168507" lon="-13.513493">
        <ele>510.563</ele>
        <time>2021-11-04T18:31:12Z</time>
      </trkpt>
      <trkpt lat="29.168623" lon="-13.513234">
        <ele>510.473</ele>
        <time>2021-11-04T18:32:11Z</time>
      </trkpt>
      <trkpt lat="29.168130" lon="-13.513303">
        <ele>510.070</ele>
        <time>2021-11-04T18:32:50Z</time>
      </trkpt>
      <trkpt lat="29.168641" lon="-13.513308">
        <ele>510.215</ele>
        <time>2021-11-04T18:48:00Z</time>
      </trkpt>
      <trkpt lat="29.169067" lon="-13.512006">
        <ele>509.983</ele>
        <time>2021-11-05T07:38:41Z</time>
      </trkpt>
      <trkpt lat="29.169244" lon="-13.511964">
        <ele>508.425</ele>
        <time>2021-11-05T07:39:08Z</time>
      </trkpt>
      <trkpt lat="29.169463" lon="-13.510652">
        <ele>497.617</ele>
        <time>2021-11-05T07:39:40Z</time>
      </trkpt>
      <trkpt lat="29.170206" lon="-13.509776">
        <ele>492.808</ele>
        <time>2021-11-05T07:40:44Z</time>
      </trkpt>
      <trkpt lat="29.170200" lon="-13.509028">
        <ele>494.156</ele>
        <time>2021-11-05T07:41:06Z</time>
      </trkpt>
      <trkpt lat="29.170532" lon="-13.507821">
        <ele>483.456</ele>
        <time>2021-11-05T07:42:06Z</time>
      </trkpt>
      <trkpt lat="29.171464" lon="-13.506623">
        <ele>485.673</ele>
        <time>2021-11-05T07:43:28Z</time>
      </trkpt>
      <trkpt lat="29.173701" lon="-13.502757">
        <ele>473.178</ele>
        <time>2021-11-05T07:49:31Z</time>
      </trkpt>
      <trkpt lat="29.175105" lon="-13.501670">
        <ele>465.290</ele>
        <time>2021-11-05T07:50:52Z</time>
      </trkpt>
      <trkpt lat="29.174929" lon="-13.501849">
        <ele>464.419</ele>
        <time>2021-11-05T07:51:14Z</time>
      </trkpt>
      <trkpt lat="29.175305" lon="-13.501826">
        <ele>463.693</ele>
        <time>2021-11-05T07:51:25Z</time>
      </trkpt>
      <trkpt lat="29.174956" lon="-13.501710">
        <ele>465.878</ele>
        <time>2021-11-05T07:52:47Z</time>
      </trkpt>
      <trkpt lat="29.175313" lon="-13.500265">
        <ele>449.141</ele>
        <time>2021-11-05T07:53:34Z</time>
      </trkpt>
      <trkpt lat="29.175777" lon="-13.499571">
        <ele>441.181</ele>
        <time>2021-11-05T07:53:58Z</time>
      </trkpt>
      <trkpt lat="29.175822" lon="-13.499041">
        <ele>437.609</ele>
        <time>2021-11-05T07:54:08Z</time>
      </trkpt>
      <trkpt lat="29.176640" lon="-13.496880">
        <ele>438.808</ele>
        <time>2021-11-05T07:54:59Z</time>
      </trkpt>
      <trkpt lat="29.176333" lon="-13.496527">
        <ele>437.542</ele>
        <time>2021-11-05T07:56:33Z</time>
      </trkpt>
      <trkpt lat="29.176420" lon="-13.496647">
        <ele>438.052</ele>
        <time>2021-11-05T07:56:48Z</time>
      </trkpt>
      <trkpt lat="29.176596" lon="-13.495042">
        <ele>416.479</ele>
        <time>2021-11-05T08:09:31Z</time>
      </trkpt>
      <trkpt lat="29.176863" lon="-13.494729">
        <ele>414.874</ele>
        <time>2021-11-05T08:09:45Z</time>
      </trkpt>
      <trkpt lat="29.176265" lon="-13.494057">
        <ele>405.856</ele>
        <time>2021-11-05T08:10:08Z</time>
      </trkpt>
      <trkpt lat="29.176087" lon="-13.493524">
        <ele>397.355</ele>
        <time>2021-11-05T08:10:28Z</time>
      </trkpt>
      <trkpt lat="29.176823" lon="-13.492370">
        <ele>378.069</ele>
        <time>2021-11-05T08:11:01Z</time>
      </trkpt>
      <trkpt lat="29.178233" lon="-13.492080">
        <ele>370.134</ele>
        <time>2021-11-05T08:11:44Z</time>
      </trkpt>
      <trkpt lat="29.178423" lon="-13.491364">
        <ele>367.742</ele>
        <time>2021-11-05T08:12:06Z</time>
      </trkpt>
      <trkpt lat="29.178337" lon="-13.490497">
        <ele>365.122</ele>
        <time>2021-11-05T08:13:53Z</time>
      </trkpt>
      <trkpt lat="29.180068" lon="-13.490132">
        <ele>371.214</ele>
        <time>2021-11-05T08:14:55Z</time>
      </trkpt>
      <trkpt lat="29.181690" lon="-13.490216">
        <ele>384.808</ele>
        <time>2021-11-05T08:15:56Z</time>
      </trkpt>
      <trkpt lat="29.183722" lon="-13.491208">
        <ele>408.322</ele>
        <time>2021-11-05T08:17:53Z</time>
      </trkpt>
      <trkpt lat="29.186711" lon="-13.491296">
        <ele>395.082</ele>
        <time>2021-11-05T08:19:21Z</time>
      </trkpt>
      <trkpt lat="29.188372" lon="-13.490563">
        <ele>378.089</ele>
        <time>2021-11-05T08:19:36Z</time>
      </trkpt>
      <trkpt lat="29.190516" lon="-13.488689">
        <ele>363.644</ele>
        <time>2021-11-05T08:20:11Z</time>
      </trkpt>
      <trkpt lat="29.192655" lon="-13.488274">
        <ele>366.346</ele>
        <time>2021-11-05T08:21:03Z</time>
      </trkpt>
      <trkpt lat="29.194724" lon="-13.490038">
        <ele>363.915</ele>
        <time>2021-11-05T08:22:19Z</time>
      </trkpt>
      <trkpt lat="29.196817" lon="-13.491306">
        <ele>359.359</ele>
        <time>2021-11-05T08:23:03Z</time>
      </trkpt>
      <trkpt lat="29.197278" lon="-13.491147">
        <ele>359.284</ele>
        <time>2021-11-05T08:23:37Z</time>
      </trkpt>
      <trkpt lat="29.197973" lon="-13.491300">
        <ele>357.977</ele>
        <time>2021-11-05T08:23:54Z</time>
      </trkpt>
      <trkpt lat="29.198297" lon="-13.491795">
        <ele>359.961</ele>
        <time>2021-11-05T08:24:12Z</time>
      </trkpt>
      <trkpt lat="29.199469" lon="-13.491742">
        <ele>374.027</ele>
        <time>2021-11-05T08:24:57Z</time>
      </trkpt>
      <trkpt lat="29.200517" lon="-13.491029">
        <ele>376.308</ele>
        <time>2021-11-05T08:26:05Z</time>
      </trkpt>
      <trkpt lat="29.201144" lon="-13.490068">
        <ele>388.865</ele>
        <time>2021-11-05T08:27:16Z</time>
      </trkpt>
      <trkpt lat="29.202608" lon="-13.489022">
        <ele>395.335</ele>
        <time>2021-11-05T08:28:36Z</time>
      </trkpt>
      <trkpt lat="29.204187" lon="-13.488475">
        <ele>406.972</ele>
        <time>2021-11-05T08:29:48Z</time>
      </trkpt>
      <trkpt lat="29.205675" lon="-13.488756">
        <ele>423.267</ele>
        <time>2021-11-05T08:31:11Z</time>
      </trkpt>
      <trkpt lat="29.206708" lon="-13.487861">
        <ele>436.589</ele>
        <time>2021-11-05T08:32:30Z</time>
      </trkpt>
      <trkpt lat="29.207225" lon="-13.487830">
        <ele>439.478</ele>
        <time>2021-11-05T08:32:55Z</time>
      </trkpt>
      <trkpt lat="29.207172" lon="-13.488126">
        <ele>424.662</ele>
        <time>2021-11-05T08:34:19Z</time>
      </trkpt>
      <trkpt lat="29.207346" lon="-13.488140">
        <ele>431.877</ele>
        <time>2021-11-05T08:34:56Z</time>
      </trkpt>
      <trkpt lat="29.207280" lon="-13.487802">
        <ele>441.334</ele>
        <time>2021-11-05T08:36:18Z</time>
      </trkpt>
      <trkpt lat="29.209069" lon="-13.486707">
        <ele>443.855</ele>
        <time>2021-11-05T08:37:15Z</time>
      </trkpt>
      <trkpt lat="29.211559" lon="-13.483837">
        <ele>441.710</ele>
        <time>2021-11-05T08:38:59Z</time>
      </trkpt>
      <trkpt lat="29.212544" lon="-13.483347">
        <ele>446.208</ele>
        <time>2021-11-05T08:39:37Z</time>
      </trkpt>
      <trkpt lat="29.213067" lon="-13.481769">
        <ele>457.681</ele>
        <time>2021-11-05T08:40:32Z</time>
      </trkpt>
      <trkpt lat="29.213836" lon="-13.480834">
        <ele>470.421</ele>
        <time>2021-11-05T08:41:25Z</time>
      </trkpt>
      <trkpt lat="29.214109" lon="-13.480880">
        <ele>473.528</ele>
        <time>2021-11-05T08:41:40Z</time>
      </trkpt>
      <trkpt lat="29.213796" lon="-13.481086">
        <ele>476.743</ele>
        <time>2021-11-05T08:42:27Z</time>
      </trkpt>
      <trkpt lat="29.214385" lon="-13.481155">
        <ele>477.365</ele>
        <time>2021-11-05T08:45:30Z</time>
      </trkpt>
      <trkpt lat="29.214187" lon="-13.480987">
        <ele>474.854</ele>
        <time>2021-11-05T08:46:37Z</time>
      </trkpt>
      <trkpt lat="29.213559" lon="-13.481294">
        <ele>478.328</ele>
        <time>2021-11-05T08:47:26Z</time>
      </trkpt>
      <trkpt lat="29.211566" lon="-13.481147">
        <ele>449.283</ele>
        <time>2021-11-05T08:48:01Z</time>
      </trkpt>
      <trkpt lat="29.208468" lon="-13.482170">
        <ele>429.286</ele>
        <time>2021-11-05T08:48:28Z</time>
      </trkpt>
      <trkpt lat="29.206951" lon="-13.482008">
        <ele>429.460</ele>
        <time>2021-11-05T08:48:45Z</time>
      </trkpt>
      <trkpt lat="29.205688" lon="-13.481257">
        <ele>403.526</ele>
        <time>2021-11-05T08:48:54Z</time>
      </trkpt>
      <trkpt lat="29.201301" lon="-13.479755">
        <ele>396.108</ele>
        <time>2021-11-05T08:49:41Z</time>
      </trkpt>
      <trkpt lat="29.198723" lon="-13.479909">
        <ele>379.536</ele>
        <time>2021-11-05T08:50:37Z</time>
      </trkpt>
      <trkpt lat="29.196094" lon="-13.478077">
        <ele>369.366</ele>
        <time>2021-11-05T08:51:11Z</time>
      </trkpt>
      <trkpt lat="29.195638" lon="-13.476458">
        <ele>365.193</ele>
        <time>2021-11-05T08:51:46Z</time>
      </trkpt>
      <trkpt lat="29.193089" lon="-13.473665">
        <ele>360.918</ele>
        <time>2021-11-05T08:53:07Z</time>
      </trkpt>
      <trkpt lat="29.191810" lon="-13.473317">
        <ele>356.250</ele>
        <time>2021-11-05T08:53:22Z</time>
      </trkpt>
      <trkpt lat="29.190851" lon="-13.472275">
        <ele>344.639</ele>
        <time>2021-11-05T08:53:35Z</time>
      </trkpt>
      <trkpt lat="29.188348" lon="-13.471030">
        <ele>320.523</ele>
        <time>2021-11-05T08:54:00Z</time>
      </trkpt>
      <trkpt lat="29.185049" lon="-13.473467">
        <ele>305.698</ele>
        <time>2021-11-05T08:55:17Z</time>
      </trkpt>
      <trkpt lat="29.184627" lon="-13.473571">
        <ele>300.977</ele>
        <time>2021-11-05T08:55:22Z</time>
      </trkpt>
      <trkpt lat="29.182822" lon="-13.472522">
        <ele>296.061</ele>
        <time>2021-11-05T08:55:41Z</time>
      </trkpt>
      <trkpt lat="29.181938" lon="-13.471084">
        <ele>285.527</ele>
        <time>2021-11-05T08:55:54Z</time>
      </trkpt>
      <trkpt lat="29.179351" lon="-13.469989">
        <ele>274.708</ele>
        <time>2021-11-05T08:56:26Z</time>
      </trkpt>
      <trkpt lat="29.179752" lon="-13.469619">
        <ele>276.995</ele>
        <time>2021-11-05T08:56:43Z</time>
      </trkpt>
      <trkpt lat="29.180422" lon="-13.469671">
        <ele>275.165</ele>
        <time>2021-11-05T08:56:59Z</time>
      </trkpt>
      <trkpt lat="29.182307" lon="-13.468915">
        <ele>273.482</ele>
        <time>2021-11-05T08:57:56Z</time>
      </trkpt>
      <trkpt lat="29.185854" lon="-13.466411">
        <ele>273.017</ele>
        <time>2021-11-05T08:59:45Z</time>
      </trkpt>
      <trkpt lat="29.186352" lon="-13.464809">
        <ele>265.139</ele>
        <time>2021-11-05T09:00:10Z</time>
      </trkpt>
      <trkpt lat="29.186992" lon="-13.465067">
        <ele>251.338</ele>
        <time>2021-11-05T09:00:18Z</time>
      </trkpt>
      <trkpt lat="29.189884" lon="-13.463836">
        <ele>212.562</ele>
        <time>2021-11-05T09:00:51Z</time>
      </trkpt>
      <trkpt lat="29.191670" lon="-13.462581">
        <ele>201.977</ele>
        <time>2021-11-05T09:01:15Z</time>
      </trkpt>
      <trkpt lat="29.192659" lon="-13.461463">
        <ele>192.774</ele>
        <time>2021-11-05T09:01:29Z</time>
      </trkpt>
      <trkpt lat="29.194395" lon="-13.460332">
        <ele>176.756</ele>
        <time>2021-11-05T09:01:56Z</time>
      </trkpt>
      <trkpt lat="29.195278" lon="-13.460032">
        <ele>169.521</ele>
        <time>2021-11-05T09:02:07Z</time>
      </trkpt>
      <trkpt lat="29.196404" lon="-13.458909">
        <ele>162.208</ele>
        <time>2021-11-05T09:02:25Z</time>
      </trkpt>
      <trkpt lat="29.197038" lon="-13.458613">
        <ele>165.465</ele>
        <time>2021-11-05T09:02:35Z</time>
      </trkpt>
      <trkpt lat="29.197850" lon="-13.456094">
        <ele>145.445</ele>
        <time>2021-11-05T09:03:01Z</time>
      </trkpt>
      <trkpt lat="29.197649" lon="-13.454721">
        <ele>127.542</ele>
        <time>2021-11-05T09:03:13Z</time>
      </trkpt>
      <trkpt lat="29.197045" lon="-13.453923">
        <ele>127.477</ele>
        <time>2021-11-05T09:03:24Z</time>
      </trkpt>
      <trkpt lat="29.197641" lon="-13.453069">
        <ele>112.599</ele>
        <time>2021-11-05T09:03:34Z</time>
      </trkpt>
      <trkpt lat="29.197120" lon="-13.451811">
        <ele>108.778</ele>
        <time>2021-11-05T09:03:47Z</time>
      </trkpt>
      <trkpt lat="29.198967" lon="-13.451288">
        <ele>88.842</ele>
        <time>2021-11-05T09:04:08Z</time>
      </trkpt>
      <trkpt lat="29.200563" lon="-13.452540">
        <ele>72.227</ele>
        <time>2021-11-05T09:04:30Z</time>
      </trkpt>
      <trkpt lat="29.201785" lon="-13.452183">
        <ele>62.545</ele>
        <time>2021-11-05T09:04:43Z</time>
      </trkpt>
      <trkpt lat="29.202784" lon="-13.451608">
        <ele>52.947</ele>
        <time>2021-11-05T09:05:02Z</time>
      </trkpt>
      <trkpt lat="29.204804" lon="-13.451351">
        <ele>51.311</ele>
        <time>2021-11-05T09:05:35Z</time>
      </trkpt>
      <trkpt lat="29.205998" lon="-13.451622">
        <ele>47.408</ele>
        <time>2021-11-05T09:05:53Z</time>
      </trkpt>
      <trkpt lat="29.208422" lon="-13.451733">
        <ele>45.492</ele>
        <time>2021-11-05T09:06:39Z</time>
      </trkpt>
      <trkpt lat="29.213847" lon="-13.450210">
        <ele>27.632</ele>
        <time>2021-11-05T09:08:25Z</time>
      </trkpt>
      <trkpt lat="29.217510" lon="-13.451803">
        <ele>23.649</ele>
        <time>2021-11-05T09:09:37Z</time>
      </trkpt>
      <trkpt lat="29.218431" lon="-13.452441">
        <ele>19.824</ele>
        <time>2021-11-05T09:09:57Z</time>
      </trkpt>
      <trkpt lat="29.221477" lon="-13.452291">
        <ele>14.116</ele>
        <time>2021-11-05T09:11:07Z</time>
      </trkpt>
      <trkpt lat="29.222771" lon="-13.452555">
        <ele>11.335</ele>
        <time>2021-11-05T09:11:42Z</time>
      </trkpt>
      <trkpt lat="29.223590" lon="-13.452423">
        <ele>6.999</ele>
        <time>2021-11-05T09:12:32Z</time>
      </trkpt>
      <trkpt lat="29.222958" lon="-13.452353">
        <ele>9.824</ele>
        <time>2021-11-05T09:15:39Z</time>
      </trkpt>
      <trkpt lat="29.222913" lon="-13.452515">
        <ele>10.616</ele>
        <time>2021-11-05T09:17:33Z</time>
      </trkpt>
      <trkpt lat="29.222846" lon="-13.452214">
        <ele>10.876</ele>
        <time>2021-11-05T09:30:39Z</time>
      </trkpt>
      <trkpt lat="29.222807" lon="-13.452499">
        <ele>10.913</ele>
        <time>2021-11-05T09:31:41Z</time>
      </trkpt>
      <trkpt lat="29.222921" lon="-13.452311">
        <ele>10.108</ele>
        <time>2021-11-05T09:32:01Z</time>
      </trkpt>
      <trkpt lat="29.223505" lon="-13.452317">
        <ele>7.179</ele>
        <time>2021-11-05T09:47:05Z</time>
      </trkpt>
      <trkpt lat="29.223558" lon="-13.451901">
        <ele>7.069</ele>
        <time>2021-11-05T10:01:55Z</time>
      </trkpt>
      <trkpt lat="29.224011" lon="-13.451232">
        <ele>0.096</ele>
        <time>2021-11-05T10:03:08Z</time>
      </trkpt>
      <trkpt lat="29.224243" lon="-13.451848">
        <ele>1.921</ele>
        <time>2021-11-05T10:03:45Z</time>
      </trkpt>
      <trkpt lat="29.226025" lon="-13.452851">
        <ele>0.753</ele>
        <time>2021-11-05T10:04:35Z</time>
      </trkpt>
      <trkpt lat="29.226797" lon="-13.453514">
        <ele>0.032</ele>
        <time>2021-11-05T10:05:02Z</time>
      </trkpt>
      <trkpt lat="29.227804" lon="-13.453788">
        <ele>0.036</ele>
        <time>2021-11-05T10:05:27Z</time>
      </trkpt>
      <trkpt lat="29.228826" lon="-13.453764">
        <ele>0.041</ele>
        <time>2021-11-05T10:05:54Z</time>
      </trkpt>
      <trkpt lat="29.230601" lon="-13.454270">
        <ele>0.044</ele>
        <time>2021-11-05T10:06:44Z</time>
      </trkpt>
      <trkpt lat="29.234110" lon="-13.454676">
        <ele>0.005</ele>
        <time>2021-11-05T10:08:30Z</time>
      </trkpt>
      <trkpt lat="29.234514" lon="-13.455030">
        <ele>0.015</ele>
        <time>2021-11-05T10:08:45Z</time>
      </trkpt>
      <trkpt lat="29.235706" lon="-13.457627">
        <ele>0.008</ele>
        <time>2021-11-05T10:09:39Z</time>
      </trkpt>
      <trkpt lat="29.236691" lon="-13.458892">
        <ele>0.052</ele>
        <time>2021-11-05T10:10:14Z</time>
      </trkpt>
      <trkpt lat="29.239529" lon="-13.463898">
        <ele>0.072</ele>
        <time>2021-11-05T10:12:12Z</time>
      </trkpt>
      <trkpt lat="29.240257" lon="-13.464613">
        <ele>0.039</ele>
        <time>2021-11-05T10:12:32Z</time>
      </trkpt>
      <trkpt lat="29.240864" lon="-13.465822">
        <ele>0.094</ele>
        <time>2021-11-05T10:13:00Z</time>
      </trkpt>
      <trkpt lat="29.241796" lon="-13.466922">
        <ele>0.096</ele>
        <time>2021-11-05T10:13:30Z</time>
      </trkpt>
      <trkpt lat="29.242241" lon="-13.467839">
        <ele>0.045</ele>
        <time>2021-11-05T10:13:50Z</time>
      </trkpt>
      <trkpt lat="29.242841" lon="-13.469947">
        <ele>0.049</ele>
        <time>2021-11-05T10:14:37Z</time>
      </trkpt>
      <trkpt lat="29.242792" lon="-13.471900">
        <ele>0.044</ele>
        <time>2021-11-05T10:15:17Z</time>
      </trkpt>
      <trkpt lat="29.242981" lon="-13.472221">
        <ele>0.096</ele>
        <time>2021-11-05T10:15:23Z</time>
      </trkpt>
      <trkpt lat="29.243106" lon="-13.474939">
        <ele>0.031</ele>
        <time>2021-11-05T10:16:18Z</time>
      </trkpt>
      <trkpt lat="29.242658" lon="-13.480115">
        <ele>0.024</ele>
        <time>2021-11-05T10:18:02Z</time>
      </trkpt>
      <trkpt lat="29.241213" lon="-13.483886">
        <ele>0.008</ele>
        <time>2021-11-05T10:19:27Z</time>
      </trkpt>
      <trkpt lat="29.239764" lon="-13.486594">
        <ele>0.077</ele>
        <time>2021-11-05T10:20:31Z</time>
      </trkpt>
      <trkpt lat="29.237777" lon="-13.489664">
        <ele>0.037</ele>
        <time>2021-11-05T10:21:50Z</time>
      </trkpt>
      <trkpt lat="29.236675" lon="-13.490826">
        <ele>0.014</ele>
        <time>2021-11-05T10:22:22Z</time>
      </trkpt>
      <trkpt lat="29.234437" lon="-13.493793">
        <ele>0.089</ele>
        <time>2021-11-05T10:23:47Z</time>
      </trkpt>
      <trkpt lat="29.233897" lon="-13.494238">
        <ele>0.091</ele>
        <time>2021-11-05T10:24:04Z</time>
      </trkpt>
      <trkpt lat="29.231702" lon="-13.497169">
        <ele>0.060</ele>
        <time>2021-11-05T10:25:30Z</time>
      </trkpt>
      <trkpt lat="29.231297" lon="-13.497293">
        <ele>0.044</ele>
        <time>2021-11-05T10:25:43Z</time>
      </trkpt>
      <trkpt lat="29.230635" lon="-13.497950">
        <ele>0.049</ele>
        <time>2021-11-05T10:26:01Z</time>
      </trkpt>
      <trkpt lat="29.230162" lon="-13.498097">
        <ele>0.023</ele>
        <time>2021-11-05T10:26:14Z</time>
      </trkpt>
      <trkpt lat="29.229622" lon="-13.498597">
        <ele>0.083</ele>
        <time>2021-11-05T10:26:29Z</time>
      </trkpt>
      <trkpt lat="29.227810" lon="-13.499524">
        <ele>0.011</ele>
        <time>2021-11-05T10:27:17Z</time>
      </trkpt>
      <trkpt lat="29.226472" lon="-13.500507">
        <ele>0.008</ele>
        <time>2021-11-05T10:28:08Z</time>
      </trkpt>
      <trkpt lat="29.226065" lon="-13.501279">
        <ele>0.050</ele>
        <time>2021-11-05T10:28:39Z</time>
      </trkpt>
      <trkpt lat="29.226417" lon="-13.501878">
        <ele>0.220</ele>
        <time>2021-11-05T10:29:09Z</time>
      </trkpt>
      <trkpt lat="29.228213" lon="-13.502062">
        <ele>2.967</ele>
        <time>2021-11-05T10:31:54Z</time>
      </trkpt>
      <trkpt lat="29.228339" lon="-13.502340">
        <ele>-2.722</ele>
        <time>2021-11-05T10:32:39Z</time>
      </trkpt>
      <trkpt lat="29.228400" lon="-13.502069">
        <ele>0.024</ele>
        <time>2021-11-05T10:33:51Z</time>
      </trkpt>
      <trkpt lat="29.228687" lon="-13.501979">
        <ele>-3.073</ele>
        <time>2021-11-05T10:34:32Z</time>
      </trkpt>
      <trkpt lat="29.230126" lon="-13.502437">
        <ele>5.787</ele>
        <time>2021-11-05T10:42:55Z</time>
      </trkpt>
      <trkpt lat="29.230044" lon="-13.502984">
        <ele>3.152</ele>
        <time>2021-11-05T10:43:58Z</time>
      </trkpt>
      <trkpt lat="29.230204" lon="-13.503452">
        <ele>3.791</ele>
        <time>2021-11-05T10:44:18Z</time>
      </trkpt>
      <trkpt lat="29.230388" lon="-13.503371">
        <ele>5.981</ele>
        <time>2021-11-05T10:52:00Z</time>
      </trkpt>
      <trkpt lat="29.230662" lon="-13.503727">
        <ele>5.419</ele>
        <time>2021-11-05T10:52:43Z</time>
      </trkpt>
      <trkpt lat="29.232108" lon="-13.504270">
        <ele>14.108</ele>
        <time>2021-11-05T10:53:50Z</time>
      </trkpt>
      <trkpt lat="29.232031" lon="-13.504529">
        <ele>14.897</ele>
        <time>2021-11-05T10:54:04Z</time>
      </trkpt>
      <trkpt lat="29.232344" lon="-13.504393">
        <ele>14.937</ele>
        <time>2021-11-05T10:54:48Z</time>
      </trkpt>
      <trkpt lat="29.233602" lon="-13.502880">
        <ele>12.974</ele>
        <time>2021-11-05T10:55:58Z</time>
      </trkpt>
      <trkpt lat="29.236921" lon="-13.502641">
        <ele>26.529</ele>
        <time>2021-11-05T10:58:33Z</time>
      </trkpt>
      <trkpt lat="29.242823" lon="-13.502783">
        <ele>35.161</ele>
        <time>2021-11-05T11:02:14Z</time>
      </trkpt>
      <trkpt lat="29.244381" lon="-13.503048">
        <ele>32.050</ele>
        <time>2021-11-05T11:03:33Z</time>
      </trkpt>
      <trkpt lat="29.245194" lon="-13.504094">
        <ele>35.334</ele>
        <time>2021-11-05T11:04:15Z</time>
      </trkpt>
      <trkpt lat="29.245215" lon="-13.505851">
        <ele>34.659</ele>
        <time>2021-11-05T11:04:56Z</time>
      </trkpt>
      <trkpt lat="29.246227" lon="-13.509238">
        <ele>38.436</ele>
        <time>2021-11-05T11:06:23Z</time>
      </trkpt>
      <trkpt lat="29.246413" lon="-13.506938">
        <ele>44.517</ele>
        <time>2021-11-05T11:08:20Z</time>
      </trkpt>
      <trkpt lat="29.247047" lon="-13.503944">
        <ele>51.918</ele>
        <time>2021-11-05T11:09:48Z</time>
      </trkpt>
      <trkpt lat="29.248679" lon="-13.501308">
        <ele>55.808</ele>
        <time>2021-11-05T11:11:19Z</time>
      </trkpt>
      <trkpt lat="29.250394" lon="-13.499415">
        <ele>54.961</ele>
        <time>2021-11-05T11:12:25Z</time>
      </trkpt>
      <trkpt lat="29.254904" lon="-13.496316">
        <ele>71.671</ele>
        <time>2021-11-05T11:15:40Z</time>
      </trkpt>
      <trkpt lat="29.256997" lon="-13.493615">
        <ele>79.858</ele>
        <time>2021-11-05T11:17:53Z</time>
      </trkpt>
      <trkpt lat="29.257099" lon="-13.492993">
        <ele>72.583</ele>
        <time>2021-11-05T11:18:11Z</time>
      </trkpt>
      <trkpt lat="29.257937" lon="-13.491833">
        <ele>74.245</ele>
        <time>2021-11-05T11:19:19Z</time>
      </trkpt>
      <trkpt lat="29.258015" lon="-13.491460">
        <ele>73.714</ele>
        <time>2021-11-05T11:19:39Z</time>
      </trkpt>
      <trkpt lat="29.257518" lon="-13.490923">
        <ele>64.598</ele>
        <time>2021-11-05T11:20:29Z</time>
      </trkpt>
      <trkpt lat="29.257471" lon="-13.490618">
        <ele>62.833</ele>
        <time>2021-11-05T11:21:23Z</time>
      </trkpt>
      <trkpt lat="29.257338" lon="-13.490883">
        <ele>62.186</ele>
        <time>2021-11-05T11:22:42Z</time>
      </trkpt>
      <trkpt lat="29.257114" lon="-13.490660">
        <ele>58.460</ele>
        <time>2021-11-05T11:23:18Z</time>
      </trkpt>
      <trkpt lat="29.257547" lon="-13.490819">
        <ele>64.326</ele>
        <time>2021-11-05T11:24:51Z</time>
      </trkpt>
      <trkpt lat="29.258038" lon="-13.491484">
        <ele>74.108</ele>
        <time>2021-11-05T11:26:09Z</time>
      </trkpt>
      <trkpt lat="29.258375" lon="-13.490866">
        <ele>73.626</ele>
        <time>2021-11-05T11:27:14Z</time>
      </trkpt>
      <trkpt lat="29.259239" lon="-13.490058">
        <ele>64.846</ele>
        <time>2021-11-05T11:27:51Z</time>
      </trkpt>
      <trkpt lat="29.259691" lon="-13.489152">
        <ele>60.453</ele>
        <time>2021-11-05T11:28:16Z</time>
      </trkpt>
      <trkpt lat="29.260766" lon="-13.488500">
        <ele>57.348</ele>
        <time>2021-11-05T11:28:47Z</time>
      </trkpt>
      <trkpt lat="29.261446" lon="-13.488392">
        <ele>56.850</ele>
        <time>2021-11-05T11:29:07Z</time>
      </trkpt>
      <trkpt lat="29.262084" lon="-13.488004">
        <ele>55.019</ele>
        <time>2021-11-05T11:30:07Z</time>
      </trkpt>
      <trkpt lat="29.264855" lon="-13.485272">
        <ele>47.423</ele>
        <time>2021-11-05T11:32:36Z</time>
      </trkpt>
      <trkpt lat="29.264762" lon="-13.484443">
        <ele>40.848</ele>
        <time>2021-11-05T11:33:08Z</time>
      </trkpt>
      <trkpt lat="29.265255" lon="-13.484033">
        <ele>33.182</ele>
        <time>2021-11-05T11:33:37Z</time>
      </trkpt>
      <trkpt lat="29.265442" lon="-13.483582">
        <ele>29.243</ele>
        <time>2021-11-05T11:33:49Z</time>
      </trkpt>
      <trkpt lat="29.265331" lon="-13.481946">
        <ele>26.617</ele>
        <time>2021-11-05T11:35:56Z</time>
      </trkpt>
      <trkpt lat="29.264641" lon="-13.481081">
        <ele>22.008</ele>
        <time>2021-11-05T11:36:30Z</time>
      </trkpt>
      <trkpt lat="29.263984" lon="-13.480675">
        <ele>20.136</ele>
        <time>2021-11-05T11:36:51Z</time>
      </trkpt>
      <trkpt lat="29.263538" lon="-13.480021">
        <ele>16.326</ele>
        <time>2021-11-05T11:37:41Z</time>
      </trkpt>
      <trkpt lat="29.262682" lon="-13.479519">
        <ele>13.153</ele>
        <time>2021-11-05T11:38:08Z</time>
      </trkpt>
      <trkpt lat="29.261664" lon="-13.478076">
        <ele>10.818</ele>
        <time>2021-11-05T11:39:10Z</time>
      </trkpt>
      <trkpt lat="29.261342" lon="-13.477060">
        <ele>6.990</ele>
        <time>2021-11-05T11:41:15Z</time>
      </trkpt>
      <trkpt lat="29.261522" lon="-13.477100">
        <ele>8.459</ele>
        <time>2021-11-05T11:53:26Z</time>
      </trkpt>
      <trkpt lat="29.261917" lon="-13.475686">
        <ele>5.893</ele>
        <time>2021-11-05T11:55:03Z</time>
      </trkpt>
      <trkpt lat="29.262061" lon="-13.475811">
        <ele>7.348</ele>
        <time>2021-11-05T11:55:31Z</time>
      </trkpt>
      <trkpt lat="29.263254" lon="-13.474845">
        <ele>5.953</ele>
        <time>2021-11-05T11:58:20Z</time>
      </trkpt>
      <trkpt lat="29.264087" lon="-13.474592">
        <ele>8.404</ele>
        <time>2021-11-05T12:01:48Z</time>
      </trkpt>
      <trkpt lat="29.264060" lon="-13.473534">
        <ele>6.114</ele>
        <time>2021-11-05T12:03:04Z</time>
      </trkpt>
      <trkpt lat="29.264652" lon="-13.472849">
        <ele>4.408</ele>
        <time>2021-11-05T12:04:31Z</time>
      </trkpt>
      <trkpt lat="29.265950" lon="-13.472615">
        <ele>5.593</ele>
        <time>2021-11-05T12:05:54Z</time>
      </trkpt>
      <trkpt lat="29.266439" lon="-13.472971">
        <ele>7.663</ele>
        <time>2021-11-05T12:07:01Z</time>
      </trkpt>
      <trkpt lat="29.268145" lon="-13.473246">
        <ele>9.060</ele>
        <time>2021-11-05T12:11:07Z</time>
      </trkpt>
      <trkpt lat="29.269727" lon="-13.474030">
        <ele>9.565</ele>
        <time>2021-11-05T12:14:08Z</time>
      </trkpt>
      <trkpt lat="29.270579" lon="-13.474777">
        <ele>5.097</ele>
        <time>2021-11-05T12:16:02Z</time>
      </trkpt>
      <trkpt lat="29.271089" lon="-13.475534">
        <ele>3.166</ele>
        <time>2021-11-05T12:16:49Z</time>
      </trkpt>
      <trkpt lat="29.271219" lon="-13.476262">
        <ele>6.730</ele>
        <time>2021-11-05T12:17:22Z</time>
      </trkpt>
      <trkpt lat="29.271683" lon="-13.476579">
        <ele>3.785</ele>
        <time>2021-11-05T12:17:48Z</time>
      </trkpt>
      <trkpt lat="29.272751" lon="-13.478441">
        <ele>8.017</ele>
        <time>2021-11-05T12:18:54Z</time>
      </trkpt>
      <trkpt lat="29.272008" lon="-13.480289">
        <ele>8.887</ele>
        <time>2021-11-05T12:20:19Z</time>
      </trkpt>
      <trkpt lat="29.270224" lon="-13.481668">
        <ele>21.415</ele>
        <time>2021-11-05T12:21:28Z</time>
      </trkpt>
      <trkpt lat="29.268809" lon="-13.483785">
        <ele>31.208</ele>
        <time>2021-11-05T12:22:46Z</time>
      </trkpt>
      <trkpt lat="29.270780" lon="-13.484078">
        <ele>28.119</ele>
        <time>2021-11-05T12:24:38Z</time>
      </trkpt>
      <trkpt lat="29.271374" lon="-13.484665">
        <ele>19.839</ele>
        <time>2021-11-05T12:25:03Z</time>
      </trkpt>
      <trkpt lat="29.272881" lon="-13.485439">
        <ele>15.856</ele>
        <time>2021-11-05T12:26:25Z</time>
      </trkpt>
      <trkpt lat="29.274946" lon="-13.487202">
        <ele>12.841</ele>
        <time>2021-11-05T12:27:38Z</time>
      </trkpt>
      <trkpt lat="29.278407" lon="-13.488146">
        <ele>9.833</ele>
        <time>2021-11-05T12:30:06Z</time>
      </trkpt>
      <trkpt lat="29.278600" lon="-13.488653">
        <ele>7.712</ele>
        <time>2021-11-05T12:30:20Z</time>
      </trkpt>
      <trkpt lat="29.278184" lon="-13.491307">
        <ele>7.056</ele>
        <time>2021-11-05T12:32:31Z</time>
      </trkpt>
      <trkpt lat="29.278402" lon="-13.491541">
        <ele>5.191</ele>
        <time>2021-11-05T12:33:16Z</time>
      </trkpt>
      <trkpt lat="29.277961" lon="-13.492011">
        <ele>7.099</ele>
        <time>2021-11-05T12:33:50Z</time>
      </trkpt>
      <trkpt lat="29.277862" lon="-13.493225">
        <ele>12.207</ele>
        <time>2021-11-05T12:35:09Z</time>
      </trkpt>
      <trkpt lat="29.277344" lon="-13.494588">
        <ele>19.327</ele>
        <time>2021-11-05T12:36:34Z</time>
      </trkpt>
      <trkpt lat="29.277394" lon="-13.495081">
        <ele>18.308</ele>
        <time>2021-11-05T12:37:09Z</time>
      </trkpt>
      <trkpt lat="29.278546" lon="-13.496550">
        <ele>17.137</ele>
        <time>2021-11-05T12:38:46Z</time>
      </trkpt>
      <trkpt lat="29.278634" lon="-13.497003">
        <ele>14.247</ele>
        <time>2021-11-05T12:39:06Z</time>
      </trkpt>
      <trkpt lat="29.279103" lon="-13.497414">
        <ele>20.744</ele>
        <time>2021-11-05T12:39:23Z</time>
      </trkpt>
      <trkpt lat="29.281459" lon="-13.496994">
        <ele>7.119</ele>
        <time>2021-11-05T12:41:08Z</time>
      </trkpt>
      <trkpt lat="29.282735" lon="-13.498115">
        <ele>4.151</ele>
        <time>2021-11-05T12:42:05Z</time>
      </trkpt>
      <trkpt lat="29.281569" lon="-13.499032">
        <ele>10.970</ele>
        <time>2021-11-05T12:43:25Z</time>
      </trkpt>
      <trkpt lat="29.279909" lon="-13.501091">
        <ele>7.094</ele>
        <time>2021-11-05T12:44:42Z</time>
      </trkpt>
      <trkpt lat="29.279511" lon="-13.502043">
        <ele>14.099</ele>
        <time>2021-11-05T12:45:15Z</time>
      </trkpt>
      <trkpt lat="29.278930" lon="-13.502686">
        <ele>18.094</ele>
        <time>2021-11-05T12:45:34Z</time>
      </trkpt>
      <trkpt lat="29.278385" lon="-13.502942">
        <ele>18.757</ele>
        <time>2021-11-05T12:45:49Z</time>
      </trkpt>
      <trkpt lat="29.277417" lon="-13.504421">
        <ele>21.222</ele>
        <time>2021-11-05T12:46:35Z</time>
      </trkpt>
      <trkpt lat="29.276064" lon="-13.505547">
        <ele>16.008</ele>
        <time>2021-11-05T12:47:14Z</time>
      </trkpt>
      <trkpt lat="29.274119" lon="-13.506647">
        <ele>21.137</ele>
        <time>2021-11-05T12:48:06Z</time>
      </trkpt>
      <trkpt lat="29.272960" lon="-13.508191">
        <ele>25.017</ele>
        <time>2021-11-05T12:48:54Z</time>
      </trkpt>
      <trkpt lat="29.270277" lon="-13.511072">
        <ele>35.484</ele>
        <time>2021-11-05T12:50:30Z</time>
      </trkpt>
      <trkpt lat="29.269483" lon="-13.513620">
        <ele>24.549</ele>
        <time>2021-11-05T12:51:32Z</time>
      </trkpt>
      <trkpt lat="29.269567" lon="-13.514331">
        <ele>28.291</ele>
        <time>2021-11-05T12:52:22Z</time>
      </trkpt>
      <trkpt lat="29.269332" lon="-13.515410">
        <ele>23.490</ele>
        <time>2021-11-05T12:52:41Z</time>
      </trkpt>
      <trkpt lat="29.269465" lon="-13.516413">
        <ele>20.864</ele>
        <time>2021-11-05T12:53:04Z</time>
      </trkpt>
      <trkpt lat="29.269719" lon="-13.516480">
        <ele>20.039</ele>
        <time>2021-11-05T12:53:12Z</time>
      </trkpt>
      <trkpt lat="29.270937" lon="-13.515525">
        <ele>21.724</ele>
        <time>2021-11-05T12:53:58Z</time>
      </trkpt>
      <trkpt lat="29.273136" lon="-13.514657">
        <ele>24.704</ele>
        <time>2021-11-05T12:55:23Z</time>
      </trkpt>
      <trkpt lat="29.272967" lon="-13.514814">
        <ele>24.114</ele>
        <time>2021-11-05T12:58:11Z</time>
      </trkpt>
      <trkpt lat="29.273300" lon="-13.515249">
        <ele>23.208</ele>
        <time>2021-11-05T12:58:56Z</time>
      </trkpt>
      <trkpt lat="29.273941" lon="-13.515589">
        <ele>13.840</ele>
        <time>2021-11-05T13:00:11Z</time>
      </trkpt>
      <trkpt lat="29.274330" lon="-13.516729">
        <ele>5.030</ele>
        <time>2021-11-05T13:02:22Z</time>
      </trkpt>
      <trkpt lat="29.274617" lon="-13.516675">
        <ele>0.047</ele>
        <time>2021-11-05T13:03:13Z</time>
      </trkpt>
      <trkpt lat="29.274426" lon="-13.516684">
        <ele>0.852</ele>
        <time>2021-11-05T13:06:52Z</time>
      </trkpt>
      <trkpt lat="29.274205" lon="-13.516233">
        <ele>9.524</ele>
        <time>2021-11-05T13:08:19Z</time>
      </trkpt>
      <trkpt lat="29.273746" lon="-13.516001">
        <ele>8.723</ele>
        <time>2021-11-05T13:09:48Z</time>
      </trkpt>
      <trkpt lat="29.273028" lon="-13.514669">
        <ele>24.597</ele>
        <time>2021-11-05T13:12:15Z</time>
      </trkpt>
      <trkpt lat="29.271318" lon="-13.515274">
        <ele>24.852</ele>
        <time>2021-11-05T13:15:46Z</time>
      </trkpt>
      <trkpt lat="29.269412" lon="-13.516459">
        <ele>20.634</ele>
        <time>2021-11-05T13:16:38Z</time>
      </trkpt>
      <trkpt lat="29.269292" lon="-13.515995">
        <ele>23.555</ele>
        <time>2021-11-05T13:16:54Z</time>
      </trkpt>
      <trkpt lat="29.269494" lon="-13.513687">
        <ele>24.710</ele>
        <time>2021-11-05T13:18:03Z</time>
      </trkpt>
      <trkpt lat="29.270408" lon="-13.510881">
        <ele>33.008</ele>
        <time>2021-11-05T13:19:20Z</time>
      </trkpt>
      <trkpt lat="29.274489" lon="-13.506477">
        <ele>20.371</ele>
        <time>2021-11-05T13:22:01Z</time>
      </trkpt>
      <trkpt lat="29.276226" lon="-13.505464">
        <ele>16.451</ele>
        <time>2021-11-05T13:22:53Z</time>
      </trkpt>
      <trkpt lat="29.278516" lon="-13.502822">
        <ele>16.938</ele>
        <time>2021-11-05T13:24:36Z</time>
      </trkpt>
      <trkpt lat="29.279099" lon="-13.502536">
        <ele>19.933</ele>
        <time>2021-11-05T13:24:54Z</time>
      </trkpt>
      <trkpt lat="29.279613" lon="-13.501877">
        <ele>12.965</ele>
        <time>2021-11-05T13:25:13Z</time>
      </trkpt>
      <trkpt lat="29.279969" lon="-13.500937">
        <ele>6.924</ele>
        <time>2021-11-05T13:25:38Z</time>
      </trkpt>
      <trkpt lat="29.280998" lon="-13.499947">
        <ele>10.888</ele>
        <time>2021-11-05T13:26:33Z</time>
      </trkpt>
      <trkpt lat="29.281516" lon="-13.499092">
        <ele>11.323</ele>
        <time>2021-11-05T13:26:57Z</time>
      </trkpt>
      <trkpt lat="29.283006" lon="-13.498128">
        <ele>3.748</ele>
        <time>2021-11-05T13:27:37Z</time>
      </trkpt>
      <trkpt lat="29.282422" lon="-13.497950">
        <ele>4.561</ele>
        <time>2021-11-05T13:30:52Z</time>
      </trkpt>
      <trkpt lat="29.282099" lon="-13.497461">
        <ele>4.517</ele>
        <time>2021-11-05T13:31:06Z</time>
      </trkpt>
      <trkpt lat="29.281402" lon="-13.497068">
        <ele>8.308</ele>
        <time>2021-11-05T13:31:34Z</time>
      </trkpt>
      <trkpt lat="29.279127" lon="-13.497445">
        <ele>20.912</ele>
        <time>2021-11-05T13:33:24Z</time>
      </trkpt>
      <trkpt lat="29.278571" lon="-13.496642">
        <ele>16.092</ele>
        <time>2021-11-05T13:33:57Z</time>
      </trkpt>
      <trkpt lat="29.277871" lon="-13.496156">
        <ele>22.019</ele>
        <time>2021-11-05T13:34:33Z</time>
      </trkpt>
      <trkpt lat="29.277285" lon="-13.495000">
        <ele>19.394</ele>
        <time>2021-11-05T13:35:26Z</time>
      </trkpt>
      <trkpt lat="29.277301" lon="-13.494419">
        <ele>19.696</ele>
        <time>2021-11-05T13:35:57Z</time>
      </trkpt>
      <trkpt lat="29.277881" lon="-13.493104">
        <ele>9.945</ele>
        <time>2021-11-05T13:37:10Z</time>
      </trkpt>
      <trkpt lat="29.277898" lon="-13.492237">
        <ele>6.679</ele>
        <time>2021-11-05T13:38:01Z</time>
      </trkpt>
      <trkpt lat="29.278148" lon="-13.491480">
        <ele>6.354</ele>
        <time>2021-11-05T13:38:29Z</time>
      </trkpt>
      <trkpt lat="29.278085" lon="-13.490306">
        <ele>10.264</ele>
        <time>2021-11-05T13:39:02Z</time>
      </trkpt>
      <trkpt lat="29.278597" lon="-13.488623">
        <ele>8.006</ele>
        <time>2021-11-05T13:40:22Z</time>
      </trkpt>
      <trkpt lat="29.278343" lon="-13.488071">
        <ele>9.116</ele>
        <time>2021-11-05T13:40:35Z</time>
      </trkpt>
      <trkpt lat="29.277406" lon="-13.487870">
        <ele>12.808</ele>
        <time>2021-11-05T13:40:55Z</time>
      </trkpt>
      <trkpt lat="29.277107" lon="-13.488028">
        <ele>13.664</ele>
        <time>2021-11-05T13:41:15Z</time>
      </trkpt>
      <trkpt lat="29.275295" lon="-13.487350">
        <ele>11.314</ele>
        <time>2021-11-05T13:42:37Z</time>
      </trkpt>
      <trkpt lat="29.272854" lon="-13.485407">
        <ele>15.961</ele>
        <time>2021-11-05T13:43:59Z</time>
      </trkpt>
      <trkpt lat="29.271052" lon="-13.484449">
        <ele>20.776</ele>
        <time>2021-11-05T13:45:14Z</time>
      </trkpt>
      <trkpt lat="29.270719" lon="-13.484049">
        <ele>28.728</ele>
        <time>2021-11-05T13:45:29Z</time>
      </trkpt>
      <trkpt lat="29.269382" lon="-13.483983">
        <ele>19.847</ele>
        <time>2021-11-05T13:46:00Z</time>
      </trkpt>
      <trkpt lat="29.268009" lon="-13.483423">
        <ele>27.611</ele>
        <time>2021-11-05T13:46:43Z</time>
      </trkpt>
      <trkpt lat="29.265682" lon="-13.483588">
        <ele>28.096</ele>
        <time>2021-11-05T13:47:54Z</time>
      </trkpt>
      <trkpt lat="29.265224" lon="-13.484206">
        <ele>34.824</ele>
        <time>2021-11-05T13:48:16Z</time>
      </trkpt>
      <trkpt lat="29.264793" lon="-13.484399">
        <ele>40.004</ele>
        <time>2021-11-05T13:48:35Z</time>
      </trkpt>
      <trkpt lat="29.264878" lon="-13.485178">
        <ele>46.614</ele>
        <time>2021-11-05T13:49:14Z</time>
      </trkpt>
      <trkpt lat="29.264338" lon="-13.485974">
        <ele>53.108</ele>
        <time>2021-11-05T13:49:52Z</time>
      </trkpt>
      <trkpt lat="29.263414" lon="-13.486628">
        <ele>55.360</ele>
        <time>2021-11-05T13:50:11Z</time>
      </trkpt>
      <trkpt lat="29.262103" lon="-13.488024">
        <ele>55.040</ele>
        <time>2021-11-05T13:50:56Z</time>
      </trkpt>
      <trkpt lat="29.261467" lon="-13.488413">
        <ele>57.127</ele>
        <time>2021-11-05T13:51:18Z</time>
      </trkpt>
      <trkpt lat="29.260479" lon="-13.488652">
        <ele>58.562</ele>
        <time>2021-11-05T13:51:39Z</time>
      </trkpt>
      <trkpt lat="29.259647" lon="-13.489226">
        <ele>60.844</ele>
        <time>2021-11-05T13:52:04Z</time>
      </trkpt>
      <trkpt lat="29.259167" lon="-13.490166">
        <ele>66.483</ele>
        <time>2021-11-05T13:52:34Z</time>
      </trkpt>
      <trkpt lat="29.258316" lon="-13.490967">
        <ele>74.627</ele>
        <time>2021-11-05T13:53:27Z</time>
      </trkpt>
      <trkpt lat="29.258103" lon="-13.491694">
        <ele>75.932</ele>
        <time>2021-11-05T13:53:50Z</time>
      </trkpt>
      <trkpt lat="29.257143" lon="-13.492978">
        <ele>73.522</ele>
        <time>2021-11-05T13:54:26Z</time>
      </trkpt>
      <trkpt lat="29.257072" lon="-13.493540">
        <ele>80.962</ele>
        <time>2021-11-05T13:54:38Z</time>
      </trkpt>
      <trkpt lat="29.254935" lon="-13.496373">
        <ele>73.308</ele>
        <time>2021-11-05T13:55:48Z</time>
      </trkpt>
      <trkpt lat="29.251097" lon="-13.498859">
        <ele>57.608</ele>
        <time>2021-11-05T13:57:00Z</time>
      </trkpt>
      <trkpt lat="29.249321" lon="-13.500579">
        <ele>54.370</ele>
        <time>2021-11-05T13:57:47Z</time>
      </trkpt>
      <trkpt lat="29.247561" lon="-13.503007">
        <ele>54.850</ele>
        <time>2021-11-05T13:58:46Z</time>
      </trkpt>
      <trkpt lat="29.247111" lon="-13.503909">
        <ele>52.587</ele>
        <time>2021-11-05T13:59:03Z</time>
      </trkpt>
      <trkpt lat="29.246171" lon="-13.508928">
        <ele>36.882</ele>
        <time>2021-11-05T14:00:37Z</time>
      </trkpt>
      <trkpt lat="29.245193" lon="-13.505031">
        <ele>34.464</ele>
        <time>2021-11-05T14:01:54Z</time>
      </trkpt>
      <trkpt lat="29.244987" lon="-13.504815">
        <ele>35.053</ele>
        <time>2021-11-05T14:02:06Z</time>
      </trkpt>
      <trkpt lat="29.245186" lon="-13.504726">
        <ele>33.797</ele>
        <time>2021-11-05T14:02:51Z</time>
      </trkpt>
      <trkpt lat="29.245218" lon="-13.504089">
        <ele>35.282</ele>
        <time>2021-11-05T14:03:06Z</time>
      </trkpt>
      <trkpt lat="29.244254" lon="-13.502981">
        <ele>31.943</ele>
        <time>2021-11-05T14:03:32Z</time>
      </trkpt>
      <trkpt lat="29.238516" lon="-13.502635">
        <ele>26.564</ele>
        <time>2021-11-05T14:06:21Z</time>
      </trkpt>
      <trkpt lat="29.233533" lon="-13.502908">
        <ele>12.310</ele>
        <time>2021-11-05T14:07:51Z</time>
      </trkpt>
      <trkpt lat="29.232296" lon="-13.504453">
        <ele>15.008</ele>
        <time>2021-11-05T14:08:31Z</time>
      </trkpt>
      <trkpt lat="29.230580" lon="-13.503650">
        <ele>4.372</ele>
        <time>2021-11-05T14:09:23Z</time>
      </trkpt>
      <trkpt lat="29.230159" lon="-13.502937">
        <ele>4.772</ele>
        <time>2021-11-05T14:10:28Z</time>
      </trkpt>
      <trkpt lat="29.230281" lon="-13.502872">
        <ele>6.019</ele>
        <time>2021-11-05T14:14:36Z</time>
      </trkpt>
      <trkpt lat="29.229427" lon="-13.502603">
        <ele>4.564</ele>
        <time>2021-11-05T14:49:50Z</time>
      </trkpt>
      <trkpt lat="29.229476" lon="-13.502740">
        <ele>5.766</ele>
        <time>2021-11-05T14:54:39Z</time>
      </trkpt>
      <trkpt lat="29.228881" lon="-13.502715">
        <ele>-0.715</ele>
        <time>2021-11-05T15:04:12Z</time>
      </trkpt>
      <trkpt lat="29.228496" lon="-13.502451">
        <ele>-4.259</ele>
        <time>2021-11-05T15:04:36Z</time>
      </trkpt>
      <trkpt lat="29.228425" lon="-13.502157">
        <ele>-1.574</ele>
        <time>2021-11-05T15:05:01Z</time>
      </trkpt>
      <trkpt lat="29.228264" lon="-13.502422">
        <ele>-2.986</ele>
        <time>2021-11-05T15:05:26Z</time>
      </trkpt>
      <trkpt lat="29.227626" lon="-13.501986">
        <ele>1.860</ele>
        <time>2021-11-05T15:05:46Z</time>
      </trkpt>
      <trkpt lat="29.226281" lon="-13.501924">
        <ele>0.026</ele>
        <time>2021-11-05T15:06:17Z</time>
      </trkpt>
      <trkpt lat="29.225738" lon="-13.501153">
        <ele>0.008</ele>
        <time>2021-11-05T15:06:30Z</time>
      </trkpt>
      <trkpt lat="29.225480" lon="-13.500331">
        <ele>0.016</ele>
        <time>2021-11-05T15:06:44Z</time>
      </trkpt>
      <trkpt lat="29.221676" lon="-13.496911">
        <ele>0.086</ele>
        <time>2021-11-05T15:07:58Z</time>
      </trkpt>
      <trkpt lat="29.221082" lon="-13.495866">
        <ele>0.013</ele>
        <time>2021-11-05T15:08:16Z</time>
      </trkpt>
      <trkpt lat="29.220880" lon="-13.494261">
        <ele>0.048</ele>
        <time>2021-11-05T15:08:42Z</time>
      </trkpt>
      <trkpt lat="29.221174" lon="-13.493266">
        <ele>0.030</ele>
        <time>2021-11-05T15:08:59Z</time>
      </trkpt>
      <trkpt lat="29.226317" lon="-13.484313">
        <ele>0.069</ele>
        <time>2021-11-05T15:11:42Z</time>
      </trkpt>
      <trkpt lat="29.229895" lon="-13.479519">
        <ele>0.043</ele>
        <time>2021-11-05T15:13:16Z</time>
      </trkpt>
      <trkpt lat="29.237934" lon="-13.472497">
        <ele>0.088</ele>
        <time>2021-11-05T15:16:04Z</time>
      </trkpt>
      <trkpt lat="29.239032" lon="-13.472004">
        <ele>0.033</ele>
        <time>2021-11-05T15:16:23Z</time>
      </trkpt>
      <trkpt lat="29.241936" lon="-13.471704">
        <ele>0.023</ele>
        <time>2021-11-05T15:17:11Z</time>
      </trkpt>
      <trkpt lat="29.242467" lon="-13.471409">
        <ele>0.015</ele>
        <time>2021-11-05T15:17:22Z</time>
      </trkpt>
      <trkpt lat="29.242827" lon="-13.470631">
        <ele>0.008</ele>
        <time>2021-11-05T15:17:37Z</time>
      </trkpt>
      <trkpt lat="29.242574" lon="-13.469645">
        <ele>0.011</ele>
        <time>2021-11-05T15:17:53Z</time>
      </trkpt>
      <trkpt lat="29.241987" lon="-13.468873">
        <ele>0.041</ele>
        <time>2021-11-05T15:18:07Z</time>
      </trkpt>
      <trkpt lat="29.240462" lon="-13.467806">
        <ele>0.078</ele>
        <time>2021-11-05T15:18:36Z</time>
      </trkpt>
      <trkpt lat="29.239837" lon="-13.466750">
        <ele>0.093</ele>
        <time>2021-11-05T15:18:54Z</time>
      </trkpt>
      <trkpt lat="29.238897" lon="-13.466026">
        <ele>0.015</ele>
        <time>2021-11-05T15:19:12Z</time>
      </trkpt>
      <trkpt lat="29.237845" lon="-13.464396">
        <ele>0.074</ele>
        <time>2021-11-05T15:19:40Z</time>
      </trkpt>
      <trkpt lat="29.235472" lon="-13.461860">
        <ele>0.058</ele>
        <time>2021-11-05T15:20:31Z</time>
      </trkpt>
      <trkpt lat="29.231696" lon="-13.458457">
        <ele>0.093</ele>
        <time>2021-11-05T15:21:46Z</time>
      </trkpt>
      <trkpt lat="29.227109" lon="-13.453768">
        <ele>0.099</ele>
        <time>2021-11-05T15:23:29Z</time>
      </trkpt>
      <trkpt lat="29.225905" lon="-13.453037">
        <ele>6.207</ele>
        <time>2021-11-05T15:24:09Z</time>
      </trkpt>
      <trkpt lat="29.224486" lon="-13.451622">
        <ele>0.027</ele>
        <time>2021-11-05T15:25:08Z</time>
      </trkpt>
      <trkpt lat="29.223767" lon="-13.451515">
        <ele>4.308</ele>
        <time>2021-11-05T15:25:43Z</time>
      </trkpt>
      <trkpt lat="29.223406" lon="-13.453018">
        <ele>10.757</ele>
        <time>2021-11-05T15:31:18Z</time>
      </trkpt>
      <trkpt lat="29.222106" lon="-13.453171">
        <ele>14.087</ele>
        <time>2021-11-05T15:31:59Z</time>
      </trkpt>
      <trkpt lat="29.222076" lon="-13.452437">
        <ele>12.964</ele>
        <time>2021-11-05T15:32:17Z</time>
      </trkpt>
      <trkpt lat="29.219148" lon="-13.452385">
        <ele>15.589</ele>
        <time>2021-11-05T15:36:10Z</time>
      </trkpt>
      <trkpt lat="29.218836" lon="-13.449640">
        <ele>20.031</ele>
        <time>2021-11-05T15:37:11Z</time>
      </trkpt>
      <trkpt lat="29.218440" lon="-13.448683">
        <ele>20.260</ele>
        <time>2021-11-05T15:37:25Z</time>
      </trkpt>
      <trkpt lat="29.216888" lon="-13.446779">
        <ele>19.854</ele>
        <time>2021-11-05T15:38:07Z</time>
      </trkpt>
      <trkpt lat="29.215312" lon="-13.443895">
        <ele>17.969</ele>
        <time>2021-11-05T15:38:55Z</time>
      </trkpt>
      <trkpt lat="29.212980" lon="-13.441666">
        <ele>11.057</ele>
        <time>2021-11-05T15:39:30Z</time>
      </trkpt>
      <trkpt lat="29.211860" lon="-13.440233">
        <ele>12.500</ele>
        <time>2021-11-05T15:39:54Z</time>
      </trkpt>
      <trkpt lat="29.203607" lon="-13.423677">
        <ele>7.420</ele>
        <time>2021-11-05T15:46:40Z</time>
      </trkpt>
      <trkpt lat="29.202799" lon="-13.422661">
        <ele>5.408</ele>
        <time>2021-11-05T15:46:55Z</time>
      </trkpt>
      <trkpt lat="29.201992" lon="-13.422179">
        <ele>6.883</ele>
        <time>2021-11-05T15:47:05Z</time>
      </trkpt>
      <trkpt lat="29.189175" lon="-13.422529">
        <ele>7.243</ele>
        <time>2021-11-05T15:49:51Z</time>
      </trkpt>
      <trkpt lat="29.187733" lon="-13.422744">
        <ele>12.290</ele>
        <time>2021-11-05T15:50:12Z</time>
      </trkpt>
      <trkpt lat="29.178205" lon="-13.425220">
        <ele>19.635</ele>
        <time>2021-11-05T15:52:35Z</time>
      </trkpt>
      <trkpt lat="29.166289" lon="-13.429878">
        <ele>21.367</ele>
        <time>2021-11-05T15:55:21Z</time>
      </trkpt>
      <trkpt lat="29.158403" lon="-13.433870">
        <ele>23.996</ele>
        <time>2021-11-05T15:57:21Z</time>
      </trkpt>
      <trkpt lat="29.158328" lon="-13.434189">
        <ele>24.240</ele>
        <time>2021-11-05T15:57:29Z</time>
      </trkpt>
      <trkpt lat="29.159935" lon="-13.438306">
        <ele>52.815</ele>
        <time>2021-11-05T15:59:37Z</time>
      </trkpt>
      <trkpt lat="29.160439" lon="-13.438585">
        <ele>54.482</ele>
        <time>2021-11-05T16:01:53Z</time>
      </trkpt>
      <trkpt lat="29.160652" lon="-13.439344">
        <ele>59.743</ele>
        <time>2021-11-05T16:02:35Z</time>
      </trkpt>
      <trkpt lat="29.160417" lon="-13.439372">
        <ele>59.417</ele>
        <time>2021-11-05T16:04:24Z</time>
      </trkpt>
      <trkpt lat="29.160641" lon="-13.439402">
        <ele>60.108</ele>
        <time>2021-11-05T16:04:38Z</time>
      </trkpt>
      <trkpt lat="29.160698" lon="-13.439739">
        <ele>60.566</ele>
        <time>2021-11-05T16:05:02Z</time>
      </trkpt>
      <trkpt lat="29.160420" lon="-13.439270">
        <ele>59.236</ele>
        <time>2021-11-05T16:05:54Z</time>
      </trkpt>
      <trkpt lat="29.160670" lon="-13.439118">
        <ele>58.333</ele>
        <time>2021-11-05T16:09:57Z</time>
      </trkpt>
      <trkpt lat="29.160921" lon="-13.440702">
        <ele>58.978</ele>
        <time>2021-11-05T16:14:48Z</time>
      </trkpt>
      <trkpt lat="29.160815" lon="-13.440133">
        <ele>60.030</ele>
        <time>2021-11-05T16:15:09Z</time>
      </trkpt>
      <trkpt lat="29.160910" lon="-13.440258">
        <ele>59.799</ele>
        <time>2021-11-05T16:17:51Z</time>
      </trkpt>
      <trkpt lat="29.163041" lon="-13.439441">
        <ele>58.083</ele>
        <time>2021-11-05T16:26:04Z</time>
      </trkpt>
      <trkpt lat="29.160499" lon="-13.439163">
        <ele>59.078</ele>
        <time>2021-11-05T16:40:38Z</time>
      </trkpt>
      <trkpt lat="29.161758" lon="-13.439508">
        <ele>57.698</ele>
        <time>2021-11-05T16:43:03Z</time>
      </trkpt>
      <trkpt lat="29.161509" lon="-13.439635">
        <ele>58.415</ele>
        <time>2021-11-05T16:43:14Z</time>
      </trkpt>
      <trkpt lat="29.160545" lon="-13.439104">
        <ele>58.526</ele>
        <time>2021-11-05T16:43:42Z</time>
      </trkpt>
      <trkpt lat="29.161761" lon="-13.439401">
        <ele>57.008</ele>
        <time>2021-11-05T16:44:27Z</time>
      </trkpt>
      <trkpt lat="29.160710" lon="-13.440302">
        <ele>60.457</ele>
        <time>2021-11-05T16:49:04Z</time>
      </trkpt>
      <trkpt lat="29.161087" lon="-13.439944">
        <ele>59.817</ele>
        <time>2021-11-05T16:49:50Z</time>
      </trkpt>
      <trkpt lat="29.160825" lon="-13.440088">
        <ele>60.024</ele>
        <time>2021-11-05T16:51:38Z</time>
      </trkpt>
      <trkpt lat="29.160637" lon="-13.439838">
        <ele>60.429</ele>
        <time>2021-11-05T16:52:24Z</time>
      </trkpt>
      <trkpt lat="29.160682" lon="-13.439051">
        <ele>57.911</ele>
        <time>2021-11-05T16:53:20Z</time>
      </trkpt>
      <trkpt lat="29.160517" lon="-13.438594">
        <ele>54.710</ele>
        <time>2021-11-05T16:54:01Z</time>
      </trkpt>
      <trkpt lat="29.160548" lon="-13.438780">
        <ele>56.264</ele>
        <time>2021-11-05T16:55:26Z</time>
      </trkpt>
      <trkpt lat="29.159935" lon="-13.438209">
        <ele>52.839</ele>
        <time>2021-11-05T16:55:49Z</time>
      </trkpt>
      <trkpt lat="29.158413" lon="-13.434080">
        <ele>24.269</ele>
        <time>2021-11-05T16:56:32Z</time>
      </trkpt>
      <trkpt lat="29.158133" lon="-13.433967">
        <ele>23.704</ele>
        <time>2021-11-05T16:56:38Z</time>
      </trkpt>
      <trkpt lat="29.157131" lon="-13.434574">
        <ele>28.424</ele>
        <time>2021-11-05T16:56:59Z</time>
      </trkpt>
      <trkpt lat="29.156415" lon="-13.435417">
        <ele>27.508</ele>
        <time>2021-11-05T16:57:18Z</time>
      </trkpt>
      <trkpt lat="29.155692" lon="-13.437149">
        <ele>20.914</ele>
        <time>2021-11-05T16:57:39Z</time>
      </trkpt>
      <trkpt lat="29.153030" lon="-13.440387">
        <ele>11.664</ele>
        <time>2021-11-05T16:58:14Z</time>
      </trkpt>
      <trkpt lat="29.146836" lon="-13.450277">
        <ele>18.031</ele>
        <time>2021-11-05T17:00:31Z</time>
      </trkpt>
      <trkpt lat="29.144731" lon="-13.452483">
        <ele>17.956</ele>
        <time>2021-11-05T17:01:16Z</time>
      </trkpt>
      <trkpt lat="29.137431" lon="-13.458574">
        <ele>16.048</ele>
        <time>2021-11-05T17:03:18Z</time>
      </trkpt>
      <trkpt lat="29.136815" lon="-13.459568">
        <ele>18.877</ele>
        <time>2021-11-05T17:03:33Z</time>
      </trkpt>
      <trkpt lat="29.136135" lon="-13.462554">
        <ele>23.611</ele>
        <time>2021-11-05T17:04:13Z</time>
      </trkpt>
      <trkpt lat="29.134099" lon="-13.463997">
        <ele>15.456</ele>
        <time>2021-11-05T17:04:43Z</time>
      </trkpt>
      <trkpt lat="29.133548" lon="-13.464664">
        <ele>17.219</ele>
        <time>2021-11-05T17:04:54Z</time>
      </trkpt>
      <trkpt lat="29.128340" lon="-13.466472">
        <ele>4.009</ele>
        <time>2021-11-05T17:05:51Z</time>
      </trkpt>
      <trkpt lat="29.125337" lon="-13.467110">
        <ele>12.819</ele>
        <time>2021-11-05T17:06:30Z</time>
      </trkpt>
      <trkpt lat="29.123270" lon="-13.466946">
        <ele>11.008</ele>
        <time>2021-11-05T17:06:56Z</time>
      </trkpt>
      <trkpt lat="29.121034" lon="-13.465825">
        <ele>23.229</ele>
        <time>2021-11-05T17:07:42Z</time>
      </trkpt>
      <trkpt lat="29.120033" lon="-13.465703">
        <ele>23.569</ele>
        <time>2021-11-05T17:07:59Z</time>
      </trkpt>
      <trkpt lat="29.110320" lon="-13.468033">
        <ele>48.046</ele>
        <time>2021-11-05T17:10:30Z</time>
      </trkpt>
      <trkpt lat="29.109081" lon="-13.468839">
        <ele>44.841</ele>
        <time>2021-11-05T17:10:52Z</time>
      </trkpt>
      <trkpt lat="29.107552" lon="-13.470675">
        <ele>53.473</ele>
        <time>2021-11-05T17:11:26Z</time>
      </trkpt>
      <trkpt lat="29.106300" lon="-13.471705">
        <ele>51.932</ele>
        <time>2021-11-05T17:11:49Z</time>
      </trkpt>
      <trkpt lat="29.104763" lon="-13.472529">
        <ele>49.386</ele>
        <time>2021-11-05T17:12:12Z</time>
      </trkpt>
      <trkpt lat="29.101594" lon="-13.473694">
        <ele>53.311</ele>
        <time>2021-11-05T17:12:53Z</time>
      </trkpt>
      <trkpt lat="29.100254" lon="-13.474485">
        <ele>61.358</ele>
        <time>2021-11-05T17:13:13Z</time>
      </trkpt>
      <trkpt lat="29.096675" lon="-13.478563">
        <ele>72.152</ele>
        <time>2021-11-05T17:14:36Z</time>
      </trkpt>
      <trkpt lat="29.090677" lon="-13.483353">
        <ele>87.517</ele>
        <time>2021-11-05T17:16:47Z</time>
      </trkpt>
      <trkpt lat="29.083376" lon="-13.488059">
        <ele>101.208</ele>
        <time>2021-11-05T17:18:57Z</time>
      </trkpt>
      <trkpt lat="29.080799" lon="-13.489313">
        <ele>104.313</ele>
        <time>2021-11-05T17:19:39Z</time>
      </trkpt>
      <trkpt lat="29.078474" lon="-13.489886">
        <ele>107.663</ele>
        <time>2021-11-05T17:20:11Z</time>
      </trkpt>
      <trkpt lat="29.075892" lon="-13.489954">
        <ele>102.590</ele>
        <time>2021-11-05T17:20:43Z</time>
      </trkpt>
      <trkpt lat="29.066799" lon="-13.488157">
        <ele>100.885</ele>
        <time>2021-11-05T17:22:45Z</time>
      </trkpt>
      <trkpt lat="29.064486" lon="-13.488488">
        <ele>116.357</ele>
        <time>2021-11-05T17:23:28Z</time>
      </trkpt>
      <trkpt lat="29.062455" lon="-13.489389">
        <ele>120.976</ele>
        <time>2021-11-05T17:24:19Z</time>
      </trkpt>
      <trkpt lat="29.060468" lon="-13.491058">
        <ele>121.010</ele>
        <time>2021-11-05T17:25:10Z</time>
      </trkpt>
      <trkpt lat="29.052551" lon="-13.500491">
        <ele>142.575</ele>
        <time>2021-11-05T17:28:20Z</time>
      </trkpt>
      <trkpt lat="29.044751" lon="-13.508803">
        <ele>152.746</ele>
        <time>2021-11-05T17:30:51Z</time>
      </trkpt>
      <trkpt lat="29.040286" lon="-13.512545">
        <ele>147.188</ele>
        <time>2021-11-05T17:31:51Z</time>
      </trkpt>
      <trkpt lat="29.039260" lon="-13.513973">
        <ele>154.016</ele>
        <time>2021-11-05T17:32:13Z</time>
      </trkpt>
      <trkpt lat="29.037962" lon="-13.516552">
        <ele>159.708</ele>
        <time>2021-11-05T17:32:54Z</time>
      </trkpt>
      <trkpt lat="29.036966" lon="-13.517780">
        <ele>163.022</ele>
        <time>2021-11-05T17:33:19Z</time>
      </trkpt>
      <trkpt lat="29.034117" lon="-13.519810">
        <ele>162.962</ele>
        <time>2021-11-05T17:34:02Z</time>
      </trkpt>
      <trkpt lat="29.032796" lon="-13.521221">
        <ele>153.689</ele>
        <time>2021-11-05T17:34:18Z</time>
      </trkpt>
      <trkpt lat="29.032462" lon="-13.522036">
        <ele>151.864</ele>
        <time>2021-11-05T17:34:27Z</time>
      </trkpt>
      <trkpt lat="29.031680" lon="-13.522392">
        <ele>150.086</ele>
        <time>2021-11-05T17:34:42Z</time>
      </trkpt>
      <trkpt lat="29.027322" lon="-13.527244">
        <ele>155.345</ele>
        <time>2021-11-05T17:37:35Z</time>
      </trkpt>
      <trkpt lat="29.026902" lon="-13.528166">
        <ele>151.219</ele>
        <time>2021-11-05T17:37:45Z</time>
      </trkpt>
      <trkpt lat="29.026051" lon="-13.528948">
        <ele>148.244</ele>
        <time>2021-11-05T17:37:56Z</time>
      </trkpt>
      <trkpt lat="29.024788" lon="-13.530679">
        <ele>144.022</ele>
        <time>2021-11-05T17:38:16Z</time>
      </trkpt>
      <trkpt lat="29.021767" lon="-13.535822">
        <ele>148.862</ele>
        <time>2021-11-05T17:39:27Z</time>
      </trkpt>
      <trkpt lat="29.019310" lon="-13.539365">
        <ele>155.108</ele>
        <time>2021-11-05T17:40:31Z</time>
      </trkpt>
      <trkpt lat="29.018447" lon="-13.540241">
        <ele>147.108</ele>
        <time>2021-11-05T17:40:47Z</time>
      </trkpt>
      <trkpt lat="29.019262" lon="-13.539384">
        <ele>154.570</ele>
        <time>2021-11-05T17:41:43Z</time>
      </trkpt>
      <trkpt lat="29.018791" lon="-13.539639">
        <ele>154.640</ele>
        <time>2021-11-05T17:41:54Z</time>
      </trkpt>
      <trkpt lat="29.014219" lon="-13.545167">
        <ele>139.547</ele>
        <time>2021-11-05T17:43:06Z</time>
      </trkpt>
      <trkpt lat="29.013980" lon="-13.545973">
        <ele>138.262</ele>
        <time>2021-11-05T17:43:17Z</time>
      </trkpt>
      <trkpt lat="29.007533" lon="-13.545297">
        <ele>125.924</ele>
        <time>2021-11-05T17:44:25Z</time>
      </trkpt>
      <trkpt lat="29.006786" lon="-13.545501">
        <ele>124.543</ele>
        <time>2021-11-05T17:44:34Z</time>
      </trkpt>
      <trkpt lat="29.005899" lon="-13.545111">
        <ele>118.167</ele>
        <time>2021-11-05T17:44:45Z</time>
      </trkpt>
      <trkpt lat="29.002544" lon="-13.544790">
        <ele>107.052</ele>
        <time>2021-11-05T17:45:16Z</time>
      </trkpt>
      <trkpt lat="29.001614" lon="-13.544983">
        <ele>106.736</ele>
        <time>2021-11-05T17:45:26Z</time>
      </trkpt>
      <trkpt lat="29.000739" lon="-13.544666">
        <ele>104.517</ele>
        <time>2021-11-05T17:45:40Z</time>
      </trkpt>
      <trkpt lat="28.993253" lon="-13.543977">
        <ele>73.318</ele>
        <time>2021-11-05T17:46:56Z</time>
      </trkpt>
      <trkpt lat="28.992623" lon="-13.544494">
        <ele>74.008</ele>
        <time>2021-11-05T17:49:47Z</time>
      </trkpt>
      <trkpt lat="28.992440" lon="-13.543980">
        <ele>76.021</ele>
        <time>2021-11-05T17:50:01Z</time>
      </trkpt>
      <trkpt lat="28.992158" lon="-13.543810">
        <ele>69.481</ele>
        <time>2021-11-05T17:50:06Z</time>
      </trkpt>
      <trkpt lat="28.988282" lon="-13.543477">
        <ele>64.278</ele>
        <time>2021-11-05T17:50:57Z</time>
      </trkpt>
      <trkpt lat="28.982404" lon="-13.544494">
        <ele>40.783</ele>
        <time>2021-11-05T17:53:15Z</time>
      </trkpt>
      <trkpt lat="28.981695" lon="-13.545247">
        <ele>40.885</ele>
        <time>2021-11-05T17:53:32Z</time>
      </trkpt>
      <trkpt lat="28.981288" lon="-13.547638">
        <ele>50.634</ele>
        <time>2021-11-05T17:54:10Z</time>
      </trkpt>
      <trkpt lat="28.980612" lon="-13.549274">
        <ele>54.478</ele>
        <time>2021-11-05T17:54:36Z</time>
      </trkpt>
      <trkpt lat="28.975528" lon="-13.555318">
        <ele>46.363</ele>
        <time>2021-11-05T17:56:04Z</time>
      </trkpt>
      <trkpt lat="28.971001" lon="-13.561502">
        <ele>26.465</ele>
        <time>2021-11-05T17:57:16Z</time>
      </trkpt>
      <trkpt lat="28.970423" lon="-13.563067">
        <ele>26.168</ele>
        <time>2021-11-05T17:57:35Z</time>
      </trkpt>
      <trkpt lat="28.971075" lon="-13.564018">
        <ele>32.514</ele>
        <time>2021-11-05T17:58:18Z</time>
      </trkpt>
      <trkpt lat="28.971488" lon="-13.564009">
        <ele>32.808</ele>
        <time>2021-11-05T17:58:26Z</time>
      </trkpt>
      <trkpt lat="28.972771" lon="-13.562830">
        <ele>29.834</ele>
        <time>2021-11-05T17:59:03Z</time>
      </trkpt>
      <trkpt lat="28.973430" lon="-13.561531">
        <ele>34.194</ele>
        <time>2021-11-05T17:59:32Z</time>
      </trkpt>
      <trkpt lat="28.975029" lon="-13.562198">
        <ele>39.311</ele>
        <time>2021-11-05T18:00:40Z</time>
      </trkpt>
      <trkpt lat="28.981785" lon="-13.568194">
        <ele>63.666</ele>
        <time>2021-11-05T18:04:25Z</time>
      </trkpt>
      <trkpt lat="28.981852" lon="-13.568536">
        <ele>65.178</ele>
        <time>2021-11-05T18:04:34Z</time>
      </trkpt>
      <trkpt lat="28.983043" lon="-13.569265">
        <ele>66.357</ele>
        <time>2021-11-05T18:05:20Z</time>
      </trkpt>
      <trkpt lat="28.984252" lon="-13.569403">
        <ele>76.171</ele>
        <time>2021-11-05T18:05:58Z</time>
      </trkpt>
      <trkpt lat="28.984299" lon="-13.569081">
        <ele>74.336</ele>
        <time>2021-11-05T18:06:27Z</time>
      </trkpt>
      <trkpt lat="28.985247" lon="-13.569271">
        <ele>76.692</ele>
        <time>2021-11-05T18:08:57Z</time>
      </trkpt>
      <trkpt lat="28.983251" lon="-13.568840">
        <ele>66.673</ele>
        <time>2021-11-05T18:10:57Z</time>
      </trkpt>
      <trkpt lat="28.986577" lon="-13.569386">
        <ele>80.420</ele>
        <time>2021-11-05T18:17:21Z</time>
      </trkpt>
      <trkpt lat="28.986532" lon="-13.568027">
        <ele>81.408</ele>
        <time>2021-11-05T18:18:21Z</time>
      </trkpt>
      <trkpt lat="28.986175" lon="-13.567851">
        <ele>83.027</ele>
        <time>2021-11-05T18:18:53Z</time>
      </trkpt>
      <trkpt lat="28.986190" lon="-13.567608">
        <ele>82.317</ele>
        <time>2021-11-05T18:19:49Z</time>
      </trkpt>
      <trkpt lat="28.985865" lon="-13.568194">
        <ele>83.934</ele>
        <time>2021-11-05T18:23:34Z</time>
      </trkpt>
      <trkpt lat="28.986145" lon="-13.567807">
        <ele>83.099</ele>
        <time>2021-11-05T18:27:08Z</time>
      </trkpt>
      <trkpt lat="28.985074" lon="-13.569276">
        <ele>75.879</ele>
        <time>2021-11-07T08:09:58Z</time>
      </trkpt>
      <trkpt lat="28.986130" lon="-13.567828">
        <ele>83.105</ele>
        <time>2021-11-07T08:10:06Z</time>
      </trkpt>
      <trkpt lat="28.986463" lon="-13.567938">
        <ele>81.925</ele>
        <time>2021-11-07T08:10:21Z</time>
      </trkpt>
      <trkpt lat="28.986621" lon="-13.569452">
        <ele>80.108</ele>
        <time>2021-11-07T08:10:49Z</time>
      </trkpt>
      <trkpt lat="28.986797" lon="-13.569593">
        <ele>78.095</ele>
        <time>2021-11-07T08:10:55Z</time>
      </trkpt>
      <trkpt lat="28.987749" lon="-13.569484">
        <ele>88.655</ele>
        <time>2021-11-07T08:11:19Z</time>
      </trkpt>
      <trkpt lat="28.988789" lon="-13.569946">
        <ele>89.262</ele>
        <time>2021-11-07T08:12:03Z</time>
      </trkpt>
      <trkpt lat="28.990258" lon="-13.569751">
        <ele>94.547</ele>
        <time>2021-11-07T08:12:53Z</time>
      </trkpt>
      <trkpt lat="28.990610" lon="-13.567216">
        <ele>96.519</ele>
        <time>2021-11-07T08:13:42Z</time>
      </trkpt>
      <trkpt lat="28.991542" lon="-13.566843">
        <ele>103.229</ele>
        <time>2021-11-07T08:14:18Z</time>
      </trkpt>
      <trkpt lat="28.992199" lon="-13.565172">
        <ele>102.865</ele>
        <time>2021-11-07T08:15:10Z</time>
      </trkpt>
      <trkpt lat="28.992839" lon="-13.564480">
        <ele>100.767</ele>
        <time>2021-11-07T08:15:36Z</time>
      </trkpt>
      <trkpt lat="28.993308" lon="-13.564209">
        <ele>101.021</ele>
        <time>2021-11-07T08:15:49Z</time>
      </trkpt>
      <trkpt lat="28.993862" lon="-13.564345">
        <ele>98.941</ele>
        <time>2021-11-07T08:16:11Z</time>
      </trkpt>
      <trkpt lat="28.994455" lon="-13.564083">
        <ele>100.905</ele>
        <time>2021-11-07T08:16:41Z</time>
      </trkpt>
      <trkpt lat="28.994354" lon="-13.563444">
        <ele>99.408</ele>
        <time>2021-11-07T08:16:58Z</time>
      </trkpt>
      <trkpt lat="28.994559" lon="-13.561605">
        <ele>94.040</ele>
        <time>2021-11-07T08:17:38Z</time>
      </trkpt>
      <trkpt lat="28.994785" lon="-13.561450">
        <ele>97.820</ele>
        <time>2021-11-07T08:17:45Z</time>
      </trkpt>
      <trkpt lat="28.995315" lon="-13.561620">
        <ele>99.457</ele>
        <time>2021-11-07T08:17:57Z</time>
      </trkpt>
      <trkpt lat="28.995464" lon="-13.561164">
        <ele>92.832</ele>
        <time>2021-11-07T08:18:09Z</time>
      </trkpt>
      <trkpt lat="28.997035" lon="-13.561251">
        <ele>96.254</ele>
        <time>2021-11-07T08:18:48Z</time>
      </trkpt>
      <trkpt lat="28.997128" lon="-13.560669">
        <ele>93.114</ele>
        <time>2021-11-07T08:19:00Z</time>
      </trkpt>
      <trkpt lat="28.997071" lon="-13.560862">
        <ele>93.820</ele>
        <time>2021-11-07T08:19:14Z</time>
      </trkpt>
      <trkpt lat="28.997339" lon="-13.561075">
        <ele>94.742</ele>
        <time>2021-11-07T08:19:17Z</time>
      </trkpt>
      <trkpt lat="28.996974" lon="-13.561348">
        <ele>96.717</ele>
        <time>2021-11-07T08:19:22Z</time>
      </trkpt>
      <trkpt lat="28.996663" lon="-13.561314">
        <ele>96.487</ele>
        <time>2021-11-07T08:19:31Z</time>
      </trkpt>
      <trkpt lat="28.996883" lon="-13.561367">
        <ele>96.915</ele>
        <time>2021-11-07T08:19:49Z</time>
      </trkpt>
      <trkpt lat="28.997027" lon="-13.561214">
        <ele>96.108</ele>
        <time>2021-11-07T08:19:54Z</time>
      </trkpt>
      <trkpt lat="28.997047" lon="-13.560557">
        <ele>93.949</ele>
        <time>2021-11-07T08:20:10Z</time>
      </trkpt>
      <trkpt lat="28.999261" lon="-13.560615">
        <ele>104.529</ele>
        <time>2021-11-07T08:21:10Z</time>
      </trkpt>
      <trkpt lat="28.999927" lon="-13.555964">
        <ele>105.156</ele>
        <time>2021-11-07T08:22:59Z</time>
      </trkpt>
      <trkpt lat="29.002390" lon="-13.551698">
        <ele>107.171</ele>
        <time>2021-11-07T08:24:40Z</time>
      </trkpt>
      <trkpt lat="29.001826" lon="-13.548935">
        <ele>104.973</ele>
        <time>2021-11-07T08:25:40Z</time>
      </trkpt>
      <trkpt lat="29.001669" lon="-13.545480">
        <ele>109.063</ele>
        <time>2021-11-07T08:27:20Z</time>
      </trkpt>
      <trkpt lat="29.001305" lon="-13.544667">
        <ele>103.949</ele>
        <time>2021-11-07T08:27:42Z</time>
      </trkpt>
      <trkpt lat="29.001400" lon="-13.544355">
        <ele>106.081</ele>
        <time>2021-11-07T08:27:47Z</time>
      </trkpt>
      <trkpt lat="29.001695" lon="-13.544230">
        <ele>108.572</ele>
        <time>2021-11-07T08:27:53Z</time>
      </trkpt>
      <trkpt lat="29.002303" lon="-13.544581">
        <ele>105.613</ele>
        <time>2021-11-07T08:28:08Z</time>
      </trkpt>
      <trkpt lat="29.005889" lon="-13.544924">
        <ele>118.414</ele>
        <time>2021-11-07T08:29:36Z</time>
      </trkpt>
      <trkpt lat="29.006468" lon="-13.544887">
        <ele>123.108</ele>
        <time>2021-11-07T08:29:50Z</time>
      </trkpt>
      <trkpt lat="29.006820" lon="-13.544690">
        <ele>126.075</ele>
        <time>2021-11-07T08:30:01Z</time>
      </trkpt>
      <trkpt lat="29.007513" lon="-13.545104">
        <ele>127.365</ele>
        <time>2021-11-07T08:30:37Z</time>
      </trkpt>
      <trkpt lat="29.012516" lon="-13.545626">
        <ele>134.992</ele>
        <time>2021-11-07T08:32:27Z</time>
      </trkpt>
      <trkpt lat="29.013384" lon="-13.545663">
        <ele>135.287</ele>
        <time>2021-11-07T08:32:44Z</time>
      </trkpt>
      <trkpt lat="29.013781" lon="-13.545465">
        <ele>140.749</ele>
        <time>2021-11-07T08:32:54Z</time>
      </trkpt>
      <trkpt lat="29.015464" lon="-13.543512">
        <ele>144.139</ele>
        <time>2021-11-07T08:33:55Z</time>
      </trkpt>
      <trkpt lat="29.015314" lon="-13.543471">
        <ele>143.225</ele>
        <time>2021-11-07T08:33:59Z</time>
      </trkpt>
      <trkpt lat="29.015070" lon="-13.543798">
        <ele>139.867</ele>
        <time>2021-11-07T08:34:11Z</time>
      </trkpt>
      <trkpt lat="29.014975" lon="-13.543631">
        <ele>138.949</ele>
        <time>2021-11-07T08:34:26Z</time>
      </trkpt>
      <trkpt lat="29.015189" lon="-13.543616">
        <ele>141.702</ele>
        <time>2021-11-07T08:38:47Z</time>
      </trkpt>
      <trkpt lat="29.015198" lon="-13.543726">
        <ele>141.622</ele>
        <time>2021-11-07T08:52:56Z</time>
      </trkpt>
      <trkpt lat="29.015383" lon="-13.543488">
        <ele>143.608</ele>
        <time>2021-11-07T08:53:14Z</time>
      </trkpt>
      <trkpt lat="29.015535" lon="-13.543494">
        <ele>144.532</ele>
        <time>2021-11-07T08:53:23Z</time>
      </trkpt>
      <trkpt lat="29.017737" lon="-13.540844">
        <ele>148.552</ele>
        <time>2021-11-07T08:54:59Z</time>
      </trkpt>
      <trkpt lat="29.018865" lon="-13.539219">
        <ele>155.099</ele>
        <time>2021-11-07T08:55:42Z</time>
      </trkpt>
      <trkpt lat="29.019071" lon="-13.539192">
        <ele>154.924</ele>
        <time>2021-11-07T08:55:47Z</time>
      </trkpt>
      <trkpt lat="29.019212" lon="-13.539480">
        <ele>153.366</ele>
        <time>2021-11-07T08:55:54Z</time>
      </trkpt>
      <trkpt lat="29.019420" lon="-13.539448">
        <ele>155.766</ele>
        <time>2021-11-07T08:56:01Z</time>
      </trkpt>
      <trkpt lat="29.019302" lon="-13.539386">
        <ele>154.992</ele>
        <time>2021-11-07T08:56:11Z</time>
      </trkpt>
      <trkpt lat="29.019435" lon="-13.538878">
        <ele>158.814</ele>
        <time>2021-11-07T08:56:25Z</time>
      </trkpt>
      <trkpt lat="29.021495" lon="-13.536128">
        <ele>150.041</ele>
        <time>2021-11-07T08:57:35Z</time>
      </trkpt>
      <trkpt lat="29.024857" lon="-13.530456">
        <ele>143.381</ele>
        <time>2021-11-07T08:59:18Z</time>
      </trkpt>
      <trkpt lat="29.026053" lon="-13.528810">
        <ele>148.709</ele>
        <time>2021-11-07T09:00:27Z</time>
      </trkpt>
      <trkpt lat="29.026776" lon="-13.528212">
        <ele>150.608</ele>
        <time>2021-11-07T09:00:47Z</time>
      </trkpt>
      <trkpt lat="29.027301" lon="-13.527100">
        <ele>154.672</ele>
        <time>2021-11-07T09:01:13Z</time>
      </trkpt>
      <trkpt lat="29.028118" lon="-13.526104">
        <ele>151.562</ele>
        <time>2021-11-07T09:01:42Z</time>
      </trkpt>
      <trkpt lat="29.029206" lon="-13.525103">
        <ele>149.769</ele>
        <time>2021-11-07T09:02:07Z</time>
      </trkpt>
      <trkpt lat="29.031548" lon="-13.522342">
        <ele>150.284</ele>
        <time>2021-11-07T09:03:14Z</time>
      </trkpt>
      <trkpt lat="29.032076" lon="-13.522022">
        <ele>150.376</ele>
        <time>2021-11-07T09:03:24Z</time>
      </trkpt>
      <trkpt lat="29.032691" lon="-13.521937">
        <ele>153.456</ele>
        <time>2021-11-07T09:03:36Z</time>
      </trkpt>
      <trkpt lat="29.032862" lon="-13.521300">
        <ele>154.592</ele>
        <time>2021-11-07T09:03:52Z</time>
      </trkpt>
      <trkpt lat="29.034370" lon="-13.519691">
        <ele>164.624</ele>
        <time>2021-11-07T09:04:53Z</time>
      </trkpt>
      <trkpt lat="29.036234" lon="-13.518512">
        <ele>163.238</ele>
        <time>2021-11-07T09:05:51Z</time>
      </trkpt>
      <trkpt lat="29.037483" lon="-13.517417">
        <ele>165.270</ele>
        <time>2021-11-07T09:06:23Z</time>
      </trkpt>
      <trkpt lat="29.038806" lon="-13.515285">
        <ele>153.617</ele>
        <time>2021-11-07T09:07:04Z</time>
      </trkpt>
      <trkpt lat="29.039265" lon="-13.513990">
        <ele>154.208</ele>
        <time>2021-11-07T09:07:29Z</time>
      </trkpt>
      <trkpt lat="29.040396" lon="-13.512479">
        <ele>148.191</ele>
        <time>2021-11-07T09:07:57Z</time>
      </trkpt>
      <trkpt lat="29.045141" lon="-13.508512">
        <ele>147.211</ele>
        <time>2021-11-07T09:10:09Z</time>
      </trkpt>
      <trkpt lat="29.046622" lon="-13.507035">
        <ele>146.278</ele>
        <time>2021-11-07T09:10:47Z</time>
      </trkpt>
      <trkpt lat="29.047021" lon="-13.506832">
        <ele>148.973</ele>
        <time>2021-11-07T09:10:57Z</time>
      </trkpt>
      <trkpt lat="29.047702" lon="-13.505752">
        <ele>150.515</ele>
        <time>2021-11-07T09:11:32Z</time>
      </trkpt>
      <trkpt lat="29.054157" lon="-13.498843">
        <ele>139.765</ele>
        <time>2021-11-07T09:14:56Z</time>
      </trkpt>
      <trkpt lat="29.058250" lon="-13.493745">
        <ele>120.891</ele>
        <time>2021-11-07T09:16:45Z</time>
      </trkpt>
      <trkpt lat="29.059975" lon="-13.491894">
        <ele>128.763</ele>
        <time>2021-11-07T09:17:38Z</time>
      </trkpt>
      <trkpt lat="29.060843" lon="-13.491249">
        <ele>121.058</ele>
        <time>2021-11-07T09:17:59Z</time>
      </trkpt>
      <trkpt lat="29.061267" lon="-13.491166">
        <ele>121.252</ele>
        <time>2021-11-07T09:18:08Z</time>
      </trkpt>
      <trkpt lat="29.061310" lon="-13.490962">
        <ele>121.017</ele>
        <time>2021-11-07T09:18:12Z</time>
      </trkpt>
      <trkpt lat="29.060799" lon="-13.490276">
        <ele>122.908</ele>
        <time>2021-11-07T09:18:29Z</time>
      </trkpt>
      <trkpt lat="29.060156" lon="-13.490037">
        <ele>119.973</ele>
        <time>2021-11-07T09:19:13Z</time>
      </trkpt>
      <trkpt lat="29.060504" lon="-13.489905">
        <ele>119.713</ele>
        <time>2021-11-07T09:31:00Z</time>
      </trkpt>
      <trkpt lat="29.060606" lon="-13.489386">
        <ele>118.120</ele>
        <time>2021-11-07T09:31:11Z</time>
      </trkpt>
      <trkpt lat="29.060834" lon="-13.489235">
        <ele>119.515</ele>
        <time>2021-11-07T09:31:17Z</time>
      </trkpt>
      <trkpt lat="29.061846" lon="-13.489171">
        <ele>119.047</ele>
        <time>2021-11-07T09:31:38Z</time>
      </trkpt>
      <trkpt lat="29.062788" lon="-13.488495">
        <ele>121.477</ele>
        <time>2021-11-07T09:31:59Z</time>
      </trkpt>
      <trkpt lat="29.064612" lon="-13.487574">
        <ele>124.353</ele>
        <time>2021-11-07T09:32:37Z</time>
      </trkpt>
      <trkpt lat="29.067012" lon="-13.485604">
        <ele>97.635</ele>
        <time>2021-11-07T09:33:28Z</time>
      </trkpt>
      <trkpt lat="29.070598" lon="-13.483059">
        <ele>105.131</ele>
        <time>2021-11-07T09:36:27Z</time>
      </trkpt>
      <trkpt lat="29.072540" lon="-13.482002">
        <ele>97.861</ele>
        <time>2021-11-07T09:37:05Z</time>
      </trkpt>
      <trkpt lat="29.073327" lon="-13.481276">
        <ele>98.807</ele>
        <time>2021-11-07T09:37:24Z</time>
      </trkpt>
      <trkpt lat="29.076478" lon="-13.478983">
        <ele>100.008</ele>
        <time>2021-11-07T09:38:35Z</time>
      </trkpt>
      <trkpt lat="29.079879" lon="-13.477348">
        <ele>101.741</ele>
        <time>2021-11-07T09:40:56Z</time>
      </trkpt>
      <trkpt lat="29.080477" lon="-13.476724">
        <ele>94.141</ele>
        <time>2021-11-07T09:41:25Z</time>
      </trkpt>
      <trkpt lat="29.080275" lon="-13.476824">
        <ele>93.628</ele>
        <time>2021-11-07T09:41:51Z</time>
      </trkpt>
      <trkpt lat="29.079900" lon="-13.476254">
        <ele>94.523</ele>
        <time>2021-11-07T09:42:10Z</time>
      </trkpt>
      <trkpt lat="29.079910" lon="-13.474991">
        <ele>102.975</ele>
        <time>2021-11-07T09:42:37Z</time>
      </trkpt>
      <trkpt lat="29.080933" lon="-13.474411">
        <ele>103.675</ele>
        <time>2021-11-07T09:43:08Z</time>
      </trkpt>
      <trkpt lat="29.081436" lon="-13.473181">
        <ele>103.521</ele>
        <time>2021-11-07T09:43:41Z</time>
      </trkpt>
      <trkpt lat="29.082293" lon="-13.472938">
        <ele>102.273</ele>
        <time>2021-11-07T09:44:40Z</time>
      </trkpt>
      <trkpt lat="29.082481" lon="-13.472656">
        <ele>102.178</ele>
        <time>2021-11-07T09:46:58Z</time>
      </trkpt>
      <trkpt lat="29.082528" lon="-13.473023">
        <ele>99.333</ele>
        <time>2021-11-07T09:47:52Z</time>
      </trkpt>
      <trkpt lat="29.082257" lon="-13.472948">
        <ele>102.426</ele>
        <time>2021-11-07T09:50:20Z</time>
      </trkpt>
      <trkpt lat="29.081439" lon="-13.473174">
        <ele>103.508</ele>
        <time>2021-11-07T09:53:27Z</time>
      </trkpt>
      <trkpt lat="29.080917" lon="-13.474396">
        <ele>103.725</ele>
        <time>2021-11-07T09:54:15Z</time>
      </trkpt>
      <trkpt lat="29.079928" lon="-13.475008">
        <ele>103.035</ele>
        <time>2021-11-07T09:55:00Z</time>
      </trkpt>
      <trkpt lat="29.079932" lon="-13.476196">
        <ele>93.792</ele>
        <time>2021-11-07T09:55:23Z</time>
      </trkpt>
      <trkpt lat="29.080238" lon="-13.477121">
        <ele>97.637</ele>
        <time>2021-11-07T09:55:45Z</time>
      </trkpt>
      <trkpt lat="29.080498" lon="-13.476817">
        <ele>94.839</ele>
        <time>2021-11-07T09:59:01Z</time>
      </trkpt>
      <trkpt lat="29.080407" lon="-13.476921">
        <ele>94.869</ele>
        <time>2021-11-07T09:59:58Z</time>
      </trkpt>
      <trkpt lat="29.080219" lon="-13.476456">
        <ele>91.765</ele>
        <time>2021-11-07T10:05:41Z</time>
      </trkpt>
      <trkpt lat="29.080016" lon="-13.476451">
        <ele>92.677</ele>
        <time>2021-11-07T10:08:30Z</time>
      </trkpt>
      <trkpt lat="29.080104" lon="-13.476507">
        <ele>92.789</ele>
        <time>2021-11-07T10:09:32Z</time>
      </trkpt>
      <trkpt lat="29.080209" lon="-13.475891">
        <ele>96.006</ele>
        <time>2021-11-07T10:11:12Z</time>
      </trkpt>
      <trkpt lat="29.080336" lon="-13.475754">
        <ele>98.926</ele>
        <time>2021-11-07T10:12:09Z</time>
      </trkpt>
      <trkpt lat="29.080442" lon="-13.476014">
        <ele>96.708</ele>
        <time>2021-11-07T10:12:58Z</time>
      </trkpt>
      <trkpt lat="29.080643" lon="-13.475601">
        <ele>101.516</ele>
        <time>2021-11-07T10:15:00Z</time>
      </trkpt>
      <trkpt lat="29.080887" lon="-13.475789">
        <ele>100.466</ele>
        <time>2021-11-07T10:16:26Z</time>
      </trkpt>
      <trkpt lat="29.080813" lon="-13.475916">
        <ele>101.263</ele>
        <time>2021-11-07T10:16:46Z</time>
      </trkpt>
      <trkpt lat="29.080984" lon="-13.475917">
        <ele>99.888</ele>
        <time>2021-11-07T10:17:09Z</time>
      </trkpt>
      <trkpt lat="29.080913" lon="-13.475976">
        <ele>100.850</ele>
        <time>2021-11-07T10:17:27Z</time>
      </trkpt>
      <trkpt lat="29.080851" lon="-13.475787">
        <ele>100.810</ele>
        <time>2021-11-07T10:19:03Z</time>
      </trkpt>
      <trkpt lat="29.080899" lon="-13.475980">
        <ele>100.996</ele>
        <time>2021-11-07T10:19:18Z</time>
      </trkpt>
      <trkpt lat="29.080824" lon="-13.475697">
        <ele>101.018</ele>
        <time>2021-11-07T10:20:28Z</time>
      </trkpt>
      <trkpt lat="29.080607" lon="-13.475619">
        <ele>101.495</ele>
        <time>2021-11-07T10:21:04Z</time>
      </trkpt>
      <trkpt lat="29.080673" lon="-13.475898">
        <ele>100.349</ele>
        <time>2021-11-07T10:21:34Z</time>
      </trkpt>
      <trkpt lat="29.080925" lon="-13.476050">
        <ele>101.023</ele>
        <time>2021-11-07T10:22:17Z</time>
      </trkpt>
      <trkpt lat="29.080707" lon="-13.476482">
        <ele>99.108</ele>
        <time>2021-11-07T10:23:37Z</time>
      </trkpt>
      <trkpt lat="29.080406" lon="-13.476690">
        <ele>93.647</ele>
        <time>2021-11-07T10:25:12Z</time>
      </trkpt>
      <trkpt lat="29.080409" lon="-13.476903">
        <ele>94.727</ele>
        <time>2021-11-07T10:25:46Z</time>
      </trkpt>
      <trkpt lat="29.081262" lon="-13.476594">
        <ele>98.614</ele>
        <time>2021-11-07T10:29:02Z</time>
      </trkpt>
      <trkpt lat="29.081550" lon="-13.476166">
        <ele>93.969</ele>
        <time>2021-11-07T10:29:12Z</time>
      </trkpt>
      <trkpt lat="29.081883" lon="-13.474599">
        <ele>100.441</ele>
        <time>2021-11-07T10:29:41Z</time>
      </trkpt>
      <trkpt lat="29.082328" lon="-13.474037">
        <ele>97.111</ele>
        <time>2021-11-07T10:29:54Z</time>
      </trkpt>
      <trkpt lat="29.087521" lon="-13.471667">
        <ele>80.067</ele>
        <time>2021-11-07T10:31:22Z</time>
      </trkpt>
      <trkpt lat="29.091179" lon="-13.471553">
        <ele>71.729</ele>
        <time>2021-11-07T10:32:19Z</time>
      </trkpt>
      <trkpt lat="29.092602" lon="-13.470848">
        <ele>66.057</ele>
        <time>2021-11-07T10:32:43Z</time>
      </trkpt>
      <trkpt lat="29.097217" lon="-13.469709">
        <ele>45.900</ele>
        <time>2021-11-07T10:33:55Z</time>
      </trkpt>
      <trkpt lat="29.103114" lon="-13.469514">
        <ele>41.520</ele>
        <time>2021-11-07T10:35:46Z</time>
      </trkpt>
      <trkpt lat="29.107869" lon="-13.468480">
        <ele>37.708</ele>
        <time>2021-11-07T10:37:17Z</time>
      </trkpt>
      <trkpt lat="29.108798" lon="-13.468496">
        <ele>43.923</ele>
        <time>2021-11-07T10:37:38Z</time>
      </trkpt>
      <trkpt lat="29.110806" lon="-13.467752">
        <ele>39.473</ele>
        <time>2021-11-07T10:38:33Z</time>
      </trkpt>
      <trkpt lat="29.112724" lon="-13.467387">
        <ele>43.080</ele>
        <time>2021-11-07T10:39:15Z</time>
      </trkpt>
      <trkpt lat="29.119665" lon="-13.465570">
        <ele>21.855</ele>
        <time>2021-11-07T10:41:48Z</time>
      </trkpt>
      <trkpt lat="29.119811" lon="-13.465655">
        <ele>22.447</ele>
        <time>2021-11-07T10:42:43Z</time>
      </trkpt>
      <trkpt lat="29.119831" lon="-13.465528">
        <ele>22.367</ele>
        <time>2021-11-07T10:42:45Z</time>
      </trkpt>
      <trkpt lat="29.121164" lon="-13.465727">
        <ele>22.283</ele>
        <time>2021-11-07T10:43:14Z</time>
      </trkpt>
      <trkpt lat="29.121934" lon="-13.466233">
        <ele>20.635</ele>
        <time>2021-11-07T10:43:34Z</time>
      </trkpt>
      <trkpt lat="29.122057" lon="-13.465980">
        <ele>20.215</ele>
        <time>2021-11-07T10:43:54Z</time>
      </trkpt>
      <trkpt lat="29.121988" lon="-13.466267">
        <ele>20.565</ele>
        <time>2021-11-07T10:44:55Z</time>
      </trkpt>
      <trkpt lat="29.122146" lon="-13.466385">
        <ele>20.711</ele>
        <time>2021-11-07T10:45:04Z</time>
      </trkpt>
      <trkpt lat="29.123962" lon="-13.467006">
        <ele>10.108</ele>
        <time>2021-11-07T10:45:37Z</time>
      </trkpt>
      <trkpt lat="29.125207" lon="-13.467011">
        <ele>11.279</ele>
        <time>2021-11-07T10:46:00Z</time>
      </trkpt>
      <trkpt lat="29.127335" lon="-13.466687">
        <ele>6.279</ele>
        <time>2021-11-07T10:46:44Z</time>
      </trkpt>
      <trkpt lat="29.130687" lon="-13.465486">
        <ele>9.366</ele>
        <time>2021-11-07T10:47:51Z</time>
      </trkpt>
      <trkpt lat="29.131356" lon="-13.465130">
        <ele>13.521</ele>
        <time>2021-11-07T10:48:08Z</time>
      </trkpt>
      <trkpt lat="29.131238" lon="-13.464514">
        <ele>11.083</ele>
        <time>2021-11-07T10:48:29Z</time>
      </trkpt>
      <trkpt lat="29.130195" lon="-13.463695">
        <ele>7.343</ele>
        <time>2021-11-07T10:48:56Z</time>
      </trkpt>
      <trkpt lat="29.129843" lon="-13.464077">
        <ele>7.559</ele>
        <time>2021-11-07T10:49:36Z</time>
      </trkpt>
      <trkpt lat="29.130151" lon="-13.463567">
        <ele>7.461</ele>
        <time>2021-11-07T10:49:56Z</time>
      </trkpt>
      <trkpt lat="29.129809" lon="-13.463264">
        <ele>6.224</ele>
        <time>2021-11-07T10:50:07Z</time>
      </trkpt>
      <trkpt lat="29.129598" lon="-13.463456">
        <ele>6.204</ele>
        <time>2021-11-07T10:50:17Z</time>
      </trkpt>
      <trkpt lat="29.129345" lon="-13.463004">
        <ele>4.514</ele>
        <time>2021-11-07T10:52:57Z</time>
      </trkpt>
      <trkpt lat="29.129634" lon="-13.463408">
        <ele>6.108</ele>
        <time>2021-11-07T10:54:55Z</time>
      </trkpt>
      <trkpt lat="29.129760" lon="-13.463246">
        <ele>6.040</ele>
        <time>2021-11-07T10:55:09Z</time>
      </trkpt>
      <trkpt lat="29.129932" lon="-13.463328">
        <ele>6.720</ele>
        <time>2021-11-07T10:55:15Z</time>
      </trkpt>
      <trkpt lat="29.131135" lon="-13.464498">
        <ele>11.037</ele>
        <time>2021-11-07T10:55:54Z</time>
      </trkpt>
      <trkpt lat="29.131828" lon="-13.464279">
        <ele>12.812</ele>
        <time>2021-11-07T10:56:14Z</time>
      </trkpt>
      <trkpt lat="29.132223" lon="-13.464521">
        <ele>13.054</ele>
        <time>2021-11-07T10:56:25Z</time>
      </trkpt>
      <trkpt lat="29.132294" lon="-13.464794">
        <ele>13.814</ele>
        <time>2021-11-07T10:56:34Z</time>
      </trkpt>
      <trkpt lat="29.131984" lon="-13.465024">
        <ele>13.210</ele>
        <time>2021-11-07T10:56:50Z</time>
      </trkpt>
      <trkpt lat="29.133028" lon="-13.464569">
        <ele>17.612</ele>
        <time>2021-11-07T10:57:19Z</time>
      </trkpt>
      <trkpt lat="29.133512" lon="-13.464189">
        <ele>12.918</ele>
        <time>2021-11-07T10:57:40Z</time>
      </trkpt>
      <trkpt lat="29.133976" lon="-13.464903">
        <ele>13.498</ele>
        <time>2021-11-07T10:58:31Z</time>
      </trkpt>
      <trkpt lat="29.139420" lon="-13.470591">
        <ele>41.817</ele>
        <time>2021-11-07T11:01:37Z</time>
      </trkpt>
      <trkpt lat="29.141131" lon="-13.473592">
        <ele>66.508</ele>
        <time>2021-11-07T11:03:12Z</time>
      </trkpt>
      <trkpt lat="29.141434" lon="-13.474616">
        <ele>65.829</ele>
        <time>2021-11-07T11:03:38Z</time>
      </trkpt>
      <trkpt lat="29.141547" lon="-13.475864">
        <ele>78.479</ele>
        <time>2021-11-07T11:04:09Z</time>
      </trkpt>
      <trkpt lat="29.141343" lon="-13.479422">
        <ele>102.536</ele>
        <time>2021-11-07T11:05:38Z</time>
      </trkpt>
      <trkpt lat="29.141382" lon="-13.481597">
        <ele>118.731</ele>
        <time>2021-11-07T11:06:37Z</time>
      </trkpt>
      <trkpt lat="29.140980" lon="-13.483181">
        <ele>122.453</ele>
        <time>2021-11-07T11:07:23Z</time>
      </trkpt>
      <trkpt lat="29.141185" lon="-13.483788">
        <ele>132.623</ele>
        <time>2021-11-07T11:07:41Z</time>
      </trkpt>
      <trkpt lat="29.141413" lon="-13.483904">
        <ele>138.429</ele>
        <time>2021-11-07T11:07:50Z</time>
      </trkpt>
      <trkpt lat="29.141738" lon="-13.483843">
        <ele>141.511</ele>
        <time>2021-11-07T11:08:01Z</time>
      </trkpt>
      <trkpt lat="29.143104" lon="-13.482196">
        <ele>160.482</ele>
        <time>2021-11-07T11:09:15Z</time>
      </trkpt>
      <trkpt lat="29.143823" lon="-13.480193">
        <ele>164.443</ele>
        <time>2021-11-07T11:10:23Z</time>
      </trkpt>
      <trkpt lat="29.145172" lon="-13.477367">
        <ele>194.217</ele>
        <time>2021-11-07T11:12:14Z</time>
      </trkpt>
      <trkpt lat="29.145194" lon="-13.477274">
        <ele>194.408</ele>
        <time>2021-11-07T11:12:18Z</time>
      </trkpt>
      <trkpt lat="29.145016" lon="-13.477417">
        <ele>188.426</ele>
        <time>2021-11-07T11:12:37Z</time>
      </trkpt>
      <trkpt lat="29.144996" lon="-13.477203">
        <ele>184.596</ele>
        <time>2021-11-07T11:12:43Z</time>
      </trkpt>
      <trkpt lat="29.145153" lon="-13.477409">
        <ele>193.723</ele>
        <time>2021-11-07T11:16:14Z</time>
      </trkpt>
      <trkpt lat="29.145731" lon="-13.476364">
        <ele>196.688</ele>
        <time>2021-11-07T11:17:24Z</time>
      </trkpt>
      <trkpt lat="29.146359" lon="-13.476065">
        <ele>201.730</ele>
        <time>2021-11-07T11:18:06Z</time>
      </trkpt>
      <trkpt lat="29.147029" lon="-13.476201">
        <ele>207.210</ele>
        <time>2021-11-07T11:18:34Z</time>
      </trkpt>
      <trkpt lat="29.147651" lon="-13.476873">
        <ele>216.886</ele>
        <time>2021-11-07T11:19:03Z</time>
      </trkpt>
      <trkpt lat="29.147911" lon="-13.477518">
        <ele>218.418</ele>
        <time>2021-11-07T11:19:23Z</time>
      </trkpt>
      <trkpt lat="29.148302" lon="-13.479995">
        <ele>229.153</ele>
        <time>2021-11-07T11:20:20Z</time>
      </trkpt>
      <trkpt lat="29.147070" lon="-13.482203">
        <ele>240.504</ele>
        <time>2021-11-07T11:21:18Z</time>
      </trkpt>
      <trkpt lat="29.145982" lon="-13.483803">
        <ele>251.314</ele>
        <time>2021-11-07T11:22:05Z</time>
      </trkpt>
      <trkpt lat="29.144978" lon="-13.488183">
        <ele>275.008</ele>
        <time>2021-11-07T11:24:45Z</time>
      </trkpt>
      <trkpt lat="29.144713" lon="-13.488861">
        <ele>277.393</ele>
        <time>2021-11-07T11:25:09Z</time>
      </trkpt>
      <trkpt lat="29.144226" lon="-13.491371">
        <ele>281.723</ele>
        <time>2021-11-07T11:25:57Z</time>
      </trkpt>
      <trkpt lat="29.144418" lon="-13.492018">
        <ele>284.570</ele>
        <time>2021-11-07T11:26:11Z</time>
      </trkpt>
      <trkpt lat="29.145616" lon="-13.494417">
        <ele>280.335</ele>
        <time>2021-11-07T11:27:09Z</time>
      </trkpt>
      <trkpt lat="29.146074" lon="-13.497208">
        <ele>278.537</ele>
        <time>2021-11-07T11:27:59Z</time>
      </trkpt>
      <trkpt lat="29.145982" lon="-13.497497">
        <ele>279.427</ele>
        <time>2021-11-07T11:29:00Z</time>
      </trkpt>
      <trkpt lat="29.145554" lon="-13.497571">
        <ele>282.323</ele>
        <time>2021-11-07T11:29:17Z</time>
      </trkpt>
      <trkpt lat="29.145345" lon="-13.498281">
        <ele>286.955</ele>
        <time>2021-11-07T11:29:38Z</time>
      </trkpt>
      <trkpt lat="29.144707" lon="-13.499449">
        <ele>294.133</ele>
        <time>2021-11-07T11:30:13Z</time>
      </trkpt>
      <trkpt lat="29.143250" lon="-13.501317">
        <ele>300.123</ele>
        <time>2021-11-07T11:31:32Z</time>
      </trkpt>
      <trkpt lat="29.143276" lon="-13.501492">
        <ele>298.815</ele>
        <time>2021-11-07T11:31:36Z</time>
      </trkpt>
      <trkpt lat="29.143784" lon="-13.501894">
        <ele>292.508</ele>
        <time>2021-11-07T11:31:49Z</time>
      </trkpt>
      <trkpt lat="29.142990" lon="-13.502641">
        <ele>298.671</ele>
        <time>2021-11-07T11:32:13Z</time>
      </trkpt>
      <trkpt lat="29.141442" lon="-13.503481">
        <ele>306.971</ele>
        <time>2021-11-07T11:33:00Z</time>
      </trkpt>
      <trkpt lat="29.141516" lon="-13.503698">
        <ele>304.788</ele>
        <time>2021-11-07T11:33:22Z</time>
      </trkpt>
      <trkpt lat="29.141381" lon="-13.503602">
        <ele>306.283</ele>
        <time>2021-11-07T11:33:42Z</time>
      </trkpt>
      <trkpt lat="29.141568" lon="-13.503765">
        <ele>304.185</ele>
        <time>2021-11-07T11:35:55Z</time>
      </trkpt>
      <trkpt lat="29.141817" lon="-13.503743">
        <ele>302.785</ele>
        <time>2021-11-07T11:36:46Z</time>
      </trkpt>
      <trkpt lat="29.141709" lon="-13.503731">
        <ele>303.791</ele>
        <time>2021-11-07T11:37:24Z</time>
      </trkpt>
      <trkpt lat="29.141861" lon="-13.503607">
        <ele>302.283</ele>
        <time>2021-11-07T11:39:33Z</time>
      </trkpt>
      <trkpt lat="29.141731" lon="-13.503546">
        <ele>304.041</ele>
        <time>2021-11-07T11:40:11Z</time>
      </trkpt>
      <trkpt lat="29.141741" lon="-13.503745">
        <ele>303.481</ele>
        <time>2021-11-07T11:41:14Z</time>
      </trkpt>
      <trkpt lat="29.141858" lon="-13.503665">
        <ele>302.309</ele>
        <time>2021-11-07T11:43:03Z</time>
      </trkpt>
      <trkpt lat="29.142082" lon="-13.503885">
        <ele>302.008</ele>
        <time>2021-11-07T11:48:35Z</time>
      </trkpt>
      <trkpt lat="29.141867" lon="-13.503834">
        <ele>302.222</ele>
        <time>2021-11-07T11:49:27Z</time>
      </trkpt>
      <trkpt lat="29.141755" lon="-13.504343">
        <ele>307.642</ele>
        <time>2021-11-07T11:51:11Z</time>
      </trkpt>
      <trkpt lat="29.141858" lon="-13.504508">
        <ele>308.479</ele>
        <time>2021-11-07T11:51:46Z</time>
      </trkpt>
      <trkpt lat="29.141660" lon="-13.503858">
        <ele>303.254</ele>
        <time>2021-11-07T11:57:10Z</time>
      </trkpt>
      <trkpt lat="29.141446" lon="-13.503834">
        <ele>303.686</ele>
        <time>2021-11-07T11:58:08Z</time>
      </trkpt>
      <trkpt lat="29.141394" lon="-13.503565">
        <ele>306.536</ele>
        <time>2021-11-07T11:59:46Z</time>
      </trkpt>
      <trkpt lat="29.143031" lon="-13.502555">
        <ele>298.842</ele>
        <time>2021-11-07T12:00:44Z</time>
      </trkpt>
      <trkpt lat="29.143577" lon="-13.501860">
        <ele>294.114</ele>
        <time>2021-11-07T12:01:18Z</time>
      </trkpt>
      <trkpt lat="29.144181" lon="-13.501540">
        <ele>289.131</ele>
        <time>2021-11-07T12:01:36Z</time>
      </trkpt>
      <trkpt lat="29.144477" lon="-13.501149">
        <ele>287.161</ele>
        <time>2021-11-07T12:01:47Z</time>
      </trkpt>
      <trkpt lat="29.144828" lon="-13.501038">
        <ele>287.607</ele>
        <time>2021-11-07T12:01:54Z</time>
      </trkpt>
      <trkpt lat="29.145051" lon="-13.500623">
        <ele>287.608</ele>
        <time>2021-11-07T12:02:02Z</time>
      </trkpt>
      <trkpt lat="29.145827" lon="-13.500342">
        <ele>286.811</ele>
        <time>2021-11-07T12:02:21Z</time>
      </trkpt>
      <trkpt lat="29.145917" lon="-13.500434">
        <ele>285.441</ele>
        <time>2021-11-07T12:02:44Z</time>
      </trkpt>
      <trkpt lat="29.145768" lon="-13.501295">
        <ele>286.818</ele>
        <time>2021-11-07T12:03:19Z</time>
      </trkpt>
      <trkpt lat="29.145961" lon="-13.500238">
        <ele>285.973</ele>
        <time>2021-11-07T12:03:57Z</time>
      </trkpt>
      <trkpt lat="29.146294" lon="-13.499681">
        <ele>287.835</ele>
        <time>2021-11-07T12:05:28Z</time>
      </trkpt>
      <trkpt lat="29.146283" lon="-13.499824">
        <ele>287.625</ele>
        <time>2021-11-07T12:07:22Z</time>
      </trkpt>
      <trkpt lat="29.146312" lon="-13.499678">
        <ele>287.881</ele>
        <time>2021-11-07T12:18:20Z</time>
      </trkpt>
      <trkpt lat="29.146263" lon="-13.499803">
        <ele>287.763</ele>
        <time>2021-11-07T12:19:34Z</time>
      </trkpt>
      <trkpt lat="29.146374" lon="-13.499683">
        <ele>287.787</ele>
        <time>2021-11-07T12:36:05Z</time>
      </trkpt>
      <trkpt lat="29.147157" lon="-13.499739">
        <ele>289.942</ele>
        <time>2021-11-07T12:36:27Z</time>
      </trkpt>
      <trkpt lat="29.149659" lon="-13.500475">
        <ele>309.526</ele>
        <time>2021-11-07T12:37:51Z</time>
      </trkpt>
      <trkpt lat="29.150473" lon="-13.500430">
        <ele>310.508</ele>
        <time>2021-11-07T12:38:19Z</time>
      </trkpt>
      <trkpt lat="29.151826" lon="-13.499924">
        <ele>303.666</ele>
        <time>2021-11-07T12:38:41Z</time>
      </trkpt>
      <trkpt lat="29.152851" lon="-13.498919">
        <ele>289.936</ele>
        <time>2021-11-07T12:38:55Z</time>
      </trkpt>
      <trkpt lat="29.153533" lon="-13.497837">
        <ele>277.113</ele>
        <time>2021-11-07T12:39:07Z</time>
      </trkpt>
      <trkpt lat="29.154487" lon="-13.497290">
        <ele>264.648</ele>
        <time>2021-11-07T12:39:18Z</time>
      </trkpt>
      <trkpt lat="29.158257" lon="-13.496519">
        <ele>258.960</ele>
        <time>2021-11-07T12:40:13Z</time>
      </trkpt>
      <trkpt lat="29.159023" lon="-13.496314">
        <ele>262.750</ele>
        <time>2021-11-07T12:40:34Z</time>
      </trkpt>
      <trkpt lat="29.159119" lon="-13.496144">
        <ele>262.896</ele>
        <time>2021-11-07T12:40:41Z</time>
      </trkpt>
      <trkpt lat="29.159237" lon="-13.496242">
        <ele>263.548</ele>
        <time>2021-11-07T12:40:52Z</time>
      </trkpt>
      <trkpt lat="29.161282" lon="-13.495917">
        <ele>274.543</ele>
        <time>2021-11-07T12:41:48Z</time>
      </trkpt>
      <trkpt lat="29.161830" lon="-13.495654">
        <ele>277.764</ele>
        <time>2021-11-07T12:42:04Z</time>
      </trkpt>
      <trkpt lat="29.163612" lon="-13.495287">
        <ele>293.010</ele>
        <time>2021-11-07T12:42:59Z</time>
      </trkpt>
      <trkpt lat="29.165594" lon="-13.494416">
        <ele>309.108</ele>
        <time>2021-11-07T12:44:11Z</time>
      </trkpt>
      <trkpt lat="29.167609" lon="-13.493827">
        <ele>317.222</ele>
        <time>2021-11-07T12:45:15Z</time>
      </trkpt>
      <trkpt lat="29.168575" lon="-13.493349">
        <ele>311.832</ele>
        <time>2021-11-07T12:45:41Z</time>
      </trkpt>
      <trkpt lat="29.174497" lon="-13.491870">
        <ele>344.769</ele>
        <time>2021-11-07T12:48:29Z</time>
      </trkpt>
      <trkpt lat="29.175894" lon="-13.491103">
        <ele>352.944</ele>
        <time>2021-11-07T12:49:12Z</time>
      </trkpt>
      <trkpt lat="29.178873" lon="-13.490542">
        <ele>364.056</ele>
        <time>2021-11-07T12:50:26Z</time>
      </trkpt>
      <trkpt lat="29.179705" lon="-13.490225">
        <ele>370.186</ele>
        <time>2021-11-07T12:50:58Z</time>
      </trkpt>
      <trkpt lat="29.181449" lon="-13.490157">
        <ele>384.142</ele>
        <time>2021-11-07T12:51:57Z</time>
      </trkpt>
      <trkpt lat="29.183584" lon="-13.491134">
        <ele>409.084</ele>
        <time>2021-11-07T12:53:48Z</time>
      </trkpt>
      <trkpt lat="29.184189" lon="-13.491278">
        <ele>411.298</ele>
        <time>2021-11-07T12:54:17Z</time>
      </trkpt>
      <trkpt lat="29.183935" lon="-13.491417">
        <ele>407.815</ele>
        <time>2021-11-07T12:54:31Z</time>
      </trkpt>
      <trkpt lat="29.183831" lon="-13.491196">
        <ele>408.426</ele>
        <time>2021-11-07T12:55:11Z</time>
      </trkpt>
      <trkpt lat="29.183789" lon="-13.491327">
        <ele>407.408</ele>
        <time>2021-11-07T12:56:25Z</time>
      </trkpt>
      <trkpt lat="29.183894" lon="-13.491194">
        <ele>408.557</ele>
        <time>2021-11-07T12:56:43Z</time>
      </trkpt>
      <trkpt lat="29.186521" lon="-13.491209">
        <ele>389.117</ele>
        <time>2021-11-07T12:57:47Z</time>
      </trkpt>
      <trkpt lat="29.188582" lon="-13.490353">
        <ele>374.324</ele>
        <time>2021-11-07T12:58:08Z</time>
      </trkpt>
      <trkpt lat="29.190497" lon="-13.488775">
        <ele>364.249</ele>
        <time>2021-11-07T12:58:44Z</time>
      </trkpt>
      <trkpt lat="29.192689" lon="-13.488286">
        <ele>366.211</ele>
        <time>2021-11-07T12:59:37Z</time>
      </trkpt>
      <trkpt lat="29.194769" lon="-13.490052">
        <ele>363.671</ele>
        <time>2021-11-07T13:00:26Z</time>
      </trkpt>
      <trkpt lat="29.196402" lon="-13.491110">
        <ele>359.017</ele>
        <time>2021-11-07T13:01:00Z</time>
      </trkpt>
      <trkpt lat="29.196783" lon="-13.491250">
        <ele>359.329</ele>
        <time>2021-11-07T13:01:06Z</time>
      </trkpt>
      <trkpt lat="29.198051" lon="-13.491310">
        <ele>357.356</ele>
        <time>2021-11-07T13:01:31Z</time>
      </trkpt>
      <trkpt lat="29.198178" lon="-13.491756">
        <ele>358.059</ele>
        <time>2021-11-07T13:01:45Z</time>
      </trkpt>
      <trkpt lat="29.198347" lon="-13.491876">
        <ele>362.414</ele>
        <time>2021-11-07T13:01:52Z</time>
      </trkpt>
      <trkpt lat="29.199409" lon="-13.491771">
        <ele>374.008</ele>
        <time>2021-11-07T13:02:35Z</time>
      </trkpt>
      <trkpt lat="29.200814" lon="-13.490843">
        <ele>376.163</ele>
        <time>2021-11-07T13:03:56Z</time>
      </trkpt>
      <trkpt lat="29.200677" lon="-13.490829">
        <ele>377.843</ele>
        <time>2021-11-07T13:04:21Z</time>
      </trkpt>
      <trkpt lat="29.201217" lon="-13.490079">
        <ele>388.450</ele>
        <time>2021-11-07T13:04:56Z</time>
      </trkpt>
      <trkpt lat="29.201778" lon="-13.489783">
        <ele>388.015</ele>
        <time>2021-11-07T13:05:41Z</time>
      </trkpt>
      <trkpt lat="29.202633" lon="-13.489013">
        <ele>395.697</ele>
        <time>2021-11-07T13:07:27Z</time>
      </trkpt>
      <trkpt lat="29.203151" lon="-13.488937">
        <ele>397.427</ele>
        <time>2021-11-07T13:07:43Z</time>
      </trkpt>
      <trkpt lat="29.204192" lon="-13.488498">
        <ele>406.963</ele>
        <time>2021-11-07T13:08:29Z</time>
      </trkpt>
      <trkpt lat="29.205891" lon="-13.488887">
        <ele>419.225</ele>
        <time>2021-11-07T13:09:53Z</time>
      </trkpt>
      <trkpt lat="29.205703" lon="-13.488705">
        <ele>424.595</ele>
        <time>2021-11-07T13:12:04Z</time>
      </trkpt>
      <trkpt lat="29.206273" lon="-13.488335">
        <ele>429.049</ele>
        <time>2021-11-07T13:12:44Z</time>
      </trkpt>
      <trkpt lat="29.206531" lon="-13.487959">
        <ele>433.623</ele>
        <time>2021-11-07T13:13:06Z</time>
      </trkpt>
      <trkpt lat="29.207277" lon="-13.487831">
        <ele>439.808</ele>
        <time>2021-11-07T13:13:41Z</time>
      </trkpt>
      <trkpt lat="29.207284" lon="-13.488155">
        <ele>428.567</ele>
        <time>2021-11-07T13:14:17Z</time>
      </trkpt>
      <trkpt lat="29.207393" lon="-13.488112">
        <ele>434.747</ele>
        <time>2021-11-07T13:14:51Z</time>
      </trkpt>
      <trkpt lat="29.207277" lon="-13.487846">
        <ele>439.064</ele>
        <time>2021-11-07T13:15:55Z</time>
      </trkpt>
      <trkpt lat="29.209114" lon="-13.486733">
        <ele>446.059</ele>
        <time>2021-11-07T13:16:54Z</time>
      </trkpt>
      <trkpt lat="29.211518" lon="-13.483961">
        <ele>440.861</ele>
        <time>2021-11-07T13:18:36Z</time>
      </trkpt>
      <trkpt lat="29.212447" lon="-13.483450">
        <ele>446.771</ele>
        <time>2021-11-07T13:19:13Z</time>
      </trkpt>
      <trkpt lat="29.213007" lon="-13.482100">
        <ele>451.737</ele>
        <time>2021-11-07T13:20:01Z</time>
      </trkpt>
      <trkpt lat="29.213727" lon="-13.481111">
        <ele>478.369</ele>
        <time>2021-11-07T13:20:48Z</time>
      </trkpt>
      <trkpt lat="29.214037" lon="-13.481009">
        <ele>474.224</ele>
        <time>2021-11-07T13:21:04Z</time>
      </trkpt>
      <trkpt lat="29.214524" lon="-13.481157">
        <ele>477.004</ele>
        <time>2021-11-07T13:30:00Z</time>
      </trkpt>
      <trkpt lat="29.214398" lon="-13.481244">
        <ele>477.314</ele>
        <time>2021-11-07T13:30:45Z</time>
      </trkpt>
      <trkpt lat="29.214421" lon="-13.481566">
        <ele>470.808</ele>
        <time>2021-11-07T13:31:04Z</time>
      </trkpt>
      <trkpt lat="29.214632" lon="-13.481312">
        <ele>469.520</ele>
        <time>2021-11-07T13:32:42Z</time>
      </trkpt>
      <trkpt lat="29.214591" lon="-13.481087">
        <ele>477.770</ele>
        <time>2021-11-07T13:33:51Z</time>
      </trkpt>
      <trkpt lat="29.214484" lon="-13.481039">
        <ele>478.217</ele>
        <time>2021-11-07T13:34:10Z</time>
      </trkpt>
      <trkpt lat="29.214571" lon="-13.481347">
        <ele>471.472</ele>
        <time>2021-11-07T13:35:40Z</time>
      </trkpt>
      <trkpt lat="29.214557" lon="-13.481119">
        <ele>477.424</ele>
        <time>2021-11-07T13:40:15Z</time>
      </trkpt>
      <trkpt lat="29.214429" lon="-13.481121">
        <ele>477.844</ele>
        <time>2021-11-07T13:40:31Z</time>
      </trkpt>
      <trkpt lat="29.214513" lon="-13.481264">
        <ele>475.630</ele>
        <time>2021-11-07T13:41:42Z</time>
      </trkpt>
      <trkpt lat="29.214604" lon="-13.481019">
        <ele>478.122</ele>
        <time>2021-11-07T13:50:55Z</time>
      </trkpt>
      <trkpt lat="29.214477" lon="-13.481160">
        <ele>477.612</ele>
        <time>2021-11-07T13:51:35Z</time>
      </trkpt>
      <trkpt lat="29.214573" lon="-13.481160">
        <ele>476.232</ele>
        <time>2021-11-07T13:51:44Z</time>
      </trkpt>
      <trkpt lat="29.214540" lon="-13.481329">
        <ele>473.305</ele>
        <time>2021-11-07T13:52:01Z</time>
      </trkpt>
      <trkpt lat="29.214494" lon="-13.481089">
        <ele>477.908</ele>
        <time>2021-11-07T13:53:01Z</time>
      </trkpt>
      <trkpt lat="29.214522" lon="-13.481181">
        <ele>476.619</ele>
        <time>2021-11-07T13:53:21Z</time>
      </trkpt>
      <trkpt lat="29.214317" lon="-13.481194">
        <ele>476.489</ele>
        <time>2021-11-07T13:55:16Z</time>
      </trkpt>
      <trkpt lat="29.213926" lon="-13.481040">
        <ele>474.556</ele>
        <time>2021-11-07T13:57:49Z</time>
      </trkpt>
      <trkpt lat="29.213713" lon="-13.481206">
        <ele>476.141</ele>
        <time>2021-11-07T13:58:17Z</time>
      </trkpt>
      <trkpt lat="29.213148" lon="-13.481821">
        <ele>456.833</ele>
        <time>2021-11-07T13:59:38Z</time>
      </trkpt>
      <trkpt lat="29.212678" lon="-13.482981">
        <ele>446.673</ele>
        <time>2021-11-07T14:00:08Z</time>
      </trkpt>
      <trkpt lat="29.212991" lon="-13.482138">
        <ele>451.079</ele>
        <time>2021-11-07T14:00:39Z</time>
      </trkpt>
      <trkpt lat="29.213624" lon="-13.481234">
        <ele>478.361</ele>
        <time>2021-11-07T14:01:12Z</time>
      </trkpt>
      <trkpt lat="29.211646" lon="-13.481201">
        <ele>449.627</ele>
        <time>2021-11-07T14:01:34Z</time>
      </trkpt>
      <trkpt lat="29.209391" lon="-13.482014">
        <ele>435.368</ele>
        <time>2021-11-07T14:01:54Z</time>
      </trkpt>
      <trkpt lat="29.208420" lon="-13.482074">
        <ele>429.914</ele>
        <time>2021-11-07T14:02:03Z</time>
      </trkpt>
      <trkpt lat="29.201175" lon="-13.479800">
        <ele>400.308</ele>
        <time>2021-11-07T14:03:11Z</time>
      </trkpt>
      <trkpt lat="29.198736" lon="-13.479917">
        <ele>379.760</ele>
        <time>2021-11-07T14:03:35Z</time>
      </trkpt>
      <trkpt lat="29.196308" lon="-13.478227">
        <ele>370.060</ele>
        <time>2021-11-07T14:04:00Z</time>
      </trkpt>
      <trkpt lat="29.195992" lon="-13.478823">
        <ele>373.777</ele>
        <time>2021-11-07T14:04:32Z</time>
      </trkpt>
      <trkpt lat="29.196038" lon="-13.478695">
        <ele>373.892</ele>
        <time>2021-11-07T14:04:58Z</time>
      </trkpt>
      <trkpt lat="29.195846" lon="-13.478633">
        <ele>371.144</ele>
        <time>2021-11-07T14:06:14Z</time>
      </trkpt>
      <trkpt lat="29.196064" lon="-13.478674">
        <ele>374.014</ele>
        <time>2021-11-07T14:11:39Z</time>
      </trkpt>
      <trkpt lat="29.195789" lon="-13.478606">
        <ele>370.840</ele>
        <time>2021-11-07T14:14:52Z</time>
      </trkpt>
      <trkpt lat="29.196068" lon="-13.478722">
        <ele>374.592</ele>
        <time>2021-11-07T14:15:36Z</time>
      </trkpt>
      <trkpt lat="29.195834" lon="-13.478651">
        <ele>370.966</ele>
        <time>2021-11-07T14:26:01Z</time>
      </trkpt>
      <trkpt lat="29.195955" lon="-13.478644">
        <ele>372.429</ele>
        <time>2021-11-07T14:34:23Z</time>
      </trkpt>
      <trkpt lat="29.194357" lon="-13.474474">
        <ele>356.421</ele>
        <time>2021-11-09T18:53:50Z</time>
      </trkpt>
      <trkpt lat="29.190982" lon="-13.472328">
        <ele>347.108</ele>
        <time>2021-11-09T18:54:10Z</time>
      </trkpt>
      <trkpt lat="29.187537" lon="-13.471813">
        <ele>325.254</ele>
        <time>2021-11-09T18:54:30Z</time>
      </trkpt>
      <trkpt lat="29.184840" lon="-13.473358">
        <ele>300.014</ele>
        <time>2021-11-09T18:54:50Z</time>
      </trkpt>
      <trkpt lat="29.179068" lon="-13.469667">
        <ele>271.421</ele>
        <time>2021-11-09T18:55:10Z</time>
      </trkpt>
      <trkpt lat="29.176295" lon="-13.469753">
        <ele>246.136</ele>
        <time>2021-11-09T18:55:30Z</time>
      </trkpt>
      <trkpt lat="29.176221" lon="-13.474817">
        <ele>221.338</ele>
        <time>2021-11-09T18:55:50Z</time>
      </trkpt>
      <trkpt lat="29.173747" lon="-13.474045">
        <ele>212.178</ele>
        <time>2021-11-09T18:56:10Z</time>
      </trkpt>
      <trkpt lat="29.171724" lon="-13.467693">
        <ele>182.564</ele>
        <time>2021-11-09T18:56:30Z</time>
      </trkpt>
      <trkpt lat="29.168501" lon="-13.466406">
        <ele>165.946</ele>
        <time>2021-11-09T18:56:50Z</time>
      </trkpt>
      <trkpt lat="29.160630" lon="-13.457394">
        <ele>125.233</ele>
        <time>2021-11-09T18:57:10Z</time>
      </trkpt>
      <trkpt lat="29.163480" lon="-13.450613">
        <ele>97.023</ele>
        <time>2021-11-09T18:57:30Z</time>
      </trkpt>
      <trkpt lat="29.162130" lon="-13.445463">
        <ele>76.715</ele>
        <time>2021-11-09T18:57:50Z</time>
      </trkpt>
      <trkpt lat="29.157569" lon="-13.434244">
        <ele>29.608</ele>
        <time>2021-11-07T16:29:59Z</time>
      </trkpt>
      <trkpt lat="29.156580" lon="-13.435158">
        <ele>27.061</ele>
        <time>2021-11-07T16:30:25Z</time>
      </trkpt>
      <trkpt lat="29.155689" lon="-13.437153">
        <ele>20.921</ele>
        <time>2021-11-07T16:30:51Z</time>
      </trkpt>
      <trkpt lat="29.153061" lon="-13.440346">
        <ele>11.548</ele>
        <time>2021-11-07T16:31:23Z</time>
      </trkpt>
      <trkpt lat="29.146643" lon="-13.450548">
        <ele>19.943</ele>
        <time>2021-11-07T16:33:37Z</time>
      </trkpt>
      <trkpt lat="29.145233" lon="-13.452070">
        <ele>17.395</ele>
        <time>2021-11-07T16:34:01Z</time>
      </trkpt>
      <trkpt lat="29.137490" lon="-13.458517">
        <ele>14.785</ele>
        <time>2021-11-07T16:36:00Z</time>
      </trkpt>
      <trkpt lat="29.136827" lon="-13.459579">
        <ele>18.921</ele>
        <time>2021-11-07T16:36:15Z</time>
      </trkpt>
      <trkpt lat="29.136154" lon="-13.462601">
        <ele>24.113</ele>
        <time>2021-11-07T16:36:58Z</time>
      </trkpt>
      <trkpt lat="29.133880" lon="-13.464188">
        <ele>15.812</ele>
        <time>2021-11-07T16:37:26Z</time>
      </trkpt>
      <trkpt lat="29.133499" lon="-13.464640">
        <ele>17.432</ele>
        <time>2021-11-07T16:37:32Z</time>
      </trkpt>
      <trkpt lat="29.128569" lon="-13.466383">
        <ele>8.105</ele>
        <time>2021-11-07T16:38:25Z</time>
      </trkpt>
      <trkpt lat="29.127099" lon="-13.466769">
        <ele>7.708</ele>
        <time>2021-11-07T16:38:50Z</time>
      </trkpt>
      <trkpt lat="29.126980" lon="-13.466667">
        <ele>8.769</ele>
        <time>2021-11-07T16:38:55Z</time>
      </trkpt>
      <trkpt lat="29.126872" lon="-13.465651">
        <ele>3.449</ele>
        <time>2021-11-07T16:39:16Z</time>
      </trkpt>
      <trkpt lat="29.126502" lon="-13.464897">
        <ele>0.336</ele>
        <time>2021-11-07T16:39:37Z</time>
      </trkpt>
      <trkpt lat="29.127566" lon="-13.465053">
        <ele>3.481</ele>
        <time>2021-11-07T16:40:09Z</time>
      </trkpt>
      <trkpt lat="29.128013" lon="-13.464908">
        <ele>-2.383</ele>
        <time>2021-11-07T16:40:32Z</time>
      </trkpt>
      <trkpt lat="29.128064" lon="-13.464720">
        <ele>-3.943</ele>
        <time>2021-11-07T16:41:36Z</time>
      </trkpt>
      <trkpt lat="29.128745" lon="-13.464344">
        <ele>1.879</ele>
        <time>2021-11-07T16:43:09Z</time>
      </trkpt>
      <trkpt lat="29.128785" lon="-13.464477">
        <ele>2.391</ele>
        <time>2021-11-07T16:46:55Z</time>
      </trkpt>
      <trkpt lat="29.127865" lon="-13.464970">
        <ele>-0.238</ele>
        <time>2021-11-07T16:49:07Z</time>
      </trkpt>
      <trkpt lat="29.126875" lon="-13.464914">
        <ele>1.470</ele>
        <time>2021-11-07T16:49:38Z</time>
      </trkpt>
      <trkpt lat="29.126595" lon="-13.465029">
        <ele>1.217</ele>
        <time>2021-11-07T16:49:45Z</time>
      </trkpt>
      <trkpt lat="29.126539" lon="-13.465399">
        <ele>3.408</ele>
        <time>2021-11-07T16:49:54Z</time>
      </trkpt>
      <trkpt lat="29.126801" lon="-13.465675">
        <ele>3.741</ele>
        <time>2021-11-07T16:50:03Z</time>
      </trkpt>
      <trkpt lat="29.127053" lon="-13.466470">
        <ele>7.821</ele>
        <time>2021-11-07T16:50:26Z</time>
      </trkpt>
      <trkpt lat="29.126940" lon="-13.466834">
        <ele>9.058</ele>
        <time>2021-11-07T16:50:38Z</time>
      </trkpt>
      <trkpt lat="29.126751" lon="-13.466907">
        <ele>10.453</ele>
        <time>2021-11-07T16:50:43Z</time>
      </trkpt>
      <trkpt lat="29.124952" lon="-13.467154">
        <ele>8.635</ele>
        <time>2021-11-07T16:51:14Z</time>
      </trkpt>
      <trkpt lat="29.123625" lon="-13.467060">
        <ele>10.895</ele>
        <time>2021-11-07T16:51:35Z</time>
      </trkpt>
      <trkpt lat="29.122647" lon="-13.466745">
        <ele>14.261</ele>
        <time>2021-11-07T16:51:53Z</time>
      </trkpt>
      <trkpt lat="29.121070" lon="-13.465849">
        <ele>23.273</ele>
        <time>2021-11-07T16:52:26Z</time>
      </trkpt>
      <trkpt lat="29.120203" lon="-13.465689">
        <ele>23.138</ele>
        <time>2021-11-07T16:52:41Z</time>
      </trkpt>
      <trkpt lat="29.110225" lon="-13.468083">
        <ele>49.070</ele>
        <time>2021-11-07T16:55:32Z</time>
      </trkpt>
      <trkpt lat="29.109077" lon="-13.468821">
        <ele>44.817</ele>
        <time>2021-11-07T16:55:52Z</time>
      </trkpt>
      <trkpt lat="29.107424" lon="-13.470754">
        <ele>53.808</ele>
        <time>2021-11-07T16:56:26Z</time>
      </trkpt>
      <trkpt lat="29.106306" lon="-13.471703">
        <ele>51.951</ele>
        <time>2021-11-07T16:56:44Z</time>
      </trkpt>
      <trkpt lat="29.104609" lon="-13.472580">
        <ele>47.931</ele>
        <time>2021-11-07T16:57:07Z</time>
      </trkpt>
      <trkpt lat="29.101441" lon="-13.473755">
        <ele>53.768</ele>
        <time>2021-11-07T16:57:48Z</time>
      </trkpt>
      <trkpt lat="29.100281" lon="-13.474441">
        <ele>61.073</ele>
        <time>2021-11-07T16:58:05Z</time>
      </trkpt>
      <trkpt lat="29.099584" lon="-13.475101">
        <ele>63.355</ele>
        <time>2021-11-07T16:58:17Z</time>
      </trkpt>
      <trkpt lat="29.098041" lon="-13.477122">
        <ele>69.165</ele>
        <time>2021-11-07T16:58:48Z</time>
      </trkpt>
      <trkpt lat="29.096808" lon="-13.478440">
        <ele>72.941</ele>
        <time>2021-11-07T16:59:11Z</time>
      </trkpt>
      <trkpt lat="29.090911" lon="-13.483178">
        <ele>85.193</ele>
        <time>2021-11-07T17:01:02Z</time>
      </trkpt>
      <trkpt lat="29.083970" lon="-13.487675">
        <ele>101.231</ele>
        <time>2021-11-07T17:02:50Z</time>
      </trkpt>
      <trkpt lat="29.082518" lon="-13.488532">
        <ele>96.561</ele>
        <time>2021-11-07T17:03:12Z</time>
      </trkpt>
      <trkpt lat="29.080918" lon="-13.489256">
        <ele>103.907</ele>
        <time>2021-11-07T17:03:34Z</time>
      </trkpt>
      <trkpt lat="29.078479" lon="-13.489876">
        <ele>107.608</ele>
        <time>2021-11-07T17:04:06Z</time>
      </trkpt>
      <trkpt lat="29.076227" lon="-13.490030">
        <ele>101.751</ele>
        <time>2021-11-07T17:04:33Z</time>
      </trkpt>
      <trkpt lat="29.073957" lon="-13.489662">
        <ele>102.411</ele>
        <time>2021-11-07T17:04:59Z</time>
      </trkpt>
      <trkpt lat="29.068429" lon="-13.488363">
        <ele>100.338</ele>
        <time>2021-11-07T17:06:04Z</time>
      </trkpt>
      <trkpt lat="29.066739" lon="-13.488177">
        <ele>100.973</ele>
        <time>2021-11-07T17:06:28Z</time>
      </trkpt>
      <trkpt lat="29.065488" lon="-13.488263">
        <ele>105.575</ele>
        <time>2021-11-07T17:06:47Z</time>
      </trkpt>
      <trkpt lat="29.064308" lon="-13.488543">
        <ele>114.955</ele>
        <time>2021-11-07T17:07:04Z</time>
      </trkpt>
      <trkpt lat="29.062483" lon="-13.489425">
        <ele>121.011</ele>
        <time>2021-11-07T17:07:39Z</time>
      </trkpt>
      <trkpt lat="29.061634" lon="-13.490412">
        <ele>121.643</ele>
        <time>2021-11-07T17:07:57Z</time>
      </trkpt>
      <trkpt lat="29.061291" lon="-13.491238">
        <ele>121.552</ele>
        <time>2021-11-07T17:08:09Z</time>
      </trkpt>
      <trkpt lat="29.060912" lon="-13.491295">
        <ele>121.253</ele>
        <time>2021-11-07T17:08:15Z</time>
      </trkpt>
      <trkpt lat="29.060481" lon="-13.491587">
        <ele>123.508</ele>
        <time>2021-11-07T17:08:23Z</time>
      </trkpt>
      <trkpt lat="29.058678" lon="-13.493430">
        <ele>124.708</ele>
        <time>2021-11-07T17:08:56Z</time>
      </trkpt>
      <trkpt lat="29.054204" lon="-13.498855">
        <ele>139.713</ele>
        <time>2021-11-07T17:10:29Z</time>
      </trkpt>
      <trkpt lat="29.047336" lon="-13.506242">
        <ele>151.933</ele>
        <time>2021-11-07T17:12:33Z</time>
      </trkpt>
      <trkpt lat="29.046963" lon="-13.506988">
        <ele>147.340</ele>
        <time>2021-11-07T17:12:40Z</time>
      </trkpt>
      <trkpt lat="29.040326" lon="-13.512646">
        <ele>147.635</ele>
        <time>2021-11-07T17:14:03Z</time>
      </trkpt>
      <trkpt lat="29.039319" lon="-13.514029">
        <ele>155.237</ele>
        <time>2021-11-07T17:14:24Z</time>
      </trkpt>
      <trkpt lat="29.038857" lon="-13.515313">
        <ele>153.287</ele>
        <time>2021-11-07T17:14:42Z</time>
      </trkpt>
      <trkpt lat="29.037563" lon="-13.517453">
        <ele>165.583</ele>
        <time>2021-11-07T17:15:15Z</time>
      </trkpt>
      <trkpt lat="29.035909" lon="-13.518805">
        <ele>161.475</ele>
        <time>2021-11-07T17:15:43Z</time>
      </trkpt>
      <trkpt lat="29.034314" lon="-13.519845">
        <ele>163.977</ele>
        <time>2021-11-07T17:16:04Z</time>
      </trkpt>
      <trkpt lat="29.032978" lon="-13.521243">
        <ele>155.761</ele>
        <time>2021-11-07T17:16:20Z</time>
      </trkpt>
      <trkpt lat="29.032681" lon="-13.522066">
        <ele>153.327</ele>
        <time>2021-11-07T17:16:28Z</time>
      </trkpt>
      <trkpt lat="29.031668" lon="-13.522361">
        <ele>150.008</ele>
        <time>2021-11-07T17:16:39Z</time>
      </trkpt>
      <trkpt lat="29.029224" lon="-13.525216">
        <ele>150.655</ele>
        <time>2021-11-07T17:23:04Z</time>
      </trkpt>
      <trkpt lat="29.028302" lon="-13.526021">
        <ele>152.275</ele>
        <time>2021-11-07T17:23:16Z</time>
      </trkpt>
      <trkpt lat="29.027389" lon="-13.527156">
        <ele>155.152</ele>
        <time>2021-11-07T17:23:30Z</time>
      </trkpt>
      <trkpt lat="29.026836" lon="-13.528242">
        <ele>151.067</ele>
        <time>2021-11-07T17:23:40Z</time>
      </trkpt>
      <trkpt lat="29.026031" lon="-13.528931">
        <ele>148.319</ele>
        <time>2021-11-07T17:23:49Z</time>
      </trkpt>
      <trkpt lat="29.024770" lon="-13.530686">
        <ele>143.919</ele>
        <time>2021-11-07T17:24:07Z</time>
      </trkpt>
      <trkpt lat="29.021467" lon="-13.536247">
        <ele>150.435</ele>
        <time>2021-11-07T17:25:14Z</time>
      </trkpt>
      <trkpt lat="29.019475" lon="-13.538941">
        <ele>158.977</ele>
        <time>2021-11-07T17:26:02Z</time>
      </trkpt>
      <trkpt lat="29.019335" lon="-13.539315">
        <ele>155.882</ele>
        <time>2021-11-07T17:26:07Z</time>
      </trkpt>
      <trkpt lat="29.018862" lon="-13.539569">
        <ele>154.343</ele>
        <time>2021-11-07T17:26:15Z</time>
      </trkpt>
      <trkpt lat="29.014191" lon="-13.545218">
        <ele>139.817</ele>
        <time>2021-11-07T17:27:56Z</time>
      </trkpt>
      <trkpt lat="29.014093" lon="-13.545866">
        <ele>138.708</ele>
        <time>2021-11-07T17:28:09Z</time>
      </trkpt>
      <trkpt lat="29.012774" lon="-13.545870">
        <ele>134.086</ele>
        <time>2021-11-07T17:28:25Z</time>
      </trkpt>
      <trkpt lat="29.007634" lon="-13.545333">
        <ele>125.856</ele>
        <time>2021-11-07T17:29:20Z</time>
      </trkpt>
      <trkpt lat="29.006845" lon="-13.545504">
        <ele>124.843</ele>
        <time>2021-11-07T17:29:28Z</time>
      </trkpt>
      <trkpt lat="29.006153" lon="-13.545153">
        <ele>119.018</ele>
        <time>2021-11-07T17:29:36Z</time>
      </trkpt>
      <trkpt lat="29.002601" lon="-13.544817">
        <ele>108.240</ele>
        <time>2021-11-07T17:30:10Z</time>
      </trkpt>
      <trkpt lat="29.001866" lon="-13.544960">
        <ele>106.210</ele>
        <time>2021-11-07T17:30:18Z</time>
      </trkpt>
      <trkpt lat="29.001709" lon="-13.545305">
        <ele>108.746</ele>
        <time>2021-11-07T17:30:22Z</time>
      </trkpt>
      <trkpt lat="29.001906" lon="-13.548744">
        <ele>104.848</ele>
        <time>2021-11-07T17:31:03Z</time>
      </trkpt>
      <trkpt lat="29.002409" lon="-13.551618">
        <ele>107.688</ele>
        <time>2021-11-07T17:31:41Z</time>
      </trkpt>
      <trkpt lat="29.000002" lon="-13.556029">
        <ele>106.424</ele>
        <time>2021-11-07T17:32:31Z</time>
      </trkpt>
      <trkpt lat="28.999324" lon="-13.560765">
        <ele>103.226</ele>
        <time>2021-11-07T17:33:17Z</time>
      </trkpt>
      <trkpt lat="28.997218" lon="-13.560590">
        <ele>92.208</ele>
        <time>2021-11-07T17:33:54Z</time>
      </trkpt>
      <trkpt lat="28.997069" lon="-13.560715">
        <ele>93.626</ele>
        <time>2021-11-07T17:33:59Z</time>
      </trkpt>
      <trkpt lat="28.996979" lon="-13.561343">
        <ele>96.726</ele>
        <time>2021-11-07T17:34:17Z</time>
      </trkpt>
      <trkpt lat="28.995521" lon="-13.561207">
        <ele>92.163</ele>
        <time>2021-11-07T17:34:46Z</time>
      </trkpt>
      <trkpt lat="28.995331" lon="-13.561585">
        <ele>98.998</ele>
        <time>2021-11-07T17:34:56Z</time>
      </trkpt>
      <trkpt lat="28.994490" lon="-13.561566">
        <ele>94.040</ele>
        <time>2021-11-07T17:35:18Z</time>
      </trkpt>
      <trkpt lat="28.990975" lon="-13.560139">
        <ele>83.590</ele>
        <time>2021-11-07T17:36:27Z</time>
      </trkpt>
      <trkpt lat="28.990203" lon="-13.559486">
        <ele>80.666</ele>
        <time>2021-11-07T17:36:48Z</time>
      </trkpt>
      <trkpt lat="28.989468" lon="-13.559635">
        <ele>79.338</ele>
        <time>2021-11-07T17:37:43Z</time>
      </trkpt>
      <trkpt lat="28.989075" lon="-13.559386">
        <ele>77.438</ele>
        <time>2021-11-07T17:37:51Z</time>
      </trkpt>
      <trkpt lat="28.987583" lon="-13.558905">
        <ele>81.970</ele>
        <time>2021-11-07T17:38:23Z</time>
      </trkpt>
      <trkpt lat="28.987411" lon="-13.563701">
        <ele>78.817</ele>
        <time>2021-11-07T17:40:32Z</time>
      </trkpt>
      <trkpt lat="28.986865" lon="-13.565192">
        <ele>78.408</ele>
        <time>2021-11-07T17:41:19Z</time>
      </trkpt>
      <trkpt lat="28.987051" lon="-13.567181">
        <ele>79.241</ele>
        <time>2021-11-07T17:42:00Z</time>
      </trkpt>
      <trkpt lat="28.986741" lon="-13.567998">
        <ele>80.471</ele>
        <time>2021-11-07T17:42:19Z</time>
      </trkpt>
      <trkpt lat="28.986099" lon="-13.567891">
        <ele>83.438</ele>
        <time>2021-11-07T17:42:38Z</time>
      </trkpt>
      <trkpt lat="28.986208" lon="-13.567677">
        <ele>82.453</ele>
        <time>2021-11-07T17:45:19Z</time>
      </trkpt>
      <trkpt lat="28.986125" lon="-13.567756">
        <ele>82.945</ele>
        <time>2021-11-07T17:45:29Z</time>
      </trkpt>
      <trkpt lat="28.986105" lon="-13.567601">
        <ele>82.315</ele>
        <time>2021-11-07T17:45:39Z</time>
      </trkpt>
      <trkpt lat="28.986399" lon="-13.567746">
        <ele>81.961</ele>
        <time>2021-11-07T17:45:58Z</time>
      </trkpt>
      <trkpt lat="28.986190" lon="-13.567565">
        <ele>82.283</ele>
        <time>2021-11-07T17:46:35Z</time>
      </trkpt>
      <trkpt lat="28.986185" lon="-13.567840">
        <ele>83.046</ele>
        <time>2021-11-07T17:46:48Z</time>
      </trkpt>
      <trkpt lat="28.986040" lon="-13.567926">
        <ele>83.588</ele>
        <time>2021-11-07T17:47:14Z</time>
      </trkpt>
    </trkseg>
  </trk>
</gpx>
